Wetterdaten: Sonntag, 04.06.2017
Datum Zeit Temp. A. Pool Temp. Feuchte A. Luftdruck Regen Wind Richtung Richtung Sonnenschein ET UV Solar Taupunkt Windchill Windben Empfang
04.06.2017 00:00 19,9 C 26,7 C 76 % 1007,4 hPa 0,0 l/m 7,4 km/h (2 Bft) O-NO 61 0 min 0,000 mm 0,0 UV-I 0 W/m 15,5 C 19,5 C 9,7 km/h (2 Bft) 96,00 %
04.06.2017 00:02 19,9 C 26,7 C 76 % 1007,5 hPa 0,0 l/m 6,7 km/h (2 Bft) O-NO 63 0 min 0,000 mm 0,0 UV-I 0 W/m 15,5 C 19,8 C 9,7 km/h (2 Bft) 95,56 %
04.06.2017 00:04 19,9 C 26,7 C 76 % 1007,4 hPa 0,0 l/m 6,4 km/h (2 Bft) NO 52 0 min 0,000 mm 0,0 UV-I 0 W/m 15,5 C 19,9 C 8,0 km/h (2 Bft) 100,00 %
04.06.2017 00:06 19,9 C 26,7 C 77 % 1007,4 hPa 0,0 l/m 6,8 km/h (2 Bft) NO 45 0 min 0,000 mm 0,0 UV-I 0 W/m 15,7 C 19,7 C 8,0 km/h (2 Bft) 98,21 %
04.06.2017 00:08 19,9 C 26,7 C 77 % 1007,4 hPa 0,0 l/m 5,3 km/h (1 Bft) O-NO 59 0 min 0,000 mm 0,0 UV-I 0 W/m 15,7 C 19,9 C 6,4 km/h (2 Bft) 100,00 %
04.06.2017 00:10 19,8 C 26,7 C 77 % 1007,3 hPa 0,0 l/m 4,6 km/h (1 Bft) NO 53 0 min 0,000 mm 0,0 UV-I 0 W/m 15,6 C 19,8 C 8,0 km/h (2 Bft) 98,11 %
04.06.2017 00:12 19,8 C 26,7 C 77 % 1007,3 hPa 0,0 l/m 5,3 km/h (1 Bft) O-NO 62 0 min 0,000 mm 0,0 UV-I 0 W/m 15,6 C 19,8 C 8,0 km/h (2 Bft) 97,37 %
04.06.2017 00:14 19,8 C 26,7 C 77 % 1007,3 hPa 0,0 l/m 5,4 km/h (1 Bft) O-NO 60 0 min 0,000 mm 0,0 UV-I 0 W/m 15,6 C 19,8 C 8,0 km/h (2 Bft) 98,00 %
04.06.2017 00:16 19,8 C 26,7 C 77 % 1007,3 hPa 0,0 l/m 5,7 km/h (1 Bft) O-NO 71 0 min 0,000 mm 0,0 UV-I 0 W/m 15,6 C 19,8 C 8,0 km/h (2 Bft) 97,87 %
04.06.2017 00:18 19,7 C 26,7 C 78 % 1007,3 hPa 0,0 l/m 5,8 km/h (2 Bft) O-NO 74 0 min 0,000 mm 0,0 UV-I 0 W/m 15,8 C 19,7 C 6,4 km/h (2 Bft) 97,78 %
04.06.2017 00:20 19,7 C 26,7 C 78 % 1007,2 hPa 0,0 l/m 6,5 km/h (2 Bft) O-NO 70 0 min 0,000 mm 0,0 UV-I 0 W/m 15,8 C 19,7 C 9,7 km/h (2 Bft) 96,00 %
04.06.2017 00:22 19,7 C 26,7 C 78 % 1007,2 hPa 0,0 l/m 4,3 km/h (1 Bft) O-NO 70 0 min 0,000 mm 0,0 UV-I 0 W/m 15,8 C 19,7 C 6,4 km/h (2 Bft) 100,00 %
04.06.2017 00:24 19,6 C 26,7 C 78 % 1007,2 hPa 0,0 l/m 4,9 km/h (1 Bft) O-NO 65 0 min 0,000 mm 0,0 UV-I 0 W/m 15,7 C 19,6 C 6,4 km/h (2 Bft) 97,37 %
04.06.2017 00:26 19,6 C 26,7 C 78 % 1007,2 hPa 0,0 l/m 4,1 km/h (1 Bft) O-NO 65 0 min 0,000 mm 0,0 UV-I 0 W/m 15,7 C 19,6 C 4,8 km/h (1 Bft) 100,00 %
04.06.2017 00:28 19,6 C 26,7 C 78 % 1007,2 hPa 0,0 l/m 3,9 km/h (1 Bft) O-NO 65 0 min 0,000 mm 0,0 UV-I 0 W/m 15,7 C 19,6 C 6,4 km/h (2 Bft) 100,00 %
04.06.2017 00:30 19,5 C 26,7 C 79 % 1007,2 hPa 0,0 l/m 4,5 km/h (1 Bft) O-NO 69 0 min 0,000 mm 0,0 UV-I 0 W/m 15,8 C 19,5 C 6,4 km/h (2 Bft) 97,87 %
04.06.2017 00:32 19,4 C 26,7 C 79 % 1007,2 hPa 0,0 l/m 5,4 km/h (1 Bft) O-NO 59 0 min 0,000 mm 0,0 UV-I 0 W/m 15,7 C 19,4 C 8,0 km/h (2 Bft) 98,11 %
04.06.2017 00:34 19,4 C 26,7 C 79 % 1007,1 hPa 0,0 l/m 5,1 km/h (1 Bft) O-NO 66 0 min 0,000 mm 0,0 UV-I 0 W/m 15,7 C 19,4 C 8,0 km/h (2 Bft) 97,87 %
04.06.2017 00:36 19,4 C 26,7 C 79 % 1007,1 hPa 0,0 l/m 3,1 km/h (1 Bft) O-NO 66 0 min 0,000 mm 0,0 UV-I 0 W/m 15,7 C 19,4 C 4,8 km/h (1 Bft) 100,00 %
04.06.2017 00:38 19,3 C 26,7 C 79 % 1007,1 hPa 0,0 l/m 3,3 km/h (1 Bft) O-NO 66 0 min 0,000 mm 0,0 UV-I 0 W/m 15,6 C 19,3 C 4,8 km/h (1 Bft) 98,21 %
04.06.2017 00:40 19,2 C 26,7 C 79 % 1007,1 hPa 0,0 l/m 3,3 km/h (1 Bft) O-NO 66 0 min 0,000 mm 0,0 UV-I 0 W/m 15,5 C 19,2 C 4,8 km/h (1 Bft) 100,00 %
04.06.2017 00:42 19,1 C 26,7 C 80 % 1007,0 hPa 0,0 l/m 3,7 km/h (1 Bft) O-NO 66 0 min 0,000 mm 0,0 UV-I 0 W/m 15,6 C 19,1 C 4,8 km/h (1 Bft) 95,45 %
04.06.2017 00:44 19,1 C 26,7 C 80 % 1007,0 hPa 0,0 l/m 3,7 km/h (1 Bft) O-NO 66 0 min 0,000 mm 0,0 UV-I 0 W/m 15,6 C 19,1 C 4,8 km/h (1 Bft) 100,00 %
04.06.2017 00:46 19,1 C 26,7 C 80 % 1007,0 hPa 0,0 l/m 3,6 km/h (1 Bft) O-NO 66 0 min 0,000 mm 0,0 UV-I 0 W/m 15,6 C 19,1 C 4,8 km/h (1 Bft) 95,74 %
04.06.2017 00:48 19,1 C 26,7 C 80 % 1007,0 hPa 0,0 l/m 3,1 km/h (1 Bft) O-NO 66 0 min 0,000 mm 0,0 UV-I 0 W/m 15,6 C 19,1 C 4,8 km/h (1 Bft) 98,11 %
04.06.2017 00:50 19,1 C 26,7 C 80 % 1007,0 hPa 0,0 l/m 2,8 km/h (1 Bft) O-NO 66 0 min 0,000 mm 0,0 UV-I 0 W/m 15,6 C 19,1 C 3,2 km/h (1 Bft) 97,87 %
04.06.2017 00:52 19,1 C 26,7 C 80 % 1007,0 hPa 0,0 l/m 3,2 km/h (1 Bft) O-NO 66 0 min 0,000 mm 0,0 UV-I 0 W/m 15,6 C 19,1 C 4,8 km/h (1 Bft) 97,56 %
04.06.2017 00:54 19,1 C 26,7 C 80 % 1007,0 hPa 0,0 l/m 3,8 km/h (1 Bft) O-NO 66 0 min 0,000 mm 0,0 UV-I 0 W/m 15,6 C 19,1 C 4,8 km/h (1 Bft) 97,87 %
04.06.2017 00:56 19,0 C 26,7 C 81 % 1006,9 hPa 0,0 l/m 3,7 km/h (1 Bft) O-NO 66 0 min 0,000 mm 0,0 UV-I 0 W/m 15,7 C 19,0 C 4,8 km/h (1 Bft) 97,78 %
04.06.2017 00:58 19,0 C 26,7 C 81 % 1006,9 hPa 0,0 l/m 3,7 km/h (1 Bft) O-NO 66 0 min 0,000 mm 0,0 UV-I 0 W/m 15,7 C 19,0 C 4,8 km/h (1 Bft) 94,23 %
04.06.2017 01:00 18,9 C 26,7 C 80 % 1006,9 hPa 0,0 l/m 2,5 km/h (1 Bft) O-NO 66 0 min 0,025 mm 0,0 UV-I 0 W/m 15,4 C 18,9 C 3,2 km/h (1 Bft) 95,74 %
04.06.2017 01:02 18,9 C 26,7 C 81 % 1006,9 hPa 0,0 l/m 1,9 km/h (1 Bft) O-NO 66 0 min 0,000 mm 0,0 UV-I 0 W/m 15,6 C 18,9 C 3,2 km/h (1 Bft) 95,83 %
04.06.2017 01:04 18,8 C 26,7 C 81 % 1006,9 hPa 0,0 l/m 2,2 km/h (1 Bft) O-NO 66 0 min 0,000 mm 0,0 UV-I 0 W/m 15,5 C 18,8 C 3,2 km/h (1 Bft) 92,68 %
04.06.2017 01:06 18,7 C 26,7 C 81 % 1006,9 hPa 0,0 l/m 2,0 km/h (1 Bft) O-NO 66 0 min 0,000 mm 0,0 UV-I 0 W/m 15,4 C 18,7 C 3,2 km/h (1 Bft) 98,11 %
04.06.2017 01:08 18,7 C 26,7 C 81 % 1006,9 hPa 0,0 l/m 1,7 km/h (1 Bft) O-NO 66 0 min 0,000 mm 0,0 UV-I 0 W/m 15,4 C 18,7 C 3,2 km/h (1 Bft) 94,74 %
04.06.2017 01:10 18,5 C 26,7 C 82 % 1006,9 hPa 0,0 l/m 0,3 km/h (0 Bft) O-NO 66 0 min 0,000 mm 0,0 UV-I 0 W/m 15,4 C 18,5 C 1,6 km/h (1 Bft) 98,11 %
04.06.2017 01:12 18,4 C 26,7 C 82 % 1006,9 hPa 0,0 l/m 0,0 km/h (0 Bft) O-NO 66 0 min 0,000 mm 0,0 UV-I 0 W/m 15,3 C 18,4 C 1,6 km/h (1 Bft) 94,74 %
04.06.2017 01:14 18,4 C 26,7 C 83 % 1006,8 hPa 0,0 l/m 0,3 km/h (0 Bft) O-NO 66 0 min 0,000 mm 0,0 UV-I 0 W/m 15,5 C 18,4 C 1,6 km/h (1 Bft) 96,23 %
04.06.2017 01:16 18,3 C 26,7 C 83 % 1006,8 hPa 0,0 l/m 0,0 km/h (0 Bft) O-NO 66 0 min 0,000 mm 0,0 UV-I 0 W/m 15,4 C 18,3 C 0,0 km/h (0 Bft) 93,62 %
04.06.2017 01:18 18,2 C 26,7 C 83 % 1006,8 hPa 0,0 l/m 0,0 km/h (0 Bft) O-NO 66 0 min 0,000 mm 0,0 UV-I 0 W/m 15,3 C 18,2 C 0,0 km/h (0 Bft) 96,00 %
04.06.2017 01:20 18,1 C 26,7 C 84 % 1006,8 hPa 0,0 l/m 0,0 km/h (0 Bft) O-NO 66 0 min 0,000 mm 0,0 UV-I 0 W/m 15,4 C 18,1 C 0,0 km/h (0 Bft) 95,74 %
04.06.2017 01:22 18,1 C 26,7 C 84 % 1006,8 hPa 0,0 l/m 0,0 km/h (0 Bft) O-NO 66 0 min 0,000 mm 0,0 UV-I 0 W/m 15,4 C 18,1 C 0,0 km/h (0 Bft) 95,74 %
04.06.2017 01:24 17,9 C 26,7 C 84 % 1006,8 hPa 0,0 l/m 0,0 km/h (0 Bft) O-NO 66 0 min 0,000 mm 0,0 UV-I 0 W/m 15,2 C 17,9 C 0,0 km/h (0 Bft) 97,56 %
04.06.2017 01:26 17,8 C 26,7 C 84 % 1006,8 hPa 0,0 l/m 0,0 km/h (0 Bft) O-NO 66 0 min 0,000 mm 0,0 UV-I 0 W/m 15,1 C 17,8 C 0,0 km/h (0 Bft) 97,87 %
04.06.2017 01:28 17,7 C 26,7 C 84 % 1006,7 hPa 0,0 l/m 0,0 km/h (0 Bft) O-NO 66 0 min 0,000 mm 0,0 UV-I 0 W/m 15,0 C 17,7 C 0,0 km/h (0 Bft) 98,00 %
04.06.2017 01:30 17,6 C 26,7 C 85 % 1006,7 hPa 0,0 l/m 0,0 km/h (0 Bft) O-NO 66 0 min 0,000 mm 0,0 UV-I 0 W/m 15,0 C 17,6 C 0,0 km/h (0 Bft) 98,00 %
04.06.2017 01:32 17,6 C 26,7 C 85 % 1006,7 hPa 0,0 l/m 0,0 km/h (0 Bft) O-NO 66 0 min 0,000 mm 0,0 UV-I 0 W/m 15,0 C 17,6 C 0,0 km/h (0 Bft) 100,00 %
04.06.2017 01:34 17,5 C 26,7 C 86 % 1006,7 hPa 0,0 l/m 0,0 km/h (0 Bft) O-NO 66 0 min 0,000 mm 0,0 UV-I 0 W/m 15,1 C 17,5 C 0,0 km/h (0 Bft) 97,87 %
04.06.2017 01:36 17,4 C 26,7 C 86 % 1006,6 hPa 0,0 l/m 0,0 km/h (0 Bft) O-NO 66 0 min 0,000 mm 0,0 UV-I 0 W/m 15,0 C 17,4 C 0,0 km/h (0 Bft) 100,00 %
04.06.2017 01:38 17,3 C 26,7 C 86 % 1006,6 hPa 0,0 l/m 0,0 km/h (0 Bft) O-NO 66 0 min 0,000 mm 0,0 UV-I 0 W/m 14,9 C 17,3 C 0,0 km/h (0 Bft) 97,87 %
04.06.2017 01:40 17,3 C 26,7 C 86 % 1006,6 hPa 0,0 l/m 0,0 km/h (0 Bft) O-NO 66 0 min 0,000 mm 0,0 UV-I 0 W/m 14,9 C 17,3 C 0,0 km/h (0 Bft) 98,00 %
04.06.2017 01:42 17,3 C 26,7 C 86 % 1006,6 hPa 0,0 l/m 0,0 km/h (0 Bft) O-NO 66 0 min 0,000 mm 0,0 UV-I 0 W/m 14,9 C 17,3 C 0,0 km/h (0 Bft) 98,00 %
04.06.2017 01:44 17,3 C 26,7 C 87 % 1006,6 hPa 0,0 l/m 0,0 km/h (0 Bft) O-NO 66 0 min 0,000 mm 0,0 UV-I 0 W/m 15,1 C 17,3 C 0,0 km/h (0 Bft) 97,37 %
04.06.2017 01:46 17,3 C 26,7 C 87 % 1006,6 hPa 0,0 l/m 0,0 km/h (0 Bft) O-NO 66 0 min 0,000 mm 0,0 UV-I 0 W/m 15,1 C 17,3 C 0,0 km/h (0 Bft) 100,00 %
04.06.2017 01:48 17,3 C 26,7 C 86 % 1006,6 hPa 0,0 l/m 0,0 km/h (0 Bft) O-NO 66 0 min 0,000 mm 0,0 UV-I 0 W/m 14,9 C 17,3 C 0,0 km/h (0 Bft) 100,00 %
04.06.2017 01:50 17,3 C 26,7 C 86 % 1006,6 hPa 0,0 l/m 0,0 km/h (0 Bft) O-NO 66 0 min 0,000 mm 0,0 UV-I 0 W/m 14,9 C 17,3 C 0,0 km/h (0 Bft) 100,00 %
04.06.2017 01:52 17,2 C 26,7 C 86 % 1006,5 hPa 0,0 l/m 0,0 km/h (0 Bft) O-NO 66 0 min 0,000 mm 0,0 UV-I 0 W/m 14,8 C 17,2 C 0,0 km/h (0 Bft) 97,87 %
04.06.2017 01:54 17,1 C 26,7 C 87 % 1006,6 hPa 0,0 l/m 1,4 km/h (1 Bft) O-NO 66 0 min 0,000 mm 0,0 UV-I 0 W/m 14,9 C 17,1 C 3,2 km/h (1 Bft) 100,00 %
04.06.2017 01:56 17,2 C 26,7 C 87 % 1006,5 hPa 0,0 l/m 1,8 km/h (1 Bft) O-NO 66 0 min 0,000 mm 0,0 UV-I 0 W/m 15,0 C 17,2 C 3,2 km/h (1 Bft) 97,37 %
04.06.2017 01:58 17,2 C 26,7 C 87 % 1006,5 hPa 0,0 l/m 2,4 km/h (1 Bft) O-NO 66 0 min 0,000 mm 0,0 UV-I 0 W/m 15,0 C 17,2 C 3,2 km/h (1 Bft) 98,11 %
04.06.2017 02:00 17,3 C 26,7 C 87 % 1006,5 hPa 0,0 l/m 1,2 km/h (1 Bft) O-NO 66 0 min 0,000 mm 0,0 UV-I 0 W/m 15,1 C 17,3 C 3,2 km/h (1 Bft) 97,87 %
04.06.2017 02:02 17,3 C 26,7 C 87 % 1006,5 hPa 0,0 l/m 0,1 km/h (0 Bft) O-NO 66 0 min 0,000 mm 0,0 UV-I 0 W/m 15,1 C 17,3 C 1,6 km/h (1 Bft) 97,87 %
04.06.2017 02:04 17,4 C 26,7 C 87 % 1006,4 hPa 0,0 l/m 0,0 km/h (0 Bft) O-NO 66 0 min 0,000 mm 0,0 UV-I 0 W/m 15,2 C 17,4 C 0,0 km/h (0 Bft) 100,00 %
04.06.2017 02:06 17,3 C 26,7 C 87 % 1006,4 hPa 0,0 l/m 0,0 km/h (0 Bft) O-NO 66 0 min 0,000 mm 0,0 UV-I 0 W/m 15,1 C 17,3 C 0,0 km/h (0 Bft) 97,87 %
04.06.2017 02:08 17,2 C 26,7 C 87 % 1006,3 hPa 0,0 l/m 0,0 km/h (0 Bft) O-NO 66 0 min 0,000 mm 0,0 UV-I 0 W/m 15,0 C 17,2 C 0,0 km/h (0 Bft) 100,00 %
04.06.2017 02:10 17,1 C 26,7 C 87 % 1006,3 hPa 0,0 l/m 0,0 km/h (0 Bft) O-NO 66 0 min 0,000 mm 0,0 UV-I 0 W/m 14,9 C 17,1 C 0,0 km/h (0 Bft) 97,56 %
04.06.2017 02:12 16,9 C 26,7 C 87 % 1006,3 hPa 0,0 l/m 0,0 km/h (0 Bft) O-NO 66 0 min 0,000 mm 0,0 UV-I 0 W/m 14,7 C 16,9 C 0,0 km/h (0 Bft) 94,00 %
04.06.2017 02:14 16,9 C 26,7 C 87 % 1006,3 hPa 0,0 l/m 0,0 km/h (0 Bft) O-NO 66 0 min 0,000 mm 0,0 UV-I 0 W/m 14,7 C 16,9 C 0,0 km/h (0 Bft) 100,00 %
04.06.2017 02:16 16,8 C 26,7 C 87 % 1006,2 hPa 0,0 l/m 0,0 km/h (0 Bft) O-NO 66 0 min 0,000 mm 0,0 UV-I 0 W/m 14,6 C 16,8 C 0,0 km/h (0 Bft) 95,74 %
04.06.2017 02:18 16,8 C 26,7 C 88 % 1006,2 hPa 0,0 l/m 0,0 km/h (0 Bft) O-NO 66 0 min 0,000 mm 0,0 UV-I 0 W/m 14,8 C 16,8 C 0,0 km/h (0 Bft) 100,00 %
04.06.2017 02:20 16,8 C 26,7 C 88 % 1006,2 hPa 0,0 l/m 0,3 km/h (0 Bft) O-NO 66 0 min 0,000 mm 0,0 UV-I 0 W/m 14,8 C 16,8 C 1,6 km/h (1 Bft) 97,92 %
04.06.2017 02:22 16,8 C 26,7 C 88 % 1006,2 hPa 0,0 l/m 0,6 km/h (0 Bft) O-NO 66 0 min 0,000 mm 0,0 UV-I 0 W/m 14,8 C 16,8 C 1,6 km/h (1 Bft) 97,37 %
04.06.2017 02:24 16,8 C 26,7 C 88 % 1006,2 hPa 0,0 l/m 0,0 km/h (0 Bft) O-NO 66 0 min 0,000 mm 0,0 UV-I 0 W/m 14,8 C 16,8 C 0,0 km/h (0 Bft) 100,00 %
04.06.2017 02:26 16,7 C 26,7 C 88 % 1006,2 hPa 0,0 l/m 0,0 km/h (0 Bft) O-NO 66 0 min 0,000 mm 0,0 UV-I 0 W/m 14,7 C 16,7 C 0,0 km/h (0 Bft) 98,00 %
04.06.2017 02:28 16,6 C 26,7 C 88 % 1006,2 hPa 0,0 l/m 0,3 km/h (0 Bft) O-NO 66 0 min 0,000 mm 0,0 UV-I 0 W/m 14,6 C 16,6 C 1,6 km/h (1 Bft) 97,37 %
04.06.2017 02:30 16,5 C 26,7 C 88 % 1006,1 hPa 0,0 l/m 0,4 km/h (0 Bft) O-NO 66 0 min 0,000 mm 0,0 UV-I 0 W/m 14,5 C 16,5 C 1,6 km/h (1 Bft) 98,00 %
04.06.2017 02:32 16,5 C 26,7 C 88 % 1006,2 hPa 0,0 l/m 0,0 km/h (0 Bft) O-NO 66 0 min 0,000 mm 0,0 UV-I 0 W/m 14,5 C 16,5 C 0,0 km/h (0 Bft) 98,00 %
04.06.2017 02:34 16,6 C 26,7 C 89 % 1006,1 hPa 0,0 l/m 0,0 km/h (0 Bft) O-NO 66 0 min 0,000 mm 0,0 UV-I 0 W/m 14,8 C 16,6 C 0,0 km/h (0 Bft) 100,00 %
04.06.2017 02:36 16,5 C 26,7 C 89 % 1006,1 hPa 0,0 l/m 0,0 km/h (0 Bft) O-NO 66 0 min 0,000 mm 0,0 UV-I 0 W/m 14,7 C 16,5 C 0,0 km/h (0 Bft) 98,11 %
04.06.2017 02:38 16,5 C 26,7 C 89 % 1006,1 hPa 0,0 l/m 0,0 km/h (0 Bft) O-NO 66 0 min 0,000 mm 0,0 UV-I 0 W/m 14,7 C 16,5 C 0,0 km/h (0 Bft) 100,00 %
04.06.2017 02:40 16,5 C 26,7 C 89 % 1006,1 hPa 0,0 l/m 0,0 km/h (0 Bft) O-NO 66 0 min 0,000 mm 0,0 UV-I 0 W/m 14,7 C 16,5 C 0,0 km/h (0 Bft) 94,00 %
04.06.2017 02:42 16,5 C 26,1 C 89 % 1006,0 hPa 0,0 l/m 0,0 km/h (0 Bft) O-NO 66 0 min 0,000 mm 0,0 UV-I 0 W/m 14,7 C 16,5 C 0,0 km/h (0 Bft) 96,00 %
04.06.2017 02:44 16,6 C 26,7 C 89 % 1006,1 hPa 0,0 l/m 0,0 km/h (0 Bft) O-NO 66 0 min 0,000 mm 0,0 UV-I 0 W/m 14,8 C 16,6 C 0,0 km/h (0 Bft) 95,74 %
04.06.2017 02:46 16,6 C 26,7 C 89 % 1006,1 hPa 0,0 l/m 0,0 km/h (0 Bft) O-NO 66 0 min 0,000 mm 0,0 UV-I 0 W/m 14,8 C 16,6 C 0,0 km/h (0 Bft) 95,56 %
04.06.2017 02:48 16,6 C 26,1 C 89 % 1006,1 hPa 0,0 l/m 0,6 km/h (0 Bft) O-NO 66 0 min 0,000 mm 0,0 UV-I 0 W/m 14,8 C 16,6 C 1,6 km/h (1 Bft) 95,74 %
04.06.2017 02:50 16,7 C 26,1 C 89 % 1006,0 hPa 0,0 l/m 0,0 km/h (0 Bft) O-NO 66 0 min 0,000 mm 0,0 UV-I 0 W/m 14,9 C 16,7 C 0,0 km/h (0 Bft) 94,00 %
04.06.2017 02:52 16,7 C 26,1 C 89 % 1006,0 hPa 0,0 l/m 0,0 km/h (0 Bft) O-NO 66 0 min 0,000 mm 0,0 UV-I 0 W/m 14,9 C 16,7 C 0,0 km/h (0 Bft) 92,00 %
04.06.2017 02:54 16,7 C 26,1 C 89 % 1006,0 hPa 0,0 l/m 0,0 km/h (0 Bft) O-NO 66 0 min 0,000 mm 0,0 UV-I 0 W/m 14,9 C 16,7 C 0,0 km/h (0 Bft) 95,74 %
04.06.2017 02:56 16,7 C 26,1 C 89 % 1005,9 hPa 0,0 l/m 0,1 km/h (0 Bft) O-NO 66 0 min 0,000 mm 0,0 UV-I 0 W/m 14,9 C 16,7 C 1,6 km/h (1 Bft) 94,44 %
04.06.2017 02:58 16,6 C 26,1 C 89 % 1005,9 hPa 0,0 l/m 0,0 km/h (0 Bft) O-NO 66 0 min 0,000 mm 0,0 UV-I 0 W/m 14,8 C 16,6 C 0,0 km/h (0 Bft) 96,00 %
04.06.2017 03:00 16,6 C 26,1 C 90 % 1006,0 hPa 0,0 l/m 0,0 km/h (0 Bft) O-NO 66 0 min 0,000 mm 0,0 UV-I 0 W/m 15,0 C 16,6 C 0,0 km/h (0 Bft) 96,00 %
04.06.2017 03:02 16,6 C 26,1 C 90 % 1006,0 hPa 0,0 l/m 0,0 km/h (0 Bft) O-NO 66 0 min 0,000 mm 0,0 UV-I 0 W/m 15,0 C 16,6 C 0,0 km/h (0 Bft) 94,00 %
04.06.2017 03:04 16,6 C 26,1 C 90 % 1005,9 hPa 0,0 l/m 0,0 km/h (0 Bft) O-NO 66 0 min 0,000 mm 0,0 UV-I 0 W/m 15,0 C 16,6 C 1,6 km/h (1 Bft) 94,00 %
04.06.2017 03:06 16,6 C 26,1 C 89 % 1005,9 hPa 0,0 l/m 0,0 km/h (0 Bft) O-NO 66 0 min 0,000 mm 0,0 UV-I 0 W/m 14,8 C 16,6 C 0,0 km/h (0 Bft) 95,74 %
04.06.2017 03:08 16,5 C 26,1 C 89 % 1005,9 hPa 0,0 l/m 0,0 km/h (0 Bft) O-NO 66 0 min 0,000 mm 0,0 UV-I 0 W/m 14,7 C 16,5 C 0,0 km/h (0 Bft) 94,29 %
04.06.2017 03:10 16,5 C 26,1 C 89 % 1005,9 hPa 0,0 l/m 0,0 km/h (0 Bft) O-NO 66 0 min 0,000 mm 0,0 UV-I 0 W/m 14,7 C 16,5 C 0,0 km/h (0 Bft) 92,00 %
04.06.2017 03:12 16,4 C 26,1 C 89 % 1005,8 hPa 0,0 l/m 0,0 km/h (0 Bft) O-NO 66 0 min 0,000 mm 0,0 UV-I 0 W/m 14,6 C 16,4 C 0,0 km/h (0 Bft) 94,00 %
04.06.2017 03:14 16,4 C 26,1 C 89 % 1005,8 hPa 0,0 l/m 0,1 km/h (0 Bft) O-NO 66 0 min 0,000 mm 0,0 UV-I 0 W/m 14,6 C 16,4 C 1,6 km/h (1 Bft) 93,62 %
04.06.2017 03:16 16,4 C 26,1 C 89 % 1005,8 hPa 0,0 l/m 0,3 km/h (0 Bft) O-NO 66 0 min 0,000 mm 0,0 UV-I 0 W/m 14,6 C 16,4 C 1,6 km/h (1 Bft) 94,00 %
04.06.2017 03:18 16,4 C 26,1 C 90 % 1005,8 hPa 0,0 l/m 1,8 km/h (1 Bft) O-NO 66 0 min 0,000 mm 0,0 UV-I 0 W/m 14,8 C 16,4 C 3,2 km/h (1 Bft) 92,11 %
04.06.2017 03:20 16,5 C 26,1 C 90 % 1005,8 hPa 0,0 l/m 0,8 km/h (0 Bft) O-NO 66 0 min 0,000 mm 0,0 UV-I 0 W/m 14,9 C 16,5 C 1,6 km/h (1 Bft) 93,62 %
04.06.2017 03:22 16,5 C 26,1 C 90 % 1005,8 hPa 0,0 l/m 0,0 km/h (0 Bft) O-NO 66 0 min 0,000 mm 0,0 UV-I 0 W/m 14,9 C 16,5 C 0,0 km/h (0 Bft) 89,29 %
04.06.2017 03:24 16,5 C 26,1 C 90 % 1005,8 hPa 0,0 l/m 0,0 km/h (0 Bft) O-NO 66 0 min 0,000 mm 0,0 UV-I 0 W/m 14,9 C 16,5 C 0,0 km/h (0 Bft) 93,62 %
04.06.2017 03:26 16,5 C 26,1 C 89 % 1005,7 hPa 0,0 l/m 0,0 km/h (0 Bft) O-NO 66 0 min 0,000 mm 0,0 UV-I 0 W/m 14,7 C 16,5 C 0,0 km/h (0 Bft) 93,62 %
04.06.2017 03:28 16,4 C 26,1 C 89 % 1005,8 hPa 0,0 l/m 0,1 km/h (0 Bft) O-NO 66 0 min 0,000 mm 0,0 UV-I 0 W/m 14,6 C 16,4 C 1,6 km/h (1 Bft) 94,74 %
04.06.2017 03:30 16,4 C 26,1 C 89 % 1005,7 hPa 0,0 l/m 0,0 km/h (0 Bft) O-NO 66 0 min 0,000 mm 0,0 UV-I 0 W/m 14,6 C 16,4 C 0,0 km/h (0 Bft) 94,00 %
04.06.2017 03:32 16,3 C 26,1 C 89 % 1005,7 hPa 0,0 l/m 0,0 km/h (0 Bft) O-NO 66 0 min 0,000 mm 0,0 UV-I 0 W/m 14,5 C 16,3 C 0,0 km/h (0 Bft) 95,74 %
04.06.2017 03:34 16,3 C 26,1 C 90 % 1005,6 hPa 0,0 l/m 0,3 km/h (0 Bft) O-NO 66 0 min 0,000 mm 0,0 UV-I 0 W/m 14,7 C 16,3 C 1,6 km/h (1 Bft) 94,44 %
04.06.2017 03:36 16,3 C 26,1 C 90 % 1005,6 hPa 0,0 l/m 0,1 km/h (0 Bft) O-NO 66 0 min 0,000 mm 0,0 UV-I 0 W/m 14,7 C 16,3 C 1,6 km/h (1 Bft) 96,88 %
04.06.2017 03:38 16,3 C 26,1 C 91 % 1005,6 hPa 0,0 l/m 0,5 km/h (0 Bft) O-NO 66 0 min 0,000 mm 0,0 UV-I 0 W/m 14,8 C 16,3 C 3,2 km/h (1 Bft) 100,00 %
04.06.2017 03:40 16,3 C 26,1 C 91 % 1005,6 hPa 0,0 l/m 0,0 km/h (0 Bft) O-NO 66 0 min 0,000 mm 0,0 UV-I 0 W/m 14,8 C 16,3 C 0,0 km/h (0 Bft) 96,00 %
04.06.2017 03:42 16,4 C 26,1 C 91 % 1005,6 hPa 0,0 l/m 0,0 km/h (0 Bft) O-NO 66 0 min 0,000 mm 0,0 UV-I 0 W/m 14,9 C 16,4 C 0,0 km/h (0 Bft) 100,00 %
04.06.2017 03:44 16,5 C 26,1 C 90 % 1005,6 hPa 0,0 l/m 0,3 km/h (0 Bft) O-NO 66 0 min 0,000 mm 0,0 UV-I 0 W/m 14,9 C 16,5 C 1,6 km/h (1 Bft) 97,87 %
04.06.2017 03:46 16,5 C 26,1 C 90 % 1005,6 hPa 0,0 l/m 1,7 km/h (1 Bft) O-NO 66 0 min 0,000 mm 0,0 UV-I 0 W/m 14,9 C 16,5 C 3,2 km/h (1 Bft) 97,87 %
04.06.2017 03:48 16,5 C 26,1 C 90 % 1005,6 hPa 0,0 l/m 1,4 km/h (1 Bft) O-NO 66 0 min 0,000 mm 0,0 UV-I 0 W/m 14,9 C 16,5 C 3,2 km/h (1 Bft) 97,87 %
04.06.2017 03:50 16,4 C 26,1 C 90 % 1005,6 hPa 0,0 l/m 0,0 km/h (0 Bft) O-NO 66 0 min 0,000 mm 0,0 UV-I 0 W/m 14,8 C 16,4 C 0,0 km/h (0 Bft) 100,00 %
04.06.2017 03:52 16,5 C 26,1 C 90 % 1005,6 hPa 0,0 l/m 0,0 km/h (0 Bft) O-NO 66 0 min 0,000 mm 0,0 UV-I 0 W/m 14,9 C 16,5 C 0,0 km/h (0 Bft) 100,00 %
04.06.2017 03:54 16,6 C 26,1 C 90 % 1005,6 hPa 0,0 l/m 0,0 km/h (0 Bft) O-NO 66 0 min 0,000 mm 0,0 UV-I 0 W/m 15,0 C 16,6 C 0,0 km/h (0 Bft) 100,00 %
04.06.2017 03:56 16,6 C 26,1 C 90 % 1005,7 hPa 0,0 l/m 0,0 km/h (0 Bft) O-NO 66 0 min 0,000 mm 0,0 UV-I 0 W/m 15,0 C 16,6 C 0,0 km/h (0 Bft) 95,74 %
04.06.2017 03:58 16,6 C 26,1 C 90 % 1005,7 hPa 0,0 l/m 1,0 km/h (0 Bft) O-NO 66 0 min 0,000 mm 0,0 UV-I 0 W/m 15,0 C 16,6 C 4,8 km/h (1 Bft) 100,00 %
04.06.2017 04:00 16,6 C 26,1 C 90 % 1005,6 hPa 0,0 l/m 3,3 km/h (1 Bft) O-NO 66 0 min 0,000 mm 0,0 UV-I 0 W/m 15,0 C 16,6 C 4,8 km/h (1 Bft) 98,11 %
04.06.2017 04:02 16,6 C 26,1 C 90 % 1005,6 hPa 0,0 l/m 3,2 km/h (1 Bft) O-NO 66 0 min 0,000 mm 0,0 UV-I 0 W/m 15,0 C 16,6 C 3,2 km/h (1 Bft) 80,95 %
04.06.2017 04:04 16,6 C 26,1 C 90 % 1005,6 hPa 0,0 l/m 0,5 km/h (0 Bft) O-NO 66 0 min 0,000 mm 0,0 UV-I 0 W/m 15,0 C 16,6 C 3,2 km/h (1 Bft) 100,00 %
04.06.2017 04:06 16,7 C 26,1 C 90 % 1005,6 hPa 0,0 l/m 0,0 km/h (0 Bft) O-NO 66 0 min 0,000 mm 0,0 UV-I 0 W/m 15,0 C 16,7 C 1,6 km/h (1 Bft) 98,11 %
04.06.2017 04:08 16,7 C 26,1 C 90 % 1005,6 hPa 0,0 l/m 0,0 km/h (0 Bft) O-NO 66 0 min 0,000 mm 0,0 UV-I 0 W/m 15,0 C 16,7 C 0,0 km/h (0 Bft) 100,00 %
04.06.2017 04:10 16,8 C 26,1 C 89 % 1005,6 hPa 0,0 l/m 0,0 km/h (0 Bft) O-NO 66 0 min 0,000 mm 0,0 UV-I 0 W/m 15,0 C 16,8 C 0,0 km/h (0 Bft) 97,44 %
04.06.2017 04:12 16,8 C 26,1 C 89 % 1005,7 hPa 0,0 l/m 1,5 km/h (1 Bft) O-NO 66 0 min 0,000 mm 0,0 UV-I 0 W/m 15,0 C 16,8 C 4,8 km/h (1 Bft) 100,00 %
04.06.2017 04:14 16,7 C 26,1 C 88 % 1005,7 hPa 0,0 l/m 4,1 km/h (1 Bft) S 178 0 min 0,000 mm 0,0 UV-I 0 W/m 14,7 C 16,7 C 4,8 km/h (1 Bft) 97,44 %
04.06.2017 04:16 16,6 C 26,1 C 88 % 1005,6 hPa 0,0 l/m 2,4 km/h (1 Bft) S 178 0 min 0,000 mm 0,0 UV-I 0 W/m 14,6 C 16,6 C 3,2 km/h (1 Bft) 98,11 %
04.06.2017 04:18 16,4 C 26,1 C 89 % 1005,7 hPa 0,0 l/m 2,7 km/h (1 Bft) S 179 0 min 0,000 mm 0,0 UV-I 0 W/m 14,6 C 16,4 C 4,8 km/h (1 Bft) 100,00 %
04.06.2017 04:20 16,4 C 26,1 C 89 % 1005,7 hPa 0,0 l/m 4,5 km/h (1 Bft) SW 222 0 min 0,000 mm 0,0 UV-I 0 W/m 14,6 C 16,4 C 6,4 km/h (2 Bft) 96,30 %
04.06.2017 04:22 16,4 C 26,1 C 90 % 1005,8 hPa 0,0 l/m 4,7 km/h (1 Bft) SW 222 0 min 0,000 mm 0,0 UV-I 0 W/m 14,8 C 16,4 C 6,4 km/h (2 Bft) 97,73 %
04.06.2017 04:24 16,4 C 26,1 C 90 % 1005,8 hPa 0,0 l/m 5,4 km/h (1 Bft) SW 223 0 min 0,000 mm 0,0 UV-I 0 W/m 14,8 C 16,4 C 6,4 km/h (2 Bft) 96,00 %
04.06.2017 04:26 16,4 C 26,1 C 90 % 1005,9 hPa 0,0 l/m 3,9 km/h (1 Bft) SW 223 0 min 0,000 mm 0,0 UV-I 0 W/m 14,8 C 16,4 C 4,8 km/h (1 Bft) 98,00 %
04.06.2017 04:28 16,4 C 26,1 C 90 % 1005,9 hPa 0,0 l/m 4,7 km/h (1 Bft) SW 223 0 min 0,000 mm 0,0 UV-I 0 W/m 14,8 C 16,4 C 6,4 km/h (2 Bft) 100,00 %
04.06.2017 04:30 16,4 C 26,1 C 90 % 1005,9 hPa 0,0 l/m 4,2 km/h (1 Bft) SW 223 0 min 0,000 mm 0,0 UV-I 0 W/m 14,8 C 16,4 C 6,4 km/h (2 Bft) 97,87 %
04.06.2017 04:32 16,4 C 26,1 C 90 % 1006,0 hPa 0,0 l/m 4,7 km/h (1 Bft) SW 223 0 min 0,000 mm 0,0 UV-I 0 W/m 14,8 C 16,4 C 6,4 km/h (2 Bft) 98,11 %
04.06.2017 04:34 16,6 C 26,1 C 90 % 1006,0 hPa 0,0 l/m 3,8 km/h (1 Bft) SW 223 0 min 0,000 mm 0,0 UV-I 0 W/m 15,0 C 16,6 C 6,4 km/h (2 Bft) 98,00 %
04.06.2017 04:36 16,6 C 26,1 C 90 % 1006,0 hPa 0,0 l/m 5,1 km/h (1 Bft) SW 222 0 min 0,000 mm 0,0 UV-I 0 W/m 15,0 C 16,6 C 6,4 km/h (2 Bft) 97,56 %
04.06.2017 04:38 16,6 C 26,1 C 90 % 1006,0 hPa 0,0 l/m 4,8 km/h (1 Bft) S-SW 212 0 min 0,000 mm 0,0 UV-I 0 W/m 15,0 C 16,6 C 6,4 km/h (2 Bft) 97,87 %
04.06.2017 04:40 16,7 C 26,1 C 89 % 1006,1 hPa 0,0 l/m 5,0 km/h (1 Bft) SW 218 0 min 0,000 mm 0,0 UV-I 0 W/m 14,9 C 16,7 C 6,4 km/h (2 Bft) 97,87 %
04.06.2017 04:42 16,8 C 26,1 C 89 % 1006,1 hPa 0,0 l/m 4,8 km/h (1 Bft) SW 222 0 min 0,000 mm 0,0 UV-I 0 W/m 15,0 C 16,8 C 6,4 km/h (2 Bft) 98,11 %
04.06.2017 04:44 16,8 C 26,1 C 89 % 1006,2 hPa 0,0 l/m 5,8 km/h (2 Bft) SW 226 0 min 0,000 mm 0,0 UV-I 0 W/m 15,0 C 16,8 C 8,0 km/h (2 Bft) 100,00 %
04.06.2017 04:46 16,8 C 26,1 C 89 % 1006,3 hPa 0,0 l/m 7,4 km/h (2 Bft) S-SW 213 0 min 0,000 mm 0,0 UV-I 0 W/m 15,0 C 16,3 C 9,7 km/h (2 Bft) 100,00 %
04.06.2017 04:48 16,8 C 26,1 C 89 % 1006,4 hPa 0,0 l/m 7,1 km/h (2 Bft) SW 234 0 min 0,000 mm 0,0 UV-I 0 W/m 15,0 C 16,4 C 9,7 km/h (2 Bft) 98,51 %
04.06.2017 04:50 16,8 C 26,1 C 89 % 1006,5 hPa 0,0 l/m 7,3 km/h (2 Bft) W-SW 245 0 min 0,000 mm 0,0 UV-I 0 W/m 15,0 C 16,3 C 11,3 km/h (2 Bft) 100,00 %
04.06.2017 04:52 16,8 C 26,1 C 89 % 1006,5 hPa 0,0 l/m 7,5 km/h (2 Bft) SW 219 0 min 0,000 mm 0,0 UV-I 0 W/m 15,0 C 16,2 C 11,3 km/h (2 Bft) 95,74 %
04.06.2017 04:54 16,8 C 26,1 C 89 % 1006,5 hPa 0,0 l/m 4,1 km/h (1 Bft) S-SW 208 0 min 0,000 mm 0,0 UV-I 0 W/m 15,0 C 16,8 C 8,0 km/h (2 Bft) 97,87 %
04.06.2017 04:56 16,9 C 26,1 C 89 % 1006,6 hPa 0,0 l/m 3,9 km/h (1 Bft) S-SW 197 0 min 0,000 mm 0,0 UV-I 0 W/m 15,1 C 16,9 C 9,7 km/h (2 Bft) 96,00 %
04.06.2017 04:58 16,9 C 26,1 C 89 % 1006,5 hPa 0,0 l/m 4,2 km/h (1 Bft) S-SW 196 0 min 0,000 mm 0,0 UV-I 5 W/m 15,1 C 16,9 C 9,7 km/h (2 Bft) 96,00 %
04.06.2017 05:00 16,9 C 26,1 C 89 % 1006,6 hPa 0,0 l/m 3,2 km/h (1 Bft) S-SW 196 0 min 0,000 mm 0,0 UV-I 5 W/m 15,1 C 16,9 C 6,4 km/h (2 Bft) 97,87 %
04.06.2017 05:02 16,9 C 26,1 C 89 % 1006,5 hPa 0,0 l/m 4,0 km/h (1 Bft) S-SW 212 0 min 0,000 mm 0,0 UV-I 5 W/m 15,1 C 16,9 C 6,4 km/h (2 Bft) 92,11 %
04.06.2017 05:04 16,9 C 26,1 C 89 % 1006,5 hPa 0,0 l/m 3,6 km/h (1 Bft) S-SW 212 0 min 0,000 mm 0,0 UV-I 5 W/m 15,1 C 16,9 C 6,4 km/h (2 Bft) 98,00 %
04.06.2017 05:06 16,9 C 26,1 C 89 % 1006,5 hPa 0,0 l/m 4,3 km/h (1 Bft) S 189 0 min 0,000 mm 0,0 UV-I 7 W/m 15,1 C 16,9 C 6,4 km/h (2 Bft) 95,12 %
04.06.2017 05:08 16,9 C 26,1 C 89 % 1006,6 hPa 0,0 l/m 4,9 km/h (1 Bft) S-SW 204 0 min 0,000 mm 0,0 UV-I 7 W/m 15,1 C 16,9 C 9,7 km/h (2 Bft) 92,00 %
04.06.2017 05:10 16,8 C 26,1 C 89 % 1006,7 hPa 0,0 l/m 6,9 km/h (2 Bft) W-SW 252 0 min 0,000 mm 0,0 UV-I 8 W/m 15,0 C 16,5 C 11,3 km/h (2 Bft) 97,73 %
04.06.2017 05:12 16,8 C 26,1 C 89 % 1006,7 hPa 0,0 l/m 9,2 km/h (2 Bft) SW 229 0 min 0,000 mm 0,0 UV-I 9 W/m 15,0 C 15,4 C 14,5 km/h (3 Bft) 98,11 %
04.06.2017 05:14 16,8 C 26,1 C 89 % 1006,7 hPa 0,0 l/m 8,9 km/h (2 Bft) W-SW 254 0 min 0,000 mm 0,0 UV-I 11 W/m 15,0 C 15,6 C 14,5 km/h (3 Bft) 95,12 %
04.06.2017 05:16 16,8 C 26,1 C 89 % 1006,8 hPa 0,0 l/m 6,5 km/h (2 Bft) SW 231 0 min 0,000 mm 0,0 UV-I 11 W/m 15,0 C 16,8 C 9,7 km/h (2 Bft) 94,92 %
04.06.2017 05:18 16,8 C 26,1 C 89 % 1006,7 hPa 0,0 l/m 8,0 km/h (2 Bft) SW 225 0 min 0,000 mm 0,0 UV-I 12 W/m 15,0 C 16,0 C 14,5 km/h (3 Bft) 92,68 %
04.06.2017 05:20 16,7 C 26,1 C 89 % 1006,8 hPa 0,0 l/m 8,0 km/h (2 Bft) SW 224 2 min 0,000 mm 0,0 UV-I 13 W/m 14,9 C 15,9 C 12,9 km/h (3 Bft) 95,45 %
04.06.2017 05:22 16,7 C 26,1 C 89 % 1006,8 hPa 0,0 l/m 6,3 km/h (2 Bft) SW 221 2 min 0,000 mm 0,0 UV-I 15 W/m 14,9 C 16,7 C 9,7 km/h (2 Bft) 94,00 %
04.06.2017 05:24 16,7 C 26,1 C 89 % 1006,8 hPa 0,0 l/m 7,6 km/h (2 Bft) S-SW 212 2 min 0,000 mm 0,0 UV-I 18 W/m 14,9 C 16,1 C 11,3 km/h (2 Bft) 97,87 %
04.06.2017 05:26 16,7 C 26,1 C 89 % 1006,8 hPa 0,0 l/m 8,8 km/h (2 Bft) S 188 2 min 0,000 mm 0,0 UV-I 19 W/m 14,9 C 15,5 C 11,3 km/h (2 Bft) 98,00 %
04.06.2017 05:28 16,8 C 26,1 C 89 % 1006,8 hPa 0,0 l/m 7,1 km/h (2 Bft) S-SW 205 2 min 0,000 mm 0,0 UV-I 24 W/m 15,0 C 16,4 C 9,7 km/h (2 Bft) 100,00 %
04.06.2017 05:30 16,7 C 26,1 C 89 % 1006,8 hPa 0,0 l/m 7,4 km/h (2 Bft) SW 216 2 min 0,000 mm 0,0 UV-I 29 W/m 14,9 C 16,2 C 11,3 km/h (2 Bft) 94,00 %
04.06.2017 05:32 16,7 C 26,1 C 89 % 1006,8 hPa 0,0 l/m 8,2 km/h (2 Bft) S-SW 211 2 min 0,000 mm 0,0 UV-I 31 W/m 14,9 C 15,8 C 14,5 km/h (3 Bft) 95,24 %
04.06.2017 05:34 16,7 C 26,1 C 89 % 1006,8 hPa 0,0 l/m 7,4 km/h (2 Bft) S-SW 211 2 min 0,000 mm 0,0 UV-I 34 W/m 14,9 C 16,2 C 11,3 km/h (2 Bft) 100,00 %
04.06.2017 05:36 16,7 C 26,1 C 89 % 1006,8 hPa 0,0 l/m 8,0 km/h (2 Bft) SW 215 2 min 0,000 mm 0,0 UV-I 38 W/m 14,9 C 15,9 C 9,7 km/h (2 Bft) 98,00 %
04.06.2017 05:38 16,8 C 26,1 C 89 % 1006,8 hPa 0,0 l/m 7,8 km/h (2 Bft) S-SW 209 2 min 0,000 mm 0,0 UV-I 43 W/m 15,0 C 16,1 C 11,3 km/h (2 Bft) 100,00 %
04.06.2017 05:40 16,7 C 26,1 C 89 % 1006,8 hPa 0,0 l/m 7,9 km/h (2 Bft) S-SW 207 2 min 0,000 mm 0,0 UV-I 48 W/m 14,9 C 15,9 C 11,3 km/h (2 Bft) 100,00 %
04.06.2017 05:42 16,8 C 26,1 C 89 % 1006,8 hPa 0,0 l/m 7,9 km/h (2 Bft) SW 218 2 min 0,000 mm 0,0 UV-I 55 W/m 15,0 C 16,0 C 11,3 km/h (2 Bft) 100,00 %
04.06.2017 05:44 16,8 C 26,1 C 89 % 1006,8 hPa 0,0 l/m 7,7 km/h (2 Bft) SW 228 2 min 0,000 mm 0,0 UV-I 62 W/m 15,0 C 16,1 C 12,9 km/h (3 Bft) 100,00 %
04.06.2017 05:46 16,8 C 26,1 C 89 % 1006,8 hPa 0,0 l/m 6,0 km/h (2 Bft) SW 218 2 min 0,000 mm 0,0 UV-I 68 W/m 15,0 C 16,8 C 9,7 km/h (2 Bft) 98,21 %
04.06.2017 05:48 16,9 C 26,1 C 89 % 1006,9 hPa 0,0 l/m 8,2 km/h (2 Bft) SW 220 2 min 0,000 mm 0,0 UV-I 71 W/m 15,1 C 16,0 C 12,9 km/h (3 Bft) 97,37 %
04.06.2017 05:50 17,0 C 26,1 C 89 % 1006,9 hPa 0,0 l/m 8,3 km/h (2 Bft) S-SW 212 2 min 0,000 mm 0,0 UV-I 70 W/m 15,2 C 16,1 C 11,3 km/h (2 Bft) 100,00 %
04.06.2017 05:52 17,1 C 26,1 C 89 % 1006,9 hPa 0,0 l/m 7,9 km/h (2 Bft) SW 221 2 min 0,000 mm 0,0 UV-I 68 W/m 15,3 C 16,4 C 11,3 km/h (2 Bft) 97,37 %
04.06.2017 05:54 17,1 C 26,1 C 89 % 1007,0 hPa 0,0 l/m 6,9 km/h (2 Bft) SW 214 2 min 0,000 mm 0,0 UV-I 65 W/m 15,3 C 16,9 C 11,3 km/h (2 Bft) 100,00 %
04.06.2017 05:56 17,2 C 26,1 C 88 % 1006,9 hPa 0,0 l/m 7,1 km/h (2 Bft) S-SW 212 2 min 0,000 mm 0,0 UV-I 72 W/m 15,2 C 16,9 C 12,9 km/h (3 Bft) 98,00 %
04.06.2017 05:58 17,2 C 26,1 C 88 % 1007,0 hPa 0,0 l/m 8,7 km/h (2 Bft) SW 217 0 min 0,000 mm 0,0 UV-I 61 W/m 15,2 C 16,1 C 14,5 km/h (3 Bft) 98,00 %
04.06.2017 06:00 17,2 C 26,1 C 88 % 1007,1 hPa 0,0 l/m 8,9 km/h (2 Bft) S-SW 213 0 min 0,026 mm 0,0 UV-I 57 W/m 15,2 C 16,0 C 14,5 km/h (3 Bft) 100,00 %
04.06.2017 06:02 17,3 C 26,1 C 88 % 1007,0 hPa 0,0 l/m 8,2 km/h (2 Bft) S-SW 207 0 min 0,000 mm 0,0 UV-I 59 W/m 15,3 C 16,4 C 12,9 km/h (3 Bft) 97,44 %
04.06.2017 06:04 17,3 C 26,1 C 87 % 1007,1 hPa 0,0 l/m 8,8 km/h (2 Bft) S-SW 195 0 min 0,000 mm 0,0 UV-I 62 W/m 15,1 C 16,2 C 12,9 km/h (3 Bft) 100,00 %
04.06.2017 06:06 17,4 C 26,1 C 87 % 1007,1 hPa 0,0 l/m 9,3 km/h (2 Bft) S-SW 211 0 min 0,000 mm 0,0 UV-I 64 W/m 15,2 C 16,1 C 14,5 km/h (3 Bft) 100,00 %
04.06.2017 06:08 17,5 C 26,1 C 87 % 1007,1 hPa 0,0 l/m 10,1 km/h (2 Bft) S-SW 204 0 min 0,000 mm 0,0 UV-I 67 W/m 15,3 C 15,8 C 14,5 km/h (3 Bft) 97,73 %
04.06.2017 06:10 17,6 C 26,1 C 87 % 1007,1 hPa 0,0 l/m 10,8 km/h (2 Bft) SW 231 2 min 0,000 mm 0,0 UV-I 81 W/m 15,4 C 15,7 C 17,7 km/h (3 Bft) 98,21 %
04.06.2017 06:12 17,7 C 26,1 C 87 % 1007,2 hPa 0,0 l/m 12,0 km/h (2 Bft) SW 229 0 min 0,000 mm 0,0 UV-I 76 W/m 15,5 C 15,4 C 20,9 km/h (4 Bft) 100,00 %
04.06.2017 06:14 17,8 C 26,1 C 86 % 1007,2 hPa 0,0 l/m 9,4 km/h (2 Bft) S-SW 204 0 min 0,000 mm 0,0 UV-I 81 W/m 15,4 C 16,4 C 14,5 km/h (3 Bft) 97,44 %
04.06.2017 06:16 17,8 C 26,1 C 86 % 1007,2 hPa 0,0 l/m 10,7 km/h (2 Bft) SW 223 2 min 0,000 mm 0,0 UV-I 92 W/m 15,4 C 15,9 C 16,1 km/h (3 Bft) 97,56 %
04.06.2017 06:18 17,8 C 26,1 C 87 % 1007,2 hPa 0,0 l/m 14,6 km/h (3 Bft) W-SW 244 2 min 0,000 mm 0,0 UV-I 106 W/m 15,6 C 14,7 C 22,5 km/h (4 Bft) 94,92 %
04.06.2017 06:20 17,9 C 26,1 C 86 % 1007,2 hPa 0,0 l/m 15,1 km/h (3 Bft) W-SW 257 2 min 0,000 mm 0,0 UV-I 97 W/m 15,5 C 14,7 C 19,3 km/h (3 Bft) 97,73 %
04.06.2017 06:22 18,0 C 26,1 C 86 % 1007,2 hPa 0,0 l/m 16,2 km/h (3 Bft) W-SW 257 2 min 0,000 mm 0,0 UV-I 104 W/m 15,6 C 14,5 C 24,1 km/h (4 Bft) 90,24 %
04.06.2017 06:24 18,1 C 26,1 C 86 % 1007,2 hPa 0,0 l/m 11,9 km/h (2 Bft) W 277 2 min 0,000 mm 0,0 UV-I 105 W/m 15,7 C 15,9 C 17,7 km/h (3 Bft) 92,86 %
04.06.2017 06:26 18,2 C 26,1 C 86 % 1007,2 hPa 0,0 l/m 12,4 km/h (3 Bft) W 267 2 min 0,000 mm 0,0 UV-I 104 W/m 15,8 C 15,8 C 17,7 km/h (3 Bft) 93,62 %
04.06.2017 06:28 18,3 C 26,1 C 86 % 1007,2 hPa 0,0 l/m 11,2 km/h (2 Bft) SW 223 2 min 0,000 mm 0,0 UV-I 106 W/m 15,9 C 16,3 C 17,7 km/h (3 Bft) 95,12 %
04.06.2017 06:30 18,3 C 26,1 C 85 % 1007,2 hPa 0,0 l/m 12,6 km/h (3 Bft) W-SW 251 0 min 0,000 mm 0,0 UV-I 107 W/m 15,7 C 15,9 C 17,7 km/h (3 Bft) 94,00 %
04.06.2017 06:32 18,4 C 26,1 C 85 % 1007,3 hPa 0,0 l/m 14,4 km/h (3 Bft) SW 221 0 min 0,000 mm 0,0 UV-I 108 W/m 15,8 C 15,5 C 19,3 km/h (3 Bft) 95,12 %
04.06.2017 06:34 18,4 C 26,1 C 85 % 1007,3 hPa 0,0 l/m 12,3 km/h (3 Bft) W-SW 250 0 min 0,000 mm 0,0 UV-I 111 W/m 15,8 C 16,1 C 20,9 km/h (4 Bft) 96,23 %
04.06.2017 06:36 18,5 C 26,1 C 85 % 1007,3 hPa 0,0 l/m 12,6 km/h (3 Bft) SW 234 0 min 0,000 mm 0,0 UV-I 114 W/m 15,9 C 16,1 C 19,3 km/h (3 Bft) 92,68 %
04.06.2017 06:38 18,6 C 26,1 C 84 % 1007,3 hPa 0,0 l/m 15,1 km/h (3 Bft) W-SW 256 2 min 0,000 mm 0,0 UV-I 131 W/m 15,8 C 15,5 C 20,9 km/h (4 Bft) 97,87 %
04.06.2017 06:40 18,7 C 26,1 C 84 % 1007,4 hPa 0,0 l/m 13,8 km/h (3 Bft) S-SW 212 2 min 0,000 mm 0,0 UV-I 126 W/m 15,9 C 16,0 C 20,9 km/h (4 Bft) 97,87 %
04.06.2017 06:42 18,7 C 26,1 C 84 % 1007,3 hPa 0,0 l/m 12,2 km/h (2 Bft) SW 221 2 min 0,000 mm 0,0 UV-I 130 W/m 15,9 C 16,5 C 17,7 km/h (3 Bft) 94,00 %
04.06.2017 06:44 18,8 C 26,1 C 84 % 1007,4 hPa 0,0 l/m 12,8 km/h (3 Bft) SW 234 2 min 0,000 mm 0,0 UV-I 145 W/m 16,0 C 16,4 C 22,5 km/h (4 Bft) 97,56 %
04.06.2017 06:46 18,8 C 26,1 C 84 % 1007,4 hPa 0,0 l/m 11,3 km/h (2 Bft) W-SW 250 0 min 0,000 mm 0,0 UV-I 130 W/m 16,0 C 16,9 C 17,7 km/h (3 Bft) 98,21 %
04.06.2017 06:48 18,8 C 26,1 C 84 % 1007,5 hPa 0,0 l/m 12,9 km/h (3 Bft) W-SW 252 2 min 0,000 mm 0,0 UV-I 139 W/m 16,0 C 16,4 C 20,9 km/h (4 Bft) 97,87 %
04.06.2017 06:50 18,9 C 26,1 C 84 % 1007,5 hPa 0,0 l/m 12,9 km/h (3 Bft) SW 219 2 min 0,000 mm 0,0 UV-I 148 W/m 16,1 C 16,5 C 19,3 km/h (3 Bft) 93,62 %
04.06.2017 06:52 19,0 C 26,1 C 84 % 1007,5 hPa 0,0 l/m 14,0 km/h (3 Bft) SW 235 2 min 0,000 mm 0,0 UV-I 159 W/m 16,2 C 16,3 C 20,9 km/h (4 Bft) 95,74 %
04.06.2017 06:54 19,1 C 26,1 C 83 % 1007,5 hPa 0,0 l/m 12,8 km/h (3 Bft) W-SW 250 2 min 0,000 mm 0,0 UV-I 196 W/m 16,1 C 16,8 C 17,7 km/h (3 Bft) 95,24 %
04.06.2017 06:56 19,2 C 26,1 C 83 % 1007,5 hPa 0,0 l/m 12,2 km/h (2 Bft) SW 221 2 min 0,000 mm 0,0 UV-I 167 W/m 16,2 C 17,0 C 16,1 km/h (3 Bft) 95,74 %
04.06.2017 06:58 19,2 C 26,1 C 83 % 1007,5 hPa 0,0 l/m 13,6 km/h (3 Bft) SW 234 0 min 0,000 mm 0,0 UV-I 140 W/m 16,2 C 16,6 C 22,5 km/h (4 Bft) 94,34 %
04.06.2017 07:00 19,3 C 26,1 C 83 % 1007,5 hPa 0,0 l/m 11,2 km/h (2 Bft) W-SW 248 0 min 0,076 mm 0,0 UV-I 127 W/m 16,3 C 17,5 C 16,1 km/h (3 Bft) 92,68 %
04.06.2017 07:02 19,3 C 26,1 C 83 % 1007,5 hPa 0,0 l/m 11,9 km/h (2 Bft) W-SW 254 0 min 0,000 mm 0,0 UV-I 116 W/m 16,3 C 17,3 C 16,1 km/h (3 Bft) 92,45 %
04.06.2017 07:04 19,3 C 26,1 C 83 % 1007,6 hPa 0,0 l/m 12,8 km/h (3 Bft) SW 223 0 min 0,000 mm 0,0 UV-I 111 W/m 16,3 C 17,0 C 16,1 km/h (3 Bft) 94,74 %
04.06.2017 07:06 19,3 C 26,1 C 83 % 1007,5 hPa 0,0 l/m 10,0 km/h (2 Bft) W-SW 254 0 min 0,000 mm 0,0 UV-I 107 W/m 16,3 C 17,9 C 12,9 km/h (3 Bft) 88,00 %
04.06.2017 07:08 19,3 C 26,1 C 83 % 1007,5 hPa 0,0 l/m 7,5 km/h (2 Bft) W-SW 242 0 min 0,000 mm 0,0 UV-I 103 W/m 16,3 C 18,8 C 12,9 km/h (3 Bft) 96,23 %
04.06.2017 07:10 19,3 C 26,1 C 83 % 1007,6 hPa 0,0 l/m 8,8 km/h (2 Bft) W-SW 252 0 min 0,000 mm 0,0 UV-I 98 W/m 16,3 C 18,3 C 12,9 km/h (3 Bft) 95,12 %
04.06.2017 07:12 19,3 C 26,1 C 83 % 1007,6 hPa 0,0 l/m 8,7 km/h (2 Bft) W-SW 250 0 min 0,000 mm 0,0 UV-I 95 W/m 16,3 C 18,3 C 14,5 km/h (3 Bft) 91,49 %
04.06.2017 07:14 19,3 C 26,1 C 83 % 1007,6 hPa 0,0 l/m 7,2 km/h (2 Bft) W 271 0 min 0,000 mm 0,0 UV-I 90 W/m 16,3 C 19,0 C 11,3 km/h (2 Bft) 95,12 %
04.06.2017 07:16 19,3 C 26,1 C 83 % 1007,7 hPa 0,0 l/m 9,8 km/h (2 Bft) SW 234 0 min 0,000 mm 0,0 UV-I 90 W/m 16,3 C 17,9 C 14,5 km/h (3 Bft) 92,45 %
04.06.2017 07:18 19,3 C 25,6 C 83 % 1007,7 hPa 0,0 l/m 7,0 km/h (2 Bft) SW 225 0 min 0,000 mm 0,0 UV-I 91 W/m 16,3 C 19,0 C 11,3 km/h (2 Bft) 93,62 %
04.06.2017 07:20 19,3 C 26,1 C 83 % 1007,8 hPa 0,0 l/m 8,1 km/h (2 Bft) SW 232 0 min 0,000 mm 0,0 UV-I 99 W/m 16,3 C 18,6 C 9,7 km/h (2 Bft) 97,56 %
04.06.2017 07:22 19,3 C 25,6 C 83 % 1007,8 hPa 0,0 l/m 8,0 km/h (2 Bft) SW 236 0 min 0,000 mm 0,0 UV-I 124 W/m 16,3 C 18,6 C 14,5 km/h (3 Bft) 94,34 %
04.06.2017 07:24 19,3 C 25,6 C 83 % 1007,8 hPa 0,0 l/m 8,0 km/h (2 Bft) SW 232 0 min 0,000 mm 0,3 UV-I 116 W/m 16,3 C 18,6 C 16,1 km/h (3 Bft) 88,00 %
04.06.2017 07:26 19,3 C 26,1 C 83 % 1007,9 hPa 0,0 l/m 9,8 km/h (2 Bft) SW 236 0 min 0,000 mm 0,5 UV-I 130 W/m 16,3 C 17,9 C 14,5 km/h (3 Bft) 95,12 %
04.06.2017 07:28 19,3 C 26,1 C 83 % 1007,8 hPa 0,0 l/m 8,5 km/h (2 Bft) SW 221 0 min 0,000 mm 0,5 UV-I 132 W/m 16,3 C 18,4 C 16,1 km/h (3 Bft) 95,56 %
04.06.2017 07:30 19,3 C 26,1 C 83 % 1007,9 hPa 0,0 l/m 7,1 km/h (2 Bft) SW 236 0 min 0,000 mm 0,6 UV-I 142 W/m 16,3 C 19,0 C 12,9 km/h (3 Bft) 96,00 %
04.06.2017 07:32 19,4 C 26,1 C 84 % 1007,9 hPa 0,0 l/m 5,9 km/h (2 Bft) W-SW 240 2 min 0,000 mm 0,6 UV-I 293 W/m 16,6 C 19,4 C 12,9 km/h (3 Bft) 97,37 %
04.06.2017 07:34 19,6 C 26,1 C 83 % 1007,9 hPa 0,0 l/m 9,7 km/h (2 Bft) SW 221 0 min 0,000 mm 0,6 UV-I 184 W/m 16,6 C 18,3 C 20,9 km/h (4 Bft) 94,55 %
04.06.2017 07:36 19,7 C 26,1 C 83 % 1007,9 hPa 0,0 l/m 6,4 km/h (2 Bft) W 265 0 min 0,000 mm 0,7 UV-I 160 W/m 16,7 C 19,7 C 14,5 km/h (3 Bft) 98,11 %
04.06.2017 07:38 19,8 C 26,1 C 82 % 1008,0 hPa 0,0 l/m 10,6 km/h (2 Bft) SW 215 2 min 0,000 mm 0,7 UV-I 303 W/m 16,6 C 18,2 C 17,7 km/h (3 Bft) 95,74 %
04.06.2017 07:40 19,9 C 26,1 C 82 % 1008,0 hPa 0,0 l/m 12,1 km/h (2 Bft) SW 230 2 min 0,000 mm 0,7 UV-I 350 W/m 16,7 C 17,9 C 20,9 km/h (4 Bft) 97,56 %
04.06.2017 07:42 20,0 C 26,1 C 81 % 1007,9 hPa 0,0 l/m 16,5 km/h (3 Bft) W 261 0 min 0,000 mm 0,7 UV-I 166 W/m 16,6 C 16,9 C 22,5 km/h (4 Bft) 100,00 %
04.06.2017 07:44 20,0 C 25,6 C 81 % 1008,0 hPa 0,0 l/m 15,8 km/h (3 Bft) W-SW 243 0 min 0,000 mm 0,7 UV-I 161 W/m 16,6 C 17,1 C 25,7 km/h (4 Bft) 96,43 %
04.06.2017 07:46 19,9 C 26,1 C 81 % 1008,0 hPa 0,0 l/m 15,5 km/h (3 Bft) W 264 0 min 0,000 mm 0,7 UV-I 184 W/m 16,5 C 17,0 C 25,7 km/h (4 Bft) 97,73 %
04.06.2017 07:48 20,0 C 26,1 C 81 % 1008,0 hPa 0,0 l/m 19,9 km/h (4 Bft) W-SW 242 2 min 0,000 mm 0,9 UV-I 265 W/m 16,6 C 16,2 C 29,0 km/h (5 Bft) 97,87 %
04.06.2017 07:50 20,1 C 26,1 C 80 % 1008,0 hPa 0,0 l/m 15,5 km/h (3 Bft) W-SW 252 2 min 0,000 mm 0,9 UV-I 374 W/m 16,5 C 17,3 C 22,5 km/h (4 Bft) 100,00 %
04.06.2017 07:52 20,2 C 26,1 C 80 % 1008,0 hPa 0,0 l/m 16,7 km/h (3 Bft) S-SW 203 2 min 0,000 mm 0,9 UV-I 388 W/m 16,6 C 17,1 C 25,7 km/h (4 Bft) 94,34 %
04.06.2017 07:54 20,3 C 25,6 C 79 % 1008,1 hPa 0,0 l/m 17,0 km/h (3 Bft) W-SW 253 2 min 0,000 mm 0,9 UV-I 409 W/m 16,5 C 17,2 C 22,5 km/h (4 Bft) 94,74 %
04.06.2017 07:56 20,4 C 25,6 C 79 % 1008,1 hPa 0,0 l/m 14,6 km/h (3 Bft) SW 236 2 min 0,000 mm 1,0 UV-I 387 W/m 16,6 C 17,8 C 19,3 km/h (3 Bft) 96,43 %
04.06.2017 07:58 20,6 C 25,6 C 79 % 1008,1 hPa 0,0 l/m 15,2 km/h (3 Bft) W-SW 252 2 min 0,000 mm 0,9 UV-I 272 W/m 16,8 C 17,9 C 24,1 km/h (4 Bft) 100,00 %
04.06.2017 08:00 20,6 C 25,6 C 79 % 1008,1 hPa 0,0 l/m 10,1 km/h (2 Bft) S-SW 210 0 min 0,152 mm 0,9 UV-I 214 W/m 16,8 C 19,3 C 14,5 km/h (3 Bft) 100,00 %
04.06.2017 08:02 20,5 C 25,6 C 78 % 1008,2 hPa 0,0 l/m 15,9 km/h (3 Bft) W-SW 246 0 min 0,000 mm 0,9 UV-I 206 W/m 16,5 C 17,7 C 25,7 km/h (4 Bft) 91,43 %
04.06.2017 08:04 20,5 C 25,6 C 78 % 1008,2 hPa 0,0 l/m 15,9 km/h (3 Bft) SW 230 2 min 0,000 mm 1,0 UV-I 298 W/m 16,5 C 17,7 C 22,5 km/h (4 Bft) 93,22 %
04.06.2017 08:06 20,4 C 25,6 C 78 % 1008,2 hPa 0,0 l/m 16,6 km/h (3 Bft) SW 214 0 min 0,000 mm 1,0 UV-I 225 W/m 16,4 C 17,4 C 22,5 km/h (4 Bft) 97,44 %
04.06.2017 08:08 20,5 C 25,6 C 78 % 1008,2 hPa 0,0 l/m 15,4 km/h (3 Bft) W 269 2 min 0,000 mm 1,1 UV-I 401 W/m 16,5 C 17,8 C 24,1 km/h (4 Bft) 98,00 %
04.06.2017 08:10 20,5 C 25,6 C 78 % 1008,3 hPa 0,0 l/m 14,4 km/h (3 Bft) W 259 2 min 0,000 mm 1,1 UV-I 269 W/m 16,5 C 18,0 C 22,5 km/h (4 Bft) 100,00 %
04.06.2017 08:12 20,6 C 25,6 C 78 % 1008,3 hPa 0,0 l/m 14,8 km/h (3 Bft) W-SW 244 2 min 0,000 mm 1,1 UV-I 356 W/m 16,6 C 18,0 C 24,1 km/h (4 Bft) 100,00 %
04.06.2017 08:14 20,6 C 25,6 C 78 % 1008,4 hPa 0,0 l/m 13,4 km/h (3 Bft) W-SW 238 2 min 0,000 mm 1,1 UV-I 268 W/m 16,6 C 18,4 C 22,5 km/h (4 Bft) 96,23 %
04.06.2017 08:16 20,6 C 25,6 C 78 % 1008,4 hPa 0,0 l/m 18,3 km/h (3 Bft) W-SW 252 2 min 0,000 mm 1,1 UV-I 262 W/m 16,6 C 17,3 C 25,7 km/h (4 Bft) 89,47 %
04.06.2017 08:19 20,6 C 25,6 C 78 % 1008,4 hPa 0,0 l/m 16,4 km/h (3 Bft) SW 225 0 min 0,000 mm 0,9 UV-I 216 W/m 16,6 C 17,7 C 22,5 km/h (4 Bft) 97,18 %
04.06.2017 08:20 20,6 C 25,6 C 78 % 1008,4 hPa 0,0 l/m 14,6 km/h (3 Bft) W 263 0 min 0,000 mm 0,8 UV-I 193 W/m 16,6 C 18,1 C 20,9 km/h (4 Bft) 93,75 %
04.06.2017 08:22 20,5 C 25,6 C 78 % 1008,5 hPa 0,0 l/m 13,3 km/h (3 Bft) W 263 0 min 0,000 mm 0,8 UV-I 197 W/m 16,5 C 18,3 C 24,1 km/h (4 Bft) 97,56 %
04.06.2017 08:24 20,6 C 25,6 C 79 % 1008,5 hPa 0,0 l/m 10,9 km/h (2 Bft) W 263 0 min 0,000 mm 0,7 UV-I 186 W/m 16,8 C 19,0 C 14,5 km/h (3 Bft) 92,86 %
04.06.2017 08:26 20,6 C 25,6 C 78 % 1008,5 hPa 0,0 l/m 10,4 km/h (2 Bft) W 267 0 min 0,000 mm 0,7 UV-I 156 W/m 16,6 C 19,2 C 14,5 km/h (3 Bft) 92,68 %
04.06.2017 08:28 20,5 C 25,6 C 78 % 1008,6 hPa 0,0 l/m 14,7 km/h (3 Bft) W-SW 257 0 min 0,000 mm 0,7 UV-I 160 W/m 16,5 C 17,9 C 22,5 km/h (4 Bft) 100,00 %
04.06.2017 08:30 20,5 C 25,6 C 78 % 1008,5 hPa 0,0 l/m 16,1 km/h (3 Bft) W 259 0 min 0,000 mm 0,7 UV-I 164 W/m 16,5 C 17,6 C 20,9 km/h (4 Bft) 100,00 %
04.06.2017 08:32 20,4 C 25,6 C 77 % 1008,7 hPa 0,0 l/m 16,0 km/h (3 Bft) SW 219 0 min 0,000 mm 0,7 UV-I 161 W/m 16,2 C 17,5 C 27,4 km/h (4 Bft) 100,00 %
04.06.2017 08:34 20,4 C 25,6 C 78 % 1008,7 hPa 0,0 l/m 18,8 km/h (3 Bft) W 279 0 min 0,000 mm 0,7 UV-I 157 W/m 16,4 C 16,9 C 29,0 km/h (5 Bft) 100,00 %
04.06.2017 08:36 20,4 C 25,6 C 78 % 1008,8 hPa 0,0 l/m 13,2 km/h (3 Bft) S-SW 205 0 min 0,000 mm 0,7 UV-I 159 W/m 16,4 C 18,2 C 19,3 km/h (3 Bft) 94,74 %
04.06.2017 08:38 20,5 C 25,6 C 78 % 1008,8 hPa 0,0 l/m 13,7 km/h (3 Bft) SW 225 0 min 0,000 mm 0,6 UV-I 149 W/m 16,5 C 18,2 C 19,3 km/h (3 Bft) 97,73 %
04.06.2017 08:40 20,5 C 25,6 C 78 % 1008,8 hPa 0,0 l/m 11,6 km/h (2 Bft) W-SW 246 0 min 0,000 mm 0,6 UV-I 144 W/m 16,5 C 18,7 C 19,3 km/h (3 Bft) 100,00 %
04.06.2017 08:42 20,5 C 25,6 C 78 % 1008,9 hPa 0,0 l/m 11,3 km/h (2 Bft) W-SW 244 0 min 0,000 mm 0,6 UV-I 156 W/m 16,5 C 18,8 C 16,1 km/h (3 Bft) 97,44 %
04.06.2017 08:44 20,5 C 25,6 C 78 % 1008,9 hPa 0,0 l/m 9,7 km/h (2 Bft) W-SW 252 0 min 0,000 mm 0,7 UV-I 162 W/m 16,5 C 19,3 C 16,1 km/h (3 Bft) 98,08 %
04.06.2017 08:46 20,5 C 25,6 C 78 % 1008,9 hPa 0,0 l/m 11,3 km/h (2 Bft) W 263 0 min 0,000 mm 0,5 UV-I 125 W/m 16,5 C 18,8 C 19,3 km/h (3 Bft) 94,34 %
04.06.2017 08:48 20,4 C 25,6 C 77 % 1009,0 hPa 0,0 l/m 6,3 km/h (2 Bft) S-SW 192 0 min 0,000 mm 0,8 UV-I 157 W/m 16,2 C 20,4 C 11,3 km/h (2 Bft) 93,62 %
04.06.2017 08:50 20,4 C 25,6 C 78 % 1009,0 hPa 0,0 l/m 12,0 km/h (2 Bft) SW 218 0 min 0,000 mm 0,7 UV-I 155 W/m 16,4 C 18,5 C 19,3 km/h (3 Bft) 100,00 %
04.06.2017 08:52 20,4 C 25,6 C 77 % 1009,0 hPa 0,0 l/m 15,2 km/h (3 Bft) W-SW 255 0 min 0,000 mm 0,5 UV-I 113 W/m 16,2 C 17,7 C 24,1 km/h (4 Bft) 94,64 %
04.06.2017 08:54 20,4 C 25,6 C 76 % 1009,0 hPa 0,0 l/m 14,4 km/h (3 Bft) W 268 0 min 0,000 mm 0,0 UV-I 89 W/m 16,0 C 17,9 C 22,5 km/h (4 Bft) 97,37 %
04.06.2017 08:56 20,3 C 25,6 C 77 % 1009,0 hPa 0,0 l/m 15,9 km/h (3 Bft) W-NW 292 0 min 0,000 mm 0,0 UV-I 82 W/m 16,1 C 17,4 C 20,9 km/h (4 Bft) 96,43 %
04.06.2017 08:58 20,2 C 25,6 C 77 % 1009,1 hPa 0,0 l/m 15,6 km/h (3 Bft) W 261 0 min 0,000 mm 0,0 UV-I 75 W/m 16,0 C 17,4 C 25,7 km/h (4 Bft) 97,37 %
04.06.2017 09:00 20,2 C 25,6 C 77 % 1009,1 hPa 0,0 l/m 9,0 km/h (2 Bft) W-SW 245 0 min 0,153 mm 0,0 UV-I 78 W/m 16,0 C 19,2 C 14,5 km/h (3 Bft) 97,87 %
04.06.2017 09:02 20,1 C 25,6 C 78 % 1009,1 hPa 0,0 l/m 8,4 km/h (2 Bft) W-SW 238 0 min 0,000 mm 0,0 UV-I 58 W/m 16,1 C 19,3 C 16,1 km/h (3 Bft) 93,62 %
04.06.2017 09:04 20,1 C 25,6 C 78 % 1009,2 hPa 0,0 l/m 11,1 km/h (2 Bft) W-SW 244 0 min 0,000 mm 0,0 UV-I 61 W/m 16,1 C 18,4 C 17,7 km/h (3 Bft) 96,23 %
04.06.2017 09:06 20,0 C 25,6 C 78 % 1009,2 hPa 0,0 l/m 10,6 km/h (2 Bft) SW 222 0 min 0,000 mm 0,0 UV-I 58 W/m 16,0 C 18,4 C 14,5 km/h (3 Bft) 95,45 %
04.06.2017 09:08 20,0 C 25,6 C 78 % 1009,2 hPa 0,0 l/m 8,9 km/h (2 Bft) W-SW 242 0 min 0,000 mm 0,0 UV-I 64 W/m 16,0 C 19,0 C 16,1 km/h (3 Bft) 95,12 %
04.06.2017 09:10 20,0 C 25,6 C 79 % 1009,2 hPa 0,0 l/m 14,4 km/h (3 Bft) W-SW 240 0 min 0,000 mm 0,0 UV-I 80 W/m 16,2 C 17,4 C 20,9 km/h (4 Bft) 92,86 %
04.06.2017 09:12 19,9 C 25,6 C 79 % 1009,3 hPa 0,0 l/m 9,3 km/h (2 Bft) W-SW 252 0 min 0,000 mm 0,0 UV-I 73 W/m 16,1 C 18,8 C 19,3 km/h (3 Bft) 97,56 %
04.06.2017 09:14 19,9 C 25,6 C 79 % 1009,3 hPa 0,0 l/m 10,6 km/h (2 Bft) W-SW 257 0 min 0,000 mm 0,0 UV-I 73 W/m 16,1 C 18,3 C 16,1 km/h (3 Bft) 95,74 %
04.06.2017 09:16 19,9 C 25,6 C 79 % 1009,4 hPa 0,0 l/m 11,2 km/h (2 Bft) W 276 0 min 0,000 mm 0,0 UV-I 82 W/m 16,1 C 18,2 C 19,3 km/h (3 Bft) 96,00 %
04.06.2017 09:18 19,9 C 25,6 C 79 % 1009,3 hPa 0,0 l/m 9,2 km/h (2 Bft) W-SW 252 0 min 0,000 mm 0,0 UV-I 81 W/m 16,1 C 18,8 C 17,7 km/h (3 Bft) 97,56 %
04.06.2017 09:20 19,9 C 25,6 C 79 % 1009,4 hPa 0,0 l/m 10,9 km/h (2 Bft) W-NW 284 0 min 0,000 mm 0,2 UV-I 90 W/m 16,1 C 18,2 C 20,9 km/h (4 Bft) 100,00 %
04.06.2017 09:22 19,9 C 25,6 C 79 % 1009,4 hPa 0,0 l/m 10,4 km/h (2 Bft) NW 323 0 min 0,000 mm 0,7 UV-I 131 W/m 16,1 C 18,4 C 17,7 km/h (3 Bft) 100,00 %
04.06.2017 09:24 19,9 C 25,6 C 79 % 1009,4 hPa 0,0 l/m 9,9 km/h (2 Bft) W-SW 257 0 min 0,000 mm 0,7 UV-I 140 W/m 16,1 C 18,6 C 20,9 km/h (4 Bft) 98,21 %
04.06.2017 09:26 20,0 C 25,6 C 79 % 1009,5 hPa 0,0 l/m 10,5 km/h (2 Bft) W-SW 249 0 min 0,000 mm 0,8 UV-I 151 W/m 16,2 C 18,5 C 16,1 km/h (3 Bft) 96,15 %
04.06.2017 09:28 20,1 C 25,6 C 79 % 1009,4 hPa 0,0 l/m 9,4 km/h (2 Bft) W-SW 248 0 min 0,000 mm 1,0 UV-I 175 W/m 16,3 C 19,0 C 17,7 km/h (3 Bft) 94,87 %
04.06.2017 09:30 20,1 C 25,6 C 78 % 1009,5 hPa 0,0 l/m 10,9 km/h (2 Bft) W-NW 300 0 min 0,000 mm 1,1 UV-I 205 W/m 16,1 C 18,5 C 17,7 km/h (3 Bft) 93,62 %
04.06.2017 09:32 20,2 C 25,6 C 78 % 1009,4 hPa 0,0 l/m 10,2 km/h (2 Bft) W-SW 246 0 min 0,000 mm 1,2 UV-I 217 W/m 16,2 C 18,8 C 17,7 km/h (3 Bft) 98,21 %
04.06.2017 09:34 20,2 C 25,6 C 78 % 1009,5 hPa 0,0 l/m 14,3 km/h (3 Bft) W-SW 258 0 min 0,000 mm 1,0 UV-I 191 W/m 16,2 C 17,7 C 22,5 km/h (4 Bft) 100,00 %
04.06.2017 09:36 20,2 C 25,6 C 78 % 1009,5 hPa 0,0 l/m 12,9 km/h (3 Bft) W-NW 284 0 min 0,000 mm 0,9 UV-I 171 W/m 16,2 C 18,0 C 24,1 km/h (4 Bft) 98,00 %
04.06.2017 09:38 20,2 C 25,6 C 77 % 1009,5 hPa 0,0 l/m 12,8 km/h (3 Bft) SW 229 0 min 0,000 mm 0,9 UV-I 166 W/m 16,0 C 18,0 C 20,9 km/h (4 Bft) 100,00 %
04.06.2017 09:40 20,2 C 25,6 C 78 % 1009,5 hPa 0,0 l/m 10,3 km/h (2 Bft) W-SW 246 0 min 0,000 mm 0,8 UV-I 162 W/m 16,2 C 18,8 C 16,1 km/h (3 Bft) 98,11 %
04.06.2017 09:42 20,2 C 25,6 C 78 % 1009,5 hPa 0,0 l/m 9,5 km/h (2 Bft) W-SW 248 0 min 0,000 mm 0,9 UV-I 165 W/m 16,2 C 19,0 C 19,3 km/h (3 Bft) 97,87 %
04.06.2017 09:44 20,2 C 25,6 C 77 % 1009,5 hPa 0,0 l/m 19,5 km/h (3 Bft) W 265 0 min 0,000 mm 1,0 UV-I 180 W/m 16,0 C 16,6 C 25,7 km/h (4 Bft) 100,00 %
04.06.2017 09:46 20,2 C 25,6 C 77 % 1009,5 hPa 0,0 l/m 10,8 km/h (2 Bft) W-SW 258 0 min 0,000 mm 1,0 UV-I 188 W/m 16,0 C 18,6 C 19,3 km/h (3 Bft) 89,47 %
04.06.2017 09:48 20,2 C 25,6 C 78 % 1009,5 hPa 0,0 l/m 11,4 km/h (2 Bft) W 274 0 min 0,000 mm 1,0 UV-I 192 W/m 16,2 C 18,4 C 16,1 km/h (3 Bft) 100,00 %
04.06.2017 09:50 20,2 C 25,6 C 77 % 1009,6 hPa 0,0 l/m 11,1 km/h (2 Bft) W 279 0 min 0,000 mm 1,1 UV-I 196 W/m 16,0 C 18,5 C 19,3 km/h (3 Bft) 100,00 %
04.06.2017 09:52 20,3 C 25,6 C 78 % 1009,5 hPa 0,0 l/m 10,1 km/h (2 Bft) W-SW 246 0 min 0,000 mm 1,1 UV-I 202 W/m 16,3 C 18,9 C 12,9 km/h (3 Bft) 97,56 %
04.06.2017 09:54 20,3 C 25,6 C 77 % 1009,6 hPa 0,0 l/m 10,9 km/h (2 Bft) W-SW 253 0 min 0,000 mm 1,2 UV-I 225 W/m 16,1 C 18,7 C 16,1 km/h (3 Bft) 95,12 %
04.06.2017 09:56 20,3 C 25,6 C 76 % 1009,5 hPa 0,0 l/m 10,8 km/h (2 Bft) NW 309 0 min 0,000 mm 1,3 UV-I 237 W/m 15,9 C 18,7 C 22,5 km/h (4 Bft) 100,00 %
04.06.2017 09:58 20,4 C 25,6 C 76 % 1009,6 hPa 0,0 l/m 10,8 km/h (2 Bft) W-SW 238 0 min 0,000 mm 1,4 UV-I 244 W/m 16,0 C 18,8 C 16,1 km/h (3 Bft) 100,00 %
04.06.2017 10:00 20,4 C 25,6 C 76 % 1009,6 hPa 0,0 l/m 10,5 km/h (2 Bft) W-SW 248 0 min 0,127 mm 1,5 UV-I 267 W/m 16,0 C 18,9 C 17,7 km/h (3 Bft) 92,50 %
04.06.2017 10:02 20,6 C 25,6 C 75 % 1009,6 hPa 0,0 l/m 10,1 km/h (2 Bft) SW 232 0 min 0,000 mm 1,6 UV-I 287 W/m 16,0 C 19,3 C 12,9 km/h (3 Bft) 100,00 %
04.06.2017 10:04 20,6 C 25,6 C 75 % 1009,6 hPa 0,0 l/m 11,7 km/h (2 Bft) W-SW 254 0 min 0,000 mm 1,7 UV-I 295 W/m 16,0 C 18,8 C 17,7 km/h (3 Bft) 97,44 %
04.06.2017 10:06 20,7 C 25,6 C 75 % 1009,7 hPa 0,0 l/m 11,8 km/h (2 Bft) W-SW 258 0 min 0,000 mm 1,8 UV-I 307 W/m 16,1 C 18,9 C 17,7 km/h (3 Bft) 98,36 %
04.06.2017 10:08 20,7 C 25,6 C 74 % 1009,7 hPa 0,0 l/m 12,9 km/h (3 Bft) W 261 0 min 0,000 mm 2,0 UV-I 342 W/m 15,9 C 18,6 C 17,7 km/h (3 Bft) 97,62 %
04.06.2017 10:10 20,8 C 25,6 C 74 % 1009,7 hPa 0,0 l/m 8,6 km/h (2 Bft) W-SW 257 0 min 0,000 mm 2,2 UV-I 364 W/m 16,0 C 20,0 C 16,1 km/h (3 Bft) 92,68 %
04.06.2017 10:13 20,9 C 25,6 C 73 % 1009,7 hPa 0,0 l/m 12,7 km/h (3 Bft) W-SW 249 3 min 0,000 mm 2,6 UV-I 457 W/m 15,9 C 18,9 C 19,3 km/h (3 Bft) 94,74 %
04.06.2017 10:14 21,0 C 25,6 C 74 % 1009,7 hPa 0,0 l/m 6,4 km/h (2 Bft) W-SW 244 1 min 0,000 mm 2,9 UV-I 603 W/m 16,2 C 21,0 C 9,7 km/h (2 Bft) 95,83 %
04.06.2017 10:16 21,2 C 25,6 C 73 % 1009,7 hPa 0,0 l/m 9,8 km/h (2 Bft) W-SW 253 2 min 0,000 mm 2,9 UV-I 591 W/m 16,2 C 20,0 C 14,5 km/h (3 Bft) 91,49 %
04.06.2017 10:18 21,3 C 25,6 C 73 % 1009,7 hPa 0,0 l/m 10,1 km/h (2 Bft) W-SW 239 2 min 0,000 mm 3,1 UV-I 622 W/m 16,3 C 20,0 C 16,1 km/h (3 Bft) 96,00 %
04.06.2017 10:20 21,4 C 25,0 C 73 % 1009,7 hPa 0,0 l/m 5,4 km/h (1 Bft) W 275 2 min 0,000 mm 2,6 UV-I 586 W/m 16,4 C 21,4 C 12,9 km/h (3 Bft) 97,37 %
04.06.2017 10:22 21,5 C 25,0 C 72 % 1009,6 hPa 0,0 l/m 4,6 km/h (1 Bft) W 259 2 min 0,000 mm 2,4 UV-I 557 W/m 16,2 C 21,5 C 9,7 km/h (2 Bft) 91,49 %
04.06.2017 10:24 21,5 C 25,0 C 72 % 1009,7 hPa 0,0 l/m 3,7 km/h (1 Bft) W-SW 255 0 min 0,000 mm 1,6 UV-I 289 W/m 16,2 C 21,5 C 8,0 km/h (2 Bft) 89,29 %
04.06.2017 10:26 21,4 C 25,0 C 72 % 1009,7 hPa 0,0 l/m 1,9 km/h (1 Bft) W 266 0 min 0,000 mm 1,1 UV-I 195 W/m 16,1 C 21,4 C 9,7 km/h (2 Bft) 93,62 %
04.06.2017 10:28 21,4 C 25,0 C 73 % 1009,7 hPa 0,0 l/m 4,8 km/h (1 Bft) W-SW 258 0 min 0,000 mm 0,9 UV-I 172 W/m 16,4 C 21,4 C 11,3 km/h (2 Bft) 97,37 %
04.06.2017 10:30 21,3 C 25,0 C 74 % 1009,8 hPa 0,0 l/m 12,0 km/h (2 Bft) SW 234 0 min 0,000 mm 0,8 UV-I 157 W/m 16,5 C 19,5 C 19,3 km/h (3 Bft) 97,73 %
04.06.2017 10:32 21,2 C 25,0 C 74 % 1009,8 hPa 0,0 l/m 6,8 km/h (2 Bft) W-SW 239 0 min 0,000 mm 1,2 UV-I 205 W/m 16,4 C 21,1 C 16,1 km/h (3 Bft) 96,00 %
04.06.2017 10:34 21,2 C 25,0 C 74 % 1009,8 hPa 0,0 l/m 16,1 km/h (3 Bft) W-SW 246 0 min 0,000 mm 1,3 UV-I 234 W/m 16,4 C 18,5 C 22,5 km/h (4 Bft) 96,23 %
04.06.2017 10:36 21,1 C 25,0 C 74 % 1009,9 hPa 0,0 l/m 12,6 km/h (3 Bft) W 265 0 min 0,000 mm 1,3 UV-I 212 W/m 16,3 C 19,1 C 17,7 km/h (3 Bft) 100,00 %
04.06.2017 10:38 21,1 C 25,0 C 74 % 1009,9 hPa 0,0 l/m 9,9 km/h (2 Bft) W-NW 284 0 min 0,000 mm 1,0 UV-I 170 W/m 16,3 C 19,9 C 14,5 km/h (3 Bft) 90,00 %
04.06.2017 10:40 21,1 C 25,0 C 75 % 1009,9 hPa 0,0 l/m 6,7 km/h (2 Bft) W 263 0 min 0,000 mm 1,0 UV-I 166 W/m 16,5 C 21,0 C 14,5 km/h (3 Bft) 96,00 %
04.06.2017 10:42 21,1 C 25,0 C 74 % 1010,0 hPa 0,0 l/m 11,5 km/h (2 Bft) W-SW 242 0 min 0,000 mm 1,1 UV-I 171 W/m 16,3 C 19,4 C 19,3 km/h (3 Bft) 92,00 %
04.06.2017 10:44 21,1 C 25,0 C 71 % 1010,0 hPa 0,0 l/m 10,7 km/h (2 Bft) W-SW 257 0 min 0,000 mm 0,9 UV-I 148 W/m 15,6 C 19,7 C 16,1 km/h (3 Bft) 95,24 %
04.06.2017 10:46 21,1 C 25,0 C 71 % 1010,0 hPa 0,0 l/m 11,1 km/h (2 Bft) W 270 0 min 0,000 mm 0,7 UV-I 117 W/m 15,6 C 19,5 C 19,3 km/h (3 Bft) 95,45 %
04.06.2017 10:48 21,0 C 25,0 C 70 % 1010,0 hPa 0,0 l/m 10,4 km/h (2 Bft) W 271 0 min 0,000 mm 0,7 UV-I 120 W/m 15,3 C 19,6 C 20,9 km/h (4 Bft) 94,00 %
04.06.2017 10:50 20,9 C 25,0 C 69 % 1010,1 hPa 0,0 l/m 9,4 km/h (2 Bft) W-NW 292 0 min 0,000 mm 0,9 UV-I 139 W/m 15,0 C 19,8 C 17,7 km/h (3 Bft) 93,62 %
04.06.2017 10:52 20,9 C 25,0 C 68 % 1010,1 hPa 0,0 l/m 16,6 km/h (3 Bft) W-SW 238 0 min 0,000 mm 0,9 UV-I 147 W/m 14,8 C 18,0 C 24,1 km/h (4 Bft) 93,18 %
04.06.2017 10:54 20,8 C 25,0 C 67 % 1010,2 hPa 0,0 l/m 18,6 km/h (3 Bft) W-SW 254 0 min 0,000 mm 1,0 UV-I 160 W/m 14,4 C 17,5 C 30,6 km/h (5 Bft) 89,29 %
04.06.2017 10:56 20,8 C 25,0 C 68 % 1010,2 hPa 0,0 l/m 18,4 km/h (3 Bft) W-SW 238 0 min 0,000 mm 1,2 UV-I 176 W/m 14,7 C 17,5 C 29,0 km/h (5 Bft) 93,62 %
04.06.2017 10:58 20,8 C 25,0 C 68 % 1010,2 hPa 0,0 l/m 14,8 km/h (3 Bft) W-NW 288 0 min 0,000 mm 1,3 UV-I 192 W/m 14,7 C 18,3 C 22,5 km/h (4 Bft) 90,91 %
04.06.2017 11:00 20,8 C 25,0 C 67 % 1010,2 hPa 0,0 l/m 14,2 km/h (3 Bft) W-NW 284 0 min 0,000 mm 1,3 UV-I 206 W/m 14,4 C 18,4 C 20,9 km/h (4 Bft) 91,30 %
04.06.2017 11:04 20,8 C 25,0 C 66 % 1010,2 hPa 0,0 l/m 19,2 km/h (3 Bft) SW 226 0 min 0,203 mm 1,3 UV-I 230 W/m 14,2 C 17,4 C 24,1 km/h (4 Bft) 90,52 %
04.06.2017 11:06 20,8 C 25,0 C 67 % 1010,3 hPa 0,0 l/m 17,3 km/h (3 Bft) SW 236 0 min 0,000 mm 1,1 UV-I 182 W/m 14,4 C 17,7 C 25,7 km/h (4 Bft) 94,00 %
04.06.2017 11:08 20,8 C 25,0 C 67 % 1010,3 hPa 0,0 l/m 11,7 km/h (2 Bft) SW 226 0 min 0,000 mm 1,2 UV-I 185 W/m 14,4 C 19,0 C 17,7 km/h (3 Bft) 90,24 %
04.06.2017 11:10 20,8 C 25,0 C 67 % 1010,3 hPa 0,0 l/m 13,1 km/h (3 Bft) S 170 0 min 0,000 mm 1,2 UV-I 194 W/m 14,4 C 18,7 C 22,5 km/h (4 Bft) 90,57 %
04.06.2017 11:12 20,8 C 25,0 C 67 % 1010,4 hPa 0,0 l/m 13,2 km/h (3 Bft) SW 233 0 min 0,000 mm 1,3 UV-I 187 W/m 14,4 C 18,6 C 19,3 km/h (3 Bft) 91,49 %
04.06.2017 11:14 20,8 C 25,0 C 67 % 1010,4 hPa 0,0 l/m 12,1 km/h (2 Bft) W-SW 250 0 min 0,000 mm 1,1 UV-I 166 W/m 14,4 C 18,9 C 17,7 km/h (3 Bft) 97,87 %
04.06.2017 11:16 20,8 C 25,0 C 67 % 1010,4 hPa 0,0 l/m 21,2 km/h (4 Bft) W 262 0 min 0,000 mm 0,8 UV-I 127 W/m 14,4 C 17,0 C 25,7 km/h (4 Bft) 90,24 %
04.06.2017 11:18 20,7 C 25,0 C 67 % 1010,4 hPa 0,0 l/m 14,4 km/h (3 Bft) W-SW 257 0 min 0,000 mm 0,7 UV-I 122 W/m 14,3 C 18,2 C 25,7 km/h (4 Bft) 94,00 %
04.06.2017 11:20 20,7 C 25,0 C 67 % 1010,5 hPa 0,0 l/m 15,2 km/h (3 Bft) W 260 0 min 0,000 mm 0,8 UV-I 121 W/m 14,3 C 18,1 C 25,7 km/h (4 Bft) 95,74 %
04.06.2017 11:22 20,7 C 25,0 C 66 % 1010,5 hPa 0,0 l/m 20,5 km/h (4 Bft) SW 235 0 min 0,000 mm 0,7 UV-I 116 W/m 14,1 C 17,0 C 33,8 km/h (5 Bft) 95,24 %
04.06.2017 11:24 20,6 C 25,0 C 67 % 1010,5 hPa 0,0 l/m 16,3 km/h (3 Bft) W-SW 250 0 min 0,000 mm 1,0 UV-I 138 W/m 14,3 C 17,7 C 24,1 km/h (4 Bft) 95,74 %
04.06.2017 11:26 20,6 C 25,0 C 67 % 1010,5 hPa 0,0 l/m 17,9 km/h (3 Bft) W-NW 287 0 min 0,000 mm 1,1 UV-I 156 W/m 14,3 C 17,4 C 27,4 km/h (4 Bft) 100,00 %
04.06.2017 11:28 20,6 C 25,0 C 67 % 1010,6 hPa 0,0 l/m 19,0 km/h (3 Bft) W 259 0 min 0,000 mm 1,1 UV-I 165 W/m 14,3 C 17,2 C 27,4 km/h (4 Bft) 95,12 %
04.06.2017 11:30 20,6 C 25,0 C 67 % 1010,6 hPa 0,0 l/m 15,2 km/h (3 Bft) S 182 0 min 0,000 mm 1,2 UV-I 183 W/m 14,3 C 17,9 C 27,4 km/h (4 Bft) 97,56 %
04.06.2017 11:32 20,6 C 25,0 C 67 % 1010,6 hPa 0,0 l/m 13,4 km/h (3 Bft) W 279 0 min 0,000 mm 1,5 UV-I 218 W/m 14,3 C 18,4 C 22,5 km/h (4 Bft) 93,22 %
04.06.2017 11:34 20,6 C 25,0 C 66 % 1010,6 hPa 0,0 l/m 20,5 km/h (4 Bft) SW 217 0 min 0,000 mm 1,7 UV-I 246 W/m 14,0 C 16,9 C 30,6 km/h (5 Bft) 100,00 %
04.06.2017 11:36 20,6 C 25,0 C 66 % 1010,6 hPa 0,0 l/m 18,0 km/h (3 Bft) SW 228 0 min 0,000 mm 1,9 UV-I 270 W/m 14,0 C 17,3 C 27,4 km/h (4 Bft) 100,00 %
04.06.2017 11:38 20,6 C 25,0 C 65 % 1010,8 hPa 0,0 l/m 20,0 km/h (4 Bft) W-SW 250 0 min 0,000 mm 2,2 UV-I 308 W/m 13,8 C 17,0 C 35,4 km/h (5 Bft) 100,00 %
04.06.2017 11:40 20,6 C 25,0 C 65 % 1010,8 hPa 0,0 l/m 18,4 km/h (3 Bft) W 269 0 min 0,000 mm 2,5 UV-I 357 W/m 13,8 C 17,3 C 30,6 km/h (5 Bft) 94,00 %
04.06.2017 11:42 20,7 C 25,0 C 65 % 1010,8 hPa 0,0 l/m 20,1 km/h (4 Bft) SW 223 0 min 0,000 mm 2,4 UV-I 348 W/m 13,9 C 17,1 C 32,2 km/h (5 Bft) 94,34 %
04.06.2017 11:44 20,6 C 25,0 C 65 % 1010,8 hPa 0,0 l/m 17,6 km/h (3 Bft) W 281 0 min 0,000 mm 2,4 UV-I 352 W/m 13,8 C 17,4 C 30,6 km/h (5 Bft) 100,00 %
04.06.2017 11:46 20,6 C 25,0 C 64 % 1010,8 hPa 0,0 l/m 23,6 km/h (4 Bft) W 274 0 min 0,000 mm 2,6 UV-I 362 W/m 13,5 C 16,4 C 35,4 km/h (5 Bft) 100,00 %
04.06.2017 11:48 20,6 C 25,0 C 65 % 1010,8 hPa 0,0 l/m 19,1 km/h (3 Bft) W-NW 288 0 min 0,000 mm 2,6 UV-I 365 W/m 13,8 C 17,1 C 30,6 km/h (5 Bft) 96,23 %
04.06.2017 11:50 20,6 C 25,0 C 65 % 1010,9 hPa 0,0 l/m 15,0 km/h (3 Bft) W-SW 255 0 min 0,000 mm 2,8 UV-I 397 W/m 13,8 C 18,0 C 22,5 km/h (4 Bft) 91,49 %
04.06.2017 11:52 20,6 C 25,0 C 65 % 1010,9 hPa 0,0 l/m 20,0 km/h (4 Bft) W-NW 296 0 min 0,000 mm 3,0 UV-I 419 W/m 13,8 C 17,0 C 30,6 km/h (5 Bft) 100,00 %
04.06.2017 11:54 20,7 C 25,0 C 65 % 1010,9 hPa 0,0 l/m 16,9 km/h (3 Bft) W-SW 257 0 min 0,000 mm 2,8 UV-I 390 W/m 13,9 C 17,7 C 27,4 km/h (4 Bft) 98,00 %
04.06.2017 11:56 20,7 C 25,0 C 65 % 1010,9 hPa 0,0 l/m 16,7 km/h (3 Bft) W-SW 257 0 min 0,000 mm 2,5 UV-I 352 W/m 13,9 C 17,7 C 22,5 km/h (4 Bft) 100,00 %
04.06.2017 11:58 20,7 C 25,0 C 65 % 1011,0 hPa 0,0 l/m 16,3 km/h (3 Bft) W-SW 247 0 min 0,000 mm 2,5 UV-I 344 W/m 13,9 C 17,8 C 29,0 km/h (5 Bft) 97,62 %
04.06.2017 12:00 20,7 C 25,0 C 66 % 1010,9 hPa 0,0 l/m 12,7 km/h (3 Bft) W-SW 250 0 min 0,229 mm 2,2 UV-I 297 W/m 14,1 C 18,7 C 20,9 km/h (4 Bft) 93,62 %
04.06.2017 12:02 20,6 C 25,0 C 66 % 1010,9 hPa 0,0 l/m 14,7 km/h (3 Bft) W-SW 243 0 min 0,000 mm 1,6 UV-I 235 W/m 14,0 C 18,0 C 29,0 km/h (5 Bft) 93,62 %
04.06.2017 12:04 20,6 C 25,0 C 67 % 1011,0 hPa 0,0 l/m 17,7 km/h (3 Bft) W 263 0 min 0,000 mm 1,4 UV-I 197 W/m 14,3 C 17,4 C 29,0 km/h (5 Bft) 94,55 %
04.06.2017 12:06 20,5 C 25,0 C 66 % 1011,0 hPa 0,0 l/m 15,6 km/h (3 Bft) W-SW 244 0 min 0,000 mm 1,3 UV-I 183 W/m 13,9 C 17,7 C 24,1 km/h (4 Bft) 94,87 %
04.06.2017 12:08 20,4 C 25,0 C 67 % 1011,0 hPa 0,0 l/m 9,3 km/h (2 Bft) S-SW 204 0 min 0,000 mm 1,2 UV-I 170 W/m 14,1 C 19,3 C 14,5 km/h (3 Bft) 98,00 %
04.06.2017 12:10 20,3 C 25,0 C 67 % 1011,0 hPa 0,0 l/m 12,1 km/h (2 Bft) W-SW 248 0 min 0,000 mm 1,2 UV-I 170 W/m 14,0 C 18,3 C 22,5 km/h (4 Bft) 98,00 %
04.06.2017 12:12 20,3 C 25,0 C 67 % 1011,1 hPa 0,0 l/m 10,7 km/h (2 Bft) W-SW 247 0 min 0,000 mm 1,0 UV-I 152 W/m 14,0 C 18,8 C 16,1 km/h (3 Bft) 98,00 %
04.06.2017 12:14 20,2 C 25,0 C 67 % 1011,1 hPa 0,0 l/m 15,6 km/h (3 Bft) W-SW 242 0 min 0,000 mm 0,9 UV-I 140 W/m 13,9 C 17,4 C 25,7 km/h (4 Bft) 100,00 %
04.06.2017 12:16 20,2 C 25,0 C 68 % 1011,1 hPa 0,0 l/m 13,5 km/h (3 Bft) W-SW 257 0 min 0,000 mm 0,9 UV-I 141 W/m 14,1 C 17,9 C 19,3 km/h (3 Bft) 95,12 %
04.06.2017 12:18 20,1 C 25,0 C 68 % 1011,1 hPa 0,0 l/m 13,5 km/h (3 Bft) W-SW 248 0 min 0,000 mm 0,9 UV-I 147 W/m 14,0 C 17,7 C 19,3 km/h (3 Bft) 97,56 %
04.06.2017 12:20 20,1 C 25,0 C 69 % 1011,1 hPa 0,0 l/m 12,6 km/h (3 Bft) W-SW 243 0 min 0,000 mm 1,1 UV-I 179 W/m 14,2 C 18,0 C 19,3 km/h (3 Bft) 96,43 %
04.06.2017 12:22 20,1 C 25,0 C 69 % 1011,1 hPa 0,0 l/m 18,6 km/h (3 Bft) SW 227 0 min 0,000 mm 1,3 UV-I 213 W/m 14,2 C 16,6 C 30,6 km/h (5 Bft) 94,00 %
04.06.2017 12:24 20,1 C 25,0 C 69 % 1011,1 hPa 0,0 l/m 17,7 km/h (3 Bft) W-SW 240 0 min 0,000 mm 2,0 UV-I 290 W/m 14,2 C 16,8 C 24,1 km/h (4 Bft) 100,00 %
04.06.2017 12:26 20,2 C 25,0 C 68 % 1011,2 hPa 0,0 l/m 19,0 km/h (3 Bft) W-SW 256 0 min 0,000 mm 2,0 UV-I 295 W/m 14,1 C 16,6 C 29,0 km/h (5 Bft) 100,00 %
04.06.2017 12:28 20,2 C 25,0 C 68 % 1011,2 hPa 0,0 l/m 18,7 km/h (3 Bft) W-SW 250 0 min 0,000 mm 2,4 UV-I 336 W/m 14,1 C 16,7 C 29,0 km/h (5 Bft) 97,73 %
04.06.2017 12:30 20,2 C 25,0 C 68 % 1011,1 hPa 0,0 l/m 18,1 km/h (3 Bft) W 273 0 min 0,000 mm 2,2 UV-I 298 W/m 14,1 C 16,8 C 38,6 km/h (5 Bft) 98,11 %
04.06.2017 12:32 20,2 C 25,0 C 67 % 1011,2 hPa 0,0 l/m 23,1 km/h (4 Bft) W-SW 246 0 min 0,000 mm 1,9 UV-I 254 W/m 13,9 C 15,9 C 32,2 km/h (5 Bft) 100,00 %
04.06.2017 12:34 20,2 C 25,0 C 68 % 1011,2 hPa 0,0 l/m 20,2 km/h (4 Bft) S 172 0 min 0,000 mm 1,7 UV-I 223 W/m 14,1 C 16,4 C 32,2 km/h (5 Bft) 94,64 %
04.06.2017 12:36 20,1 C 25,0 C 68 % 1011,2 hPa 0,0 l/m 20,8 km/h (4 Bft) W 261 0 min 0,000 mm 1,5 UV-I 204 W/m 14,0 C 16,2 C 35,4 km/h (5 Bft) 97,56 %
04.06.2017 12:38 19,9 C 25,0 C 68 % 1011,2 hPa 0,0 l/m 20,4 km/h (4 Bft) S-SW 209 0 min 0,000 mm 1,7 UV-I 228 W/m 13,8 C 16,0 C 37,0 km/h (5 Bft) 91,67 %
04.06.2017 12:40 19,8 C 25,0 C 68 % 1011,3 hPa 0,0 l/m 28,5 km/h (4 Bft) SW 216 0 min 0,000 mm 1,7 UV-I 246 W/m 13,7 C 14,6 C 41,8 km/h (6 Bft) 94,74 %
04.06.2017 12:42 19,7 C 25,0 C 68 % 1011,3 hPa 0,0 l/m 21,8 km/h (4 Bft) W-SW 237 0 min 0,000 mm 2,0 UV-I 264 W/m 13,6 C 15,5 C 29,0 km/h (5 Bft) 97,22 %
04.06.2017 12:44 19,7 C 25,0 C 69 % 1011,4 hPa 0,0 l/m 20,6 km/h (4 Bft) W-SW 246 0 min 0,000 mm 2,2 UV-I 294 W/m 13,8 C 15,7 C 30,6 km/h (5 Bft) 95,74 %
04.06.2017 12:46 19,7 C 25,0 C 69 % 1011,3 hPa 0,0 l/m 21,0 km/h (4 Bft) SW 225 0 min 0,000 mm 2,1 UV-I 271 W/m 13,8 C 15,6 C 33,8 km/h (5 Bft) 92,45 %
04.06.2017 12:48 19,6 C 25,0 C 69 % 1011,4 hPa 0,0 l/m 19,3 km/h (3 Bft) W 259 0 min 0,000 mm 1,9 UV-I 254 W/m 13,8 C 15,8 C 30,6 km/h (5 Bft) 93,18 %
04.06.2017 12:50 19,6 C 25,0 C 70 % 1011,4 hPa 0,0 l/m 22,3 km/h (4 Bft) W-SW 250 0 min 0,000 mm 1,9 UV-I 252 W/m 14,0 C 15,3 C 41,8 km/h (6 Bft) 97,73 %
04.06.2017 12:52 19,4 C 25,0 C 70 % 1011,4 hPa 0,0 l/m 22,2 km/h (4 Bft) SW 219 0 min 0,000 mm 1,7 UV-I 236 W/m 13,8 C 15,0 C 32,2 km/h (5 Bft) 96,00 %
04.06.2017 12:54 19,3 C 25,0 C 71 % 1011,5 hPa 0,0 l/m 19,8 km/h (3 Bft) S-SW 202 0 min 0,000 mm 1,7 UV-I 243 W/m 13,9 C 15,3 C 32,2 km/h (5 Bft) 89,36 %
04.06.2017 12:56 19,2 C 25,0 C 71 % 1011,4 hPa 0,0 l/m 16,4 km/h (3 Bft) SW 229 0 min 0,000 mm 1,8 UV-I 241 W/m 13,8 C 15,9 C 27,4 km/h (4 Bft) 94,00 %
04.06.2017 12:58 19,2 C 25,0 C 72 % 1011,4 hPa 0,0 l/m 23,8 km/h (4 Bft) SW 219 0 min 0,000 mm 1,6 UV-I 221 W/m 14,0 C 14,5 C 35,4 km/h (5 Bft) 97,14 %
04.06.2017 13:00 19,1 C 25,0 C 71 % 1011,5 hPa 0,0 l/m 21,7 km/h (4 Bft) W-SW 238 0 min 0,000 mm 1,6 UV-I 216 W/m 13,7 C 14,7 C 32,2 km/h (5 Bft) 96,23 %
04.06.2017 13:02 19,0 C 25,0 C 72 % 1011,5 hPa 0,0 l/m 18,1 km/h (3 Bft) SW 224 0 min 0,203 mm 1,6 UV-I 214 W/m 13,8 C 15,3 C 29,0 km/h (5 Bft) 94,64 %
04.06.2017 13:04 19,0 C 25,0 C 73 % 1011,5 hPa 0,0 l/m 18,1 km/h (3 Bft) W 261 0 min 0,000 mm 1,5 UV-I 205 W/m 14,0 C 15,3 C 27,4 km/h (4 Bft) 100,00 %
04.06.2017 13:06 18,9 C 25,0 C 74 % 1011,5 hPa 0,0 l/m 21,0 km/h (4 Bft) SW 235 0 min 0,000 mm 1,4 UV-I 202 W/m 14,2 C 14,6 C 29,0 km/h (5 Bft) 94,34 %
04.06.2017 13:08 18,9 C 25,0 C 73 % 1011,5 hPa 0,0 l/m 23,5 km/h (4 Bft) W 260 0 min 0,000 mm 1,4 UV-I 207 W/m 13,9 C 14,1 C 35,4 km/h (5 Bft) 97,73 %
04.06.2017 13:10 18,8 C 25,0 C 74 % 1011,5 hPa 0,0 l/m 19,3 km/h (3 Bft) W-SW 242 0 min 0,000 mm 1,5 UV-I 211 W/m 14,1 C 14,8 C 33,8 km/h (5 Bft) 96,00 %
04.06.2017 13:12 18,8 C 25,0 C 74 % 1011,4 hPa 0,0 l/m 20,7 km/h (4 Bft) SW 227 0 min 0,000 mm 1,5 UV-I 208 W/m 14,1 C 14,5 C 29,0 km/h (5 Bft) 97,87 %
04.06.2017 13:14 18,7 C 25,0 C 74 % 1011,4 hPa 0,0 l/m 19,9 km/h (4 Bft) W-SW 240 0 min 0,000 mm 1,5 UV-I 204 W/m 14,0 C 14,5 C 33,8 km/h (5 Bft) 100,00 %
04.06.2017 13:16 18,7 C 25,0 C 75 % 1011,5 hPa 0,0 l/m 18,3 km/h (3 Bft) W-SW 246 0 min 0,000 mm 1,4 UV-I 198 W/m 14,2 C 14,9 C 33,8 km/h (5 Bft) 98,11 %
04.06.2017 13:18 18,6 C 25,0 C 75 % 1011,5 hPa 0,0 l/m 23,1 km/h (4 Bft) SW 234 0 min 0,000 mm 1,3 UV-I 182 W/m 14,1 C 13,8 C 33,8 km/h (5 Bft) 100,00 %
04.06.2017 13:20 18,5 C 25,0 C 75 % 1011,4 hPa 0,0 l/m 22,8 km/h (4 Bft) W-SW 238 0 min 0,000 mm 1,2 UV-I 170 W/m 14,0 C 13,7 C 32,2 km/h (5 Bft) 97,73 %
04.06.2017 13:22 18,4 C 25,0 C 76 % 1011,5 hPa 0,0 l/m 26,7 km/h (4 Bft) SW 235 0 min 0,000 mm 1,2 UV-I 165 W/m 14,1 C 12,9 C 46,7 km/h (6 Bft) 100,00 %
04.06.2017 13:24 18,3 C 25,0 C 77 % 1011,6 hPa 0,0 l/m 23,5 km/h (4 Bft) W-SW 253 0 min 0,000 mm 1,1 UV-I 157 W/m 14,2 C 13,3 C 32,2 km/h (5 Bft) 100,00 %
04.06.2017 13:26 18,3 C 25,0 C 77 % 1011,5 hPa 0,0 l/m 24,4 km/h (4 Bft) S-SW 200 0 min 0,000 mm 1,1 UV-I 153 W/m 14,2 C 13,2 C 40,2 km/h (6 Bft) 95,12 %
04.06.2017 13:28 18,2 C 25,0 C 77 % 1011,5 hPa 0,0 l/m 25,4 km/h (4 Bft) S 188 0 min 0,000 mm 1,1 UV-I 153 W/m 14,1 C 12,9 C 38,6 km/h (5 Bft) 96,23 %
04.06.2017 13:30 18,1 C 25,0 C 78 % 1011,6 hPa 0,0 l/m 26,4 km/h (4 Bft) SW 224 0 min 0,000 mm 1,0 UV-I 150 W/m 14,2 C 12,6 C 38,6 km/h (5 Bft) 97,56 %
04.06.2017 13:32 18,1 C 25,0 C 78 % 1011,5 hPa 0,0 l/m 24,2 km/h (4 Bft) SW 236 0 min 0,000 mm 1,0 UV-I 145 W/m 14,2 C 12,9 C 33,8 km/h (5 Bft) 90,91 %
04.06.2017 13:34 18,0 C 25,6 C 78 % 1011,6 hPa 0,0 l/m 25,8 km/h (4 Bft) W-SW 256 0 min 0,000 mm 0,9 UV-I 141 W/m 14,1 C 12,5 C 38,6 km/h (5 Bft) 96,23 %
04.06.2017 13:36 18,0 C 25,6 C 79 % 1011,5 hPa 0,0 l/m 23,6 km/h (4 Bft) SW 228 0 min 0,000 mm 0,9 UV-I 141 W/m 14,3 C 12,9 C 37,0 km/h (5 Bft) 98,00 %
04.06.2017 13:38 17,9 C 25,6 C 79 % 1011,6 hPa 0,0 l/m 25,7 km/h (4 Bft) W 275 0 min 0,000 mm 1,0 UV-I 146 W/m 14,2 C 12,4 C 40,2 km/h (6 Bft) 94,74 %
04.06.2017 13:40 17,9 C 25,6 C 79 % 1011,6 hPa 0,0 l/m 23,6 km/h (4 Bft) W-SW 246 0 min 0,000 mm 1,0 UV-I 156 W/m 14,2 C 12,8 C 33,8 km/h (5 Bft) 95,45 %
04.06.2017 13:42 17,9 C 25,6 C 79 % 1011,5 hPa 0,0 l/m 28,1 km/h (4 Bft) SW 229 0 min 0,000 mm 1,1 UV-I 164 W/m 14,2 C 12,0 C 41,8 km/h (6 Bft) 96,61 %
04.06.2017 13:44 17,8 C 25,6 C 79 % 1011,6 hPa 0,0 l/m 23,0 km/h (4 Bft) SW 229 0 min 0,000 mm 1,2 UV-I 174 W/m 14,1 C 12,8 C 37,0 km/h (5 Bft) 90,24 %
04.06.2017 13:46 17,8 C 25,6 C 79 % 1011,6 hPa 0,0 l/m 25,9 km/h (4 Bft) W-SW 237 0 min 0,000 mm 1,2 UV-I 179 W/m 14,1 C 12,3 C 40,2 km/h (6 Bft) 95,45 %
04.06.2017 13:48 17,8 C 25,6 C 80 % 1011,5 hPa 0,0 l/m 27,4 km/h (4 Bft) S-SW 209 0 min 0,000 mm 1,3 UV-I 183 W/m 14,3 C 12,0 C 37,0 km/h (5 Bft) 94,34 %
04.06.2017 13:50 17,9 C 25,6 C 80 % 1011,7 hPa 0,0 l/m 25,1 km/h (4 Bft) SW 220 0 min 0,000 mm 1,3 UV-I 186 W/m 14,4 C 12,5 C 43,5 km/h (6 Bft) 100,00 %
04.06.2017 13:52 17,8 C 25,6 C 80 % 1011,6 hPa 0,0 l/m 24,3 km/h (4 Bft) SW 223 0 min 0,000 mm 1,3 UV-I 193 W/m 14,3 C 12,5 C 33,8 km/h (5 Bft) 93,75 %
04.06.2017 13:54 17,9 C 25,0 C 80 % 1011,6 hPa 0,0 l/m 22,2 km/h (4 Bft) W-SW 248 0 min 0,000 mm 1,4 UV-I 202 W/m 14,4 C 13,0 C 33,8 km/h (5 Bft) 94,74 %
04.06.2017 13:56 17,9 C 25,0 C 80 % 1011,7 hPa 0,0 l/m 23,9 km/h (4 Bft) SW 233 0 min 0,000 mm 1,4 UV-I 213 W/m 14,4 C 12,7 C 37,0 km/h (5 Bft) 90,57 %
04.06.2017 13:58 17,9 C 25,0 C 79 % 1011,6 hPa 0,0 l/m 27,8 km/h (4 Bft) SW 218 0 min 0,000 mm 1,5 UV-I 223 W/m 14,2 C 12,1 C 40,2 km/h (6 Bft) 97,44 %
04.06.2017 14:00 17,9 C 25,0 C 80 % 1011,7 hPa 0,0 l/m 21,1 km/h (4 Bft) SW 231 0 min 0,000 mm 1,6 UV-I 233 W/m 14,4 C 13,3 C 43,5 km/h (6 Bft) 95,74 %
04.06.2017 14:02 17,9 C 25,0 C 80 % 1011,8 hPa 0,0 l/m 17,1 km/h (3 Bft) W-SW 242 0 min 0,178 mm 1,7 UV-I 246 W/m 14,4 C 14,2 C 27,4 km/h (4 Bft) 97,87 %
04.06.2017 14:04 18,0 C 25,0 C 80 % 1011,8 hPa 0,0 l/m 23,7 km/h (4 Bft) W-SW 256 0 min 0,000 mm 1,8 UV-I 255 W/m 14,5 C 12,9 C 37,0 km/h (5 Bft) 95,74 %
04.06.2017 14:06 18,0 C 25,0 C 81 % 1011,9 hPa 0,0 l/m 25,5 km/h (4 Bft) SW 217 0 min 0,000 mm 1,8 UV-I 261 W/m 14,7 C 12,6 C 38,6 km/h (5 Bft) 97,87 %
04.06.2017 14:08 18,0 C 25,0 C 80 % 1011,8 hPa 0,0 l/m 24,9 km/h (4 Bft) SW 236 0 min 0,000 mm 1,8 UV-I 262 W/m 14,5 C 12,7 C 35,4 km/h (5 Bft) 94,00 %
04.06.2017 14:10 17,9 C 25,0 C 80 % 1011,9 hPa 0,0 l/m 22,5 km/h (4 Bft) SW 221 0 min 0,000 mm 1,8 UV-I 264 W/m 14,4 C 13,0 C 32,2 km/h (5 Bft) 92,00 %
04.06.2017 14:12 18,0 C 25,0 C 80 % 1011,9 hPa 0,0 l/m 26,7 km/h (4 Bft) SW 228 0 min 0,000 mm 1,9 UV-I 276 W/m 14,5 C 12,4 C 38,6 km/h (5 Bft) 95,74 %
04.06.2017 14:14 18,1 C 25,0 C 80 % 1012,0 hPa 0,0 l/m 20,1 km/h (4 Bft) W-SW 247 0 min 0,000 mm 1,9 UV-I 274 W/m 14,6 C 13,7 C 32,2 km/h (5 Bft) 91,49 %
04.06.2017 14:16 18,1 C 25,0 C 80 % 1012,0 hPa 0,0 l/m 24,6 km/h (4 Bft) SW 227 0 min 0,000 mm 1,8 UV-I 268 W/m 14,6 C 12,9 C 40,2 km/h (6 Bft) 95,74 %
04.06.2017 14:18 18,1 C 25,0 C 80 % 1012,0 hPa 0,0 l/m 27,8 km/h (4 Bft) SW 224 0 min 0,000 mm 1,8 UV-I 261 W/m 14,6 C 12,4 C 37,0 km/h (5 Bft) 94,00 %
04.06.2017 14:20 18,1 C 25,0 C 80 % 1012,0 hPa 0,0 l/m 25,4 km/h (4 Bft) SW 231 0 min 0,000 mm 1,7 UV-I 253 W/m 14,6 C 12,7 C 43,5 km/h (6 Bft) 89,36 %
04.06.2017 14:22 18,1 C 25,0 C 80 % 1012,0 hPa 0,0 l/m 18,4 km/h (3 Bft) W 263 0 min 0,000 mm 1,5 UV-I 230 W/m 14,6 C 14,1 C 30,6 km/h (5 Bft) 94,29 %
04.06.2017 14:24 18,1 C 25,0 C 80 % 1012,1 hPa 0,0 l/m 24,8 km/h (4 Bft) SW 228 0 min 0,000 mm 1,3 UV-I 198 W/m 14,6 C 12,8 C 37,0 km/h (5 Bft) 97,87 %
04.06.2017 14:26 18,0 C 25,0 C 80 % 1012,1 hPa 0,0 l/m 24,6 km/h (4 Bft) W-SW 237 0 min 0,000 mm 1,2 UV-I 176 W/m 14,5 C 12,7 C 48,3 km/h (6 Bft) 95,74 %
04.06.2017 14:28 17,9 C 25,0 C 82 % 1012,3 hPa 0,0 l/m 27,1 km/h (4 Bft) W-SW 248 0 min 0,000 mm 1,1 UV-I 148 W/m 14,8 C 12,2 C 43,5 km/h (6 Bft) 89,36 %
04.06.2017 14:30 17,7 C 25,0 C 83 % 1012,4 hPa 0,2 l/m 24,0 km/h (4 Bft) W-SW 249 0 min 0,000 mm 0,7 UV-I 106 W/m 14,8 C 12,4 C 38,6 km/h (5 Bft) 95,74 %
04.06.2017 14:32 17,4 C 25,0 C 84 % 1012,4 hPa 0,0 l/m 26,0 km/h (4 Bft) SW 234 0 min 0,000 mm 0,9 UV-I 136 W/m 14,7 C 11,7 C 33,8 km/h (5 Bft) 93,62 %
04.06.2017 14:34 17,2 C 25,0 C 86 % 1012,5 hPa 0,0 l/m 20,2 km/h (4 Bft) SW 221 0 min 0,000 mm 0,9 UV-I 145 W/m 14,8 C 12,5 C 27,4 km/h (4 Bft) 88,00 %
04.06.2017 14:36 17,0 C 25,0 C 87 % 1012,7 hPa 0,0 l/m 25,0 km/h (4 Bft) SW 227 0 min 0,000 mm 0,9 UV-I 141 W/m 14,8 C 11,3 C 40,2 km/h (6 Bft) 90,00 %
04.06.2017 14:38 16,9 C 25,0 C 88 % 1012,7 hPa 0,0 l/m 22,9 km/h (4 Bft) SW 221 0 min 0,000 mm 0,9 UV-I 139 W/m 14,9 C 11,6 C 32,2 km/h (5 Bft) 87,50 %
04.06.2017 14:40 16,8 C 25,0 C 88 % 1012,8 hPa 0,0 l/m 22,5 km/h (4 Bft) W-SW 247 0 min 0,000 mm 0,9 UV-I 144 W/m 14,8 C 11,5 C 35,4 km/h (5 Bft) 93,62 %
04.06.2017 14:42 16,7 C 25,0 C 88 % 1012,6 hPa 0,0 l/m 21,9 km/h (4 Bft) W-SW 252 0 min 0,000 mm 0,9 UV-I 150 W/m 14,7 C 11,5 C 33,8 km/h (5 Bft) 91,49 %
04.06.2017 14:44 16,7 C 25,0 C 88 % 1012,6 hPa 0,0 l/m 19,2 km/h (3 Bft) SW 234 0 min 0,000 mm 1,0 UV-I 156 W/m 14,7 C 12,1 C 25,7 km/h (4 Bft) 94,00 %
04.06.2017 14:46 16,7 C 25,0 C 89 % 1012,6 hPa 0,0 l/m 18,0 km/h (3 Bft) W-SW 257 0 min 0,000 mm 1,0 UV-I 160 W/m 14,9 C 12,4 C 25,7 km/h (4 Bft) 88,57 %
04.06.2017 14:48 16,7 C 25,0 C 89 % 1012,6 hPa 0,0 l/m 14,7 km/h (3 Bft) W-SW 256 0 min 0,000 mm 1,0 UV-I 168 W/m 14,9 C 13,3 C 22,5 km/h (4 Bft) 88,46 %
04.06.2017 14:50 16,7 C 25,0 C 89 % 1012,7 hPa 0,0 l/m 17,7 km/h (3 Bft) W-SW 257 0 min 0,000 mm 1,1 UV-I 178 W/m 14,9 C 12,5 C 24,1 km/h (4 Bft) 91,49 %
04.06.2017 14:52 16,7 C 25,0 C 88 % 1012,7 hPa 0,0 l/m 17,0 km/h (3 Bft) W-SW 241 0 min 0,000 mm 1,2 UV-I 193 W/m 14,7 C 12,7 C 30,6 km/h (5 Bft) 93,62 %
04.06.2017 14:54 16,7 C 25,0 C 87 % 1012,8 hPa 0,0 l/m 16,0 km/h (3 Bft) W-SW 245 0 min 0,000 mm 1,2 UV-I 209 W/m 14,5 C 13,0 C 27,4 km/h (4 Bft) 85,11 %
04.06.2017 14:56 16,7 C 25,0 C 88 % 1012,8 hPa 0,0 l/m 17,8 km/h (3 Bft) W-SW 250 0 min 0,000 mm 1,4 UV-I 219 W/m 14,7 C 12,5 C 24,1 km/h (4 Bft) 95,74 %
04.06.2017 14:58 16,8 C 25,0 C 88 % 1012,8 hPa 0,2 l/m 16,7 km/h (3 Bft) W-SW 242 0 min 0,000 mm 1,4 UV-I 230 W/m 14,8 C 12,9 C 25,7 km/h (4 Bft) 95,74 %
04.06.2017 15:00 16,8 C 25,0 C 87 % 1012,9 hPa 0,0 l/m 19,7 km/h (3 Bft) SW 231 0 min 0,152 mm 1,5 UV-I 236 W/m 14,6 C 12,1 C 30,6 km/h (5 Bft) 90,00 %
04.06.2017 15:02 16,8 C 25,0 C 87 % 1013,0 hPa 0,0 l/m 18,4 km/h (3 Bft) SW 219 0 min 0,000 mm 1,5 UV-I 237 W/m 14,6 C 12,5 C 29,0 km/h (5 Bft) 87,23 %
04.06.2017 15:04 16,8 C 25,0 C 87 % 1013,0 hPa 0,0 l/m 18,8 km/h (3 Bft) W-SW 254 0 min 0,000 mm 1,4 UV-I 220 W/m 14,6 C 12,4 C 25,7 km/h (4 Bft) 97,14 %
04.06.2017 15:06 16,8 C 25,0 C 88 % 1013,0 hPa 0,0 l/m 19,4 km/h (3 Bft) SW 234 0 min 0,000 mm 1,1 UV-I 180 W/m 14,8 C 12,2 C 32,2 km/h (5 Bft) 94,00 %
04.06.2017 15:08 16,8 C 25,0 C 88 % 1013,0 hPa 0,0 l/m 18,0 km/h (3 Bft) S-SW 205 0 min 0,000 mm 0,9 UV-I 150 W/m 14,8 C 12,6 C 24,1 km/h (4 Bft) 93,62 %
04.06.2017 15:10 16,7 C 25,0 C 88 % 1013,0 hPa 0,0 l/m 16,0 km/h (3 Bft) SW 236 0 min 0,000 mm 0,9 UV-I 150 W/m 14,7 C 13,0 C 22,5 km/h (4 Bft) 97,87 %
04.06.2017 15:12 16,8 C 25,0 C 88 % 1013,0 hPa 0,0 l/m 16,5 km/h (3 Bft) SW 234 0 min 0,000 mm 0,9 UV-I 142 W/m 14,8 C 12,9 C 25,7 km/h (4 Bft) 97,22 %
04.06.2017 15:14 16,7 C 25,0 C 88 % 1013,1 hPa 0,0 l/m 11,8 km/h (2 Bft) SW 227 0 min 0,000 mm 0,7 UV-I 119 W/m 14,7 C 14,3 C 20,9 km/h (4 Bft) 98,44 %
04.06.2017 15:16 16,7 C 25,0 C 88 % 1013,2 hPa 0,0 l/m 14,3 km/h (3 Bft) S-SW 192 0 min 0,000 mm 0,8 UV-I 138 W/m 14,7 C 13,5 C 24,1 km/h (4 Bft) 90,00 %
04.06.2017 15:18 16,7 C 25,0 C 88 % 1013,2 hPa 0,0 l/m 18,7 km/h (3 Bft) W-SW 240 0 min 0,000 mm 0,9 UV-I 157 W/m 14,7 C 12,3 C 29,0 km/h (5 Bft) 97,44 %
04.06.2017 15:20 16,7 C 25,0 C 88 % 1013,2 hPa 0,0 l/m 14,0 km/h (3 Bft) W 269 0 min 0,000 mm 1,1 UV-I 190 W/m 14,7 C 13,6 C 19,3 km/h (3 Bft) 100,00 %
04.06.2017 15:22 16,7 C 25,0 C 88 % 1013,3 hPa 0,0 l/m 14,2 km/h (3 Bft) SW 217 0 min 0,000 mm 1,2 UV-I 199 W/m 14,7 C 13,5 C 22,5 km/h (4 Bft) 95,74 %
04.06.2017 15:24 16,8 C 25,0 C 88 % 1013,2 hPa 0,2 l/m 18,3 km/h (3 Bft) SW 232 0 min 0,000 mm 1,5 UV-I 270 W/m 14,8 C 12,5 C 24,1 km/h (4 Bft) 97,87 %
04.06.2017 15:26 16,8 C 25,0 C 88 % 1013,3 hPa 0,0 l/m 19,6 km/h (3 Bft) W 260 0 min 0,000 mm 1,9 UV-I 312 W/m 14,8 C 12,2 C 27,4 km/h (4 Bft) 95,74 %
04.06.2017 15:28 16,9 C 25,0 C 87 % 1013,1 hPa 0,0 l/m 19,0 km/h (3 Bft) W-SW 257 0 min 0,000 mm 1,9 UV-I 315 W/m 14,7 C 12,4 C 27,4 km/h (4 Bft) 97,87 %
04.06.2017 15:30 17,1 C 25,0 C 87 % 1013,2 hPa 0,0 l/m 18,2 km/h (3 Bft) W-SW 246 0 min 0,000 mm 1,8 UV-I 307 W/m 14,9 C 12,9 C 27,4 km/h (4 Bft) 93,62 %
04.06.2017 15:32 17,2 C 25,0 C 86 % 1013,3 hPa 0,0 l/m 19,2 km/h (3 Bft) SW 234 0 min 0,000 mm 1,8 UV-I 308 W/m 14,8 C 12,8 C 29,0 km/h (5 Bft) 97,87 %
04.06.2017 15:34 17,3 C 25,0 C 86 % 1013,2 hPa 0,0 l/m 15,7 km/h (3 Bft) W-SW 244 0 min 0,000 mm 1,7 UV-I 295 W/m 14,9 C 13,8 C 20,9 km/h (4 Bft) 100,00 %
04.06.2017 15:36 17,4 C 25,0 C 85 % 1013,2 hPa 0,0 l/m 17,8 km/h (3 Bft) W-SW 250 0 min 0,000 mm 1,6 UV-I 283 W/m 14,8 C 13,4 C 27,4 km/h (4 Bft) 100,00 %
04.06.2017 15:38 17,4 C 25,0 C 85 % 1013,3 hPa 0,0 l/m 16,8 km/h (3 Bft) W-SW 251 0 min 0,000 mm 1,6 UV-I 283 W/m 14,8 C 13,6 C 35,4 km/h (5 Bft) 93,62 %
04.06.2017 15:40 17,6 C 25,0 C 84 % 1013,3 hPa 0,0 l/m 14,9 km/h (3 Bft) W 266 0 min 0,000 mm 1,7 UV-I 296 W/m 14,9 C 14,4 C 30,6 km/h (5 Bft) 91,49 %
04.06.2017 15:42 17,6 C 25,0 C 83 % 1013,2 hPa 0,0 l/m 17,6 km/h (3 Bft) W-SW 251 0 min 0,000 mm 1,8 UV-I 323 W/m 14,7 C 13,7 C 25,7 km/h (4 Bft) 93,62 %
04.06.2017 15:44 17,7 C 25,0 C 83 % 1013,2 hPa 0,0 l/m 14,3 km/h (3 Bft) W 274 0 min 0,000 mm 1,9 UV-I 350 W/m 14,8 C 14,7 C 22,5 km/h (4 Bft) 97,87 %
04.06.2017 15:46 17,9 C 25,0 C 83 % 1013,1 hPa 0,0 l/m 16,3 km/h (3 Bft) SW 236 0 min 0,000 mm 2,0 UV-I 358 W/m 15,0 C 14,4 C 24,1 km/h (4 Bft) 95,74 %
04.06.2017 15:48 18,0 C 25,0 C 82 % 1013,2 hPa 0,0 l/m 16,0 km/h (3 Bft) W 259 0 min 0,000 mm 2,1 UV-I 364 W/m 14,9 C 14,6 C 22,5 km/h (4 Bft) 94,00 %
04.06.2017 15:50 18,1 C 25,0 C 82 % 1013,1 hPa 0,0 l/m 12,7 km/h (3 Bft) W-SW 237 0 min 0,000 mm 2,1 UV-I 360 W/m 15,0 C 15,6 C 19,3 km/h (3 Bft) 97,22 %
04.06.2017 15:52 18,2 C 25,0 C 80 % 1013,2 hPa 0,0 l/m 18,8 km/h (3 Bft) W 262 0 min 0,000 mm 2,0 UV-I 330 W/m 14,7 C 14,1 C 29,0 km/h (5 Bft) 100,00 %
04.06.2017 15:54 18,2 C 25,0 C 80 % 1013,2 hPa 0,0 l/m 18,2 km/h (3 Bft) NW 316 0 min 0,000 mm 1,7 UV-I 300 W/m 14,7 C 14,3 C 27,4 km/h (4 Bft) 100,00 %
04.06.2017 15:56 18,2 C 25,0 C 79 % 1013,3 hPa 0,0 l/m 14,0 km/h (3 Bft) SW 219 0 min 0,000 mm 1,7 UV-I 300 W/m 14,5 C 15,3 C 20,9 km/h (4 Bft) 95,16 %
04.06.2017 15:58 18,3 C 25,0 C 80 % 1013,3 hPa 0,0 l/m 12,9 km/h (3 Bft) W 259 0 min 0,000 mm 1,7 UV-I 295 W/m 14,8 C 15,8 C 19,3 km/h (3 Bft) 93,62 %
04.06.2017 16:00 18,3 C 25,0 C 80 % 1013,3 hPa 0,0 l/m 15,7 km/h (3 Bft) W-SW 244 0 min 0,000 mm 1,6 UV-I 293 W/m 14,8 C 15,0 C 24,1 km/h (4 Bft) 100,00 %
04.06.2017 16:02 18,3 C 25,0 C 79 % 1013,2 hPa 0,0 l/m 12,7 km/h (3 Bft) W-SW 246 0 min 0,178 mm 1,8 UV-I 331 W/m 14,6 C 15,9 C 22,5 km/h (4 Bft) 98,00 %
04.06.2017 16:04 18,3 C 25,0 C 80 % 1013,3 hPa 0,0 l/m 15,1 km/h (3 Bft) SW 236 0 min 0,000 mm 1,9 UV-I 331 W/m 14,8 C 15,2 C 20,9 km/h (4 Bft) 97,87 %
04.06.2017 16:06 18,3 C 25,0 C 79 % 1013,3 hPa 0,0 l/m 19,2 km/h (3 Bft) W-SW 244 0 min 0,000 mm 1,6 UV-I 287 W/m 14,6 C 14,2 C 27,4 km/h (4 Bft) 89,47 %
04.06.2017 16:08 18,3 C 25,0 C 79 % 1013,3 hPa 0,0 l/m 11,4 km/h (2 Bft) W 266 0 min 0,000 mm 1,3 UV-I 230 W/m 14,6 C 16,3 C 19,3 km/h (3 Bft) 91,49 %
04.06.2017 16:10 18,3 C 25,0 C 78 % 1013,4 hPa 0,0 l/m 12,1 km/h (2 Bft) W 264 0 min 0,000 mm 1,0 UV-I 181 W/m 14,4 C 16,0 C 17,7 km/h (3 Bft) 100,00 %
04.06.2017 16:12 18,3 C 25,0 C 80 % 1013,4 hPa 0,0 l/m 14,0 km/h (3 Bft) W-SW 256 0 min 0,000 mm 0,9 UV-I 171 W/m 14,8 C 15,5 C 29,0 km/h (5 Bft) 97,87 %
04.06.2017 16:14 18,2 C 25,0 C 79 % 1013,4 hPa 0,0 l/m 20,6 km/h (4 Bft) W 261 0 min 0,000 mm 0,9 UV-I 161 W/m 14,5 C 13,8 C 32,2 km/h (5 Bft) 95,92 %
04.06.2017 16:16 18,2 C 25,0 C 80 % 1013,5 hPa 0,0 l/m 13,5 km/h (3 Bft) W 262 0 min 0,000 mm 0,9 UV-I 155 W/m 14,7 C 15,5 C 19,3 km/h (3 Bft) 97,87 %
04.06.2017 16:18 18,2 C 25,0 C 79 % 1013,5 hPa 0,0 l/m 17,0 km/h (3 Bft) W-SW 248 0 min 0,000 mm 0,7 UV-I 135 W/m 14,5 C 14,6 C 30,6 km/h (5 Bft) 100,00 %
04.06.2017 16:20 18,1 C 25,0 C 80 % 1013,5 hPa 0,0 l/m 12,3 km/h (3 Bft) W-SW 256 0 min 0,000 mm 0,6 UV-I 121 W/m 14,6 C 15,7 C 19,3 km/h (3 Bft) 95,74 %
04.06.2017 16:22 18,1 C 25,0 C 81 % 1013,5 hPa 0,0 l/m 15,1 km/h (3 Bft) W-SW 253 0 min 0,000 mm 0,9 UV-I 183 W/m 14,8 C 14,9 C 20,9 km/h (4 Bft) 95,74 %
04.06.2017 16:24 18,1 C 25,0 C 81 % 1013,5 hPa 0,0 l/m 16,6 km/h (3 Bft) W 259 0 min 0,000 mm 1,3 UV-I 241 W/m 14,8 C 14,5 C 22,5 km/h (4 Bft) 100,00 %
04.06.2017 16:26 18,0 C 25,0 C 81 % 1013,5 hPa 0,0 l/m 14,0 km/h (3 Bft) S 186 0 min 0,000 mm 1,5 UV-I 268 W/m 14,7 C 15,1 C 20,9 km/h (4 Bft) 100,00 %
04.06.2017 16:28 18,1 C 25,0 C 82 % 1013,5 hPa 0,0 l/m 10,2 km/h (2 Bft) SW 221 0 min 0,000 mm 1,5 UV-I 271 W/m 15,0 C 16,5 C 14,5 km/h (3 Bft) 97,87 %
04.06.2017 16:30 18,2 C 25,0 C 83 % 1013,6 hPa 0,0 l/m 12,3 km/h (3 Bft) W 268 0 min 0,000 mm 1,5 UV-I 267 W/m 15,3 C 15,9 C 24,1 km/h (4 Bft) 96,00 %
04.06.2017 16:32 18,2 C 25,0 C 81 % 1013,5 hPa 0,0 l/m 14,1 km/h (3 Bft) SW 230 0 min 0,000 mm 1,4 UV-I 246 W/m 14,9 C 15,3 C 19,3 km/h (3 Bft) 93,62 %
04.06.2017 16:34 18,2 C 25,0 C 81 % 1013,5 hPa 0,0 l/m 12,4 km/h (3 Bft) W-SW 241 0 min 0,000 mm 1,2 UV-I 228 W/m 14,9 C 15,8 C 24,1 km/h (4 Bft) 93,62 %
04.06.2017 16:36 18,2 C 25,0 C 82 % 1013,5 hPa 0,0 l/m 12,4 km/h (3 Bft) SW 215 0 min 0,000 mm 1,1 UV-I 213 W/m 15,1 C 15,8 C 24,1 km/h (4 Bft) 93,62 %
04.06.2017 16:38 18,2 C 25,0 C 81 % 1013,5 hPa 0,0 l/m 11,2 km/h (2 Bft) S-SW 210 0 min 0,000 mm 1,2 UV-I 236 W/m 14,9 C 16,2 C 17,7 km/h (3 Bft) 100,00 %
04.06.2017 16:40 18,2 C 25,0 C 81 % 1013,5 hPa 0,0 l/m 15,0 km/h (3 Bft) SW 231 0 min 0,000 mm 1,3 UV-I 264 W/m 14,9 C 15,1 C 27,4 km/h (4 Bft) 95,74 %
04.06.2017 16:42 18,2 C 25,0 C 81 % 1013,4 hPa 0,0 l/m 14,1 km/h (3 Bft) S-SW 198 0 min 0,000 mm 1,3 UV-I 266 W/m 14,9 C 15,3 C 22,5 km/h (4 Bft) 95,74 %
04.06.2017 16:44 18,2 C 25,0 C 81 % 1013,5 hPa 0,0 l/m 12,7 km/h (3 Bft) SW 229 0 min 0,000 mm 1,3 UV-I 265 W/m 14,9 C 15,7 C 19,3 km/h (3 Bft) 91,49 %
04.06.2017 16:46 18,2 C 25,0 C 80 % 1013,5 hPa 0,0 l/m 13,1 km/h (3 Bft) SW 236 0 min 0,000 mm 1,2 UV-I 266 W/m 14,7 C 15,6 C 20,9 km/h (4 Bft) 94,00 %
04.06.2017 16:48 18,2 C 25,0 C 80 % 1013,5 hPa 0,0 l/m 15,5 km/h (3 Bft) W-SW 258 0 min 0,000 mm 1,0 UV-I 217 W/m 14,7 C 14,9 C 22,5 km/h (4 Bft) 95,74 %
04.06.2017 16:50 18,2 C 25,0 C 81 % 1013,6 hPa 0,0 l/m 10,4 km/h (2 Bft) S-SW 195 0 min 0,000 mm 0,9 UV-I 186 W/m 14,9 C 16,5 C 19,3 km/h (3 Bft) 97,87 %
04.06.2017 16:52 18,2 C 25,0 C 81 % 1013,5 hPa 0,0 l/m 14,7 km/h (3 Bft) SW 221 0 min 0,000 mm 0,7 UV-I 167 W/m 14,9 C 15,2 C 24,1 km/h (4 Bft) 92,00 %
04.06.2017 16:54 18,1 C 25,0 C 81 % 1013,5 hPa 0,0 l/m 13,3 km/h (3 Bft) SW 215 0 min 0,000 mm 0,7 UV-I 163 W/m 14,8 C 15,4 C 19,3 km/h (3 Bft) 92,00 %
04.06.2017 16:56 18,1 C 25,0 C 81 % 1013,5 hPa 0,0 l/m 10,0 km/h (2 Bft) W-SW 237 0 min 0,000 mm 0,7 UV-I 163 W/m 14,8 C 16,5 C 19,3 km/h (3 Bft) 95,74 %
04.06.2017 16:58 18,2 C 25,0 C 81 % 1013,5 hPa 0,0 l/m 8,6 km/h (2 Bft) S-SW 209 0 min 0,000 mm 0,8 UV-I 179 W/m 14,9 C 17,2 C 16,1 km/h (3 Bft) 93,62 %
04.06.2017 17:00 18,2 C 25,0 C 81 % 1013,5 hPa 0,0 l/m 11,0 km/h (2 Bft) SW 229 0 min 0,152 mm 0,9 UV-I 203 W/m 14,9 C 16,3 C 17,7 km/h (3 Bft) 92,11 %
04.06.2017 17:02 18,2 C 25,0 C 81 % 1013,5 hPa 0,0 l/m 10,5 km/h (2 Bft) SW 235 0 min 0,000 mm 0,8 UV-I 207 W/m 14,9 C 16,5 C 16,1 km/h (3 Bft) 97,87 %
04.06.2017 17:04 18,3 C 25,0 C 80 % 1013,5 hPa 0,0 l/m 10,3 km/h (2 Bft) SW 217 0 min 0,000 mm 0,8 UV-I 206 W/m 14,8 C 16,7 C 16,1 km/h (3 Bft) 100,00 %
04.06.2017 17:06 18,3 C 25,0 C 79 % 1013,5 hPa 0,0 l/m 12,8 km/h (3 Bft) S-SW 208 0 min 0,000 mm 0,7 UV-I 165 W/m 14,6 C 15,8 C 17,7 km/h (3 Bft) 97,87 %
04.06.2017 17:08 18,3 C 25,0 C 79 % 1013,5 hPa 0,0 l/m 11,7 km/h (2 Bft) SW 215 0 min 0,000 mm 0,5 UV-I 128 W/m 14,6 C 16,2 C 19,3 km/h (3 Bft) 100,00 %
04.06.2017 17:10 18,3 C 25,0 C 79 % 1013,4 hPa 0,0 l/m 11,5 km/h (2 Bft) W-SW 248 0 min 0,000 mm 0,4 UV-I 113 W/m 14,6 C 16,2 C 17,7 km/h (3 Bft) 94,00 %
04.06.2017 17:12 18,3 C 25,0 C 78 % 1013,5 hPa 0,0 l/m 8,0 km/h (2 Bft) W-SW 239 0 min 0,000 mm 0,0 UV-I 90 W/m 14,4 C 17,6 C 14,5 km/h (3 Bft) 95,74 %
04.06.2017 17:14 18,3 C 25,0 C 79 % 1013,5 hPa 0,0 l/m 8,2 km/h (2 Bft) W-SW 244 0 min 0,000 mm 0,0 UV-I 70 W/m 14,6 C 17,5 C 14,5 km/h (3 Bft) 98,00 %
04.06.2017 17:16 18,3 C 25,0 C 79 % 1013,4 hPa 0,0 l/m 10,8 km/h (2 Bft) W-SW 256 0 min 0,000 mm 0,0 UV-I 70 W/m 14,6 C 16,5 C 22,5 km/h (4 Bft) 100,00 %
04.06.2017 17:18 18,3 C 25,0 C 78 % 1013,5 hPa 0,0 l/m 17,0 km/h (3 Bft) W-SW 247 0 min 0,000 mm 0,0 UV-I 77 W/m 14,4 C 14,7 C 25,7 km/h (4 Bft) 100,00 %
04.06.2017 17:20 18,3 C 25,0 C 76 % 1013,5 hPa 0,0 l/m 16,6 km/h (3 Bft) W-SW 249 0 min 0,000 mm 0,0 UV-I 83 W/m 14,0 C 14,8 C 27,4 km/h (4 Bft) 95,74 %
04.06.2017 17:23 18,3 C 25,0 C 74 % 1013,5 hPa 0,0 l/m 12,9 km/h (3 Bft) SW 219 0 min 0,000 mm 0,4 UV-I 97 W/m 13,6 C 15,8 C 20,9 km/h (4 Bft) 93,15 %
04.06.2017 17:24 18,3 C 25,0 C 74 % 1013,5 hPa 0,0 l/m 15,6 km/h (3 Bft) W-SW 248 0 min 0,000 mm 0,6 UV-I 107 W/m 13,6 C 15,0 C 19,3 km/h (3 Bft) 100,00 %
04.06.2017 17:26 18,3 C 25,0 C 73 % 1013,6 hPa 0,0 l/m 15,2 km/h (3 Bft) W-SW 258 0 min 0,000 mm 0,6 UV-I 108 W/m 13,4 C 15,1 C 25,7 km/h (4 Bft) 97,87 %
04.06.2017 17:28 18,3 C 25,0 C 73 % 1013,5 hPa 0,0 l/m 13,7 km/h (3 Bft) W-SW 244 0 min 0,000 mm 0,6 UV-I 115 W/m 13,4 C 15,6 C 20,9 km/h (4 Bft) 93,62 %
04.06.2017 17:30 18,3 C 25,0 C 72 % 1013,6 hPa 0,0 l/m 19,2 km/h (3 Bft) SW 215 0 min 0,000 mm 0,6 UV-I 121 W/m 13,2 C 14,2 C 30,6 km/h (5 Bft) 96,00 %
04.06.2017 17:32 18,3 C 25,0 C 72 % 1013,6 hPa 0,0 l/m 17,9 km/h (3 Bft) SW 229 0 min 0,000 mm 0,7 UV-I 124 W/m 13,2 C 14,5 C 25,7 km/h (4 Bft) 100,00 %
04.06.2017 17:34 18,3 C 25,0 C 72 % 1013,6 hPa 0,0 l/m 18,0 km/h (3 Bft) W 261 0 min 0,000 mm 0,7 UV-I 118 W/m 13,2 C 14,4 C 27,4 km/h (4 Bft) 100,00 %
04.06.2017 17:36 18,3 C 25,0 C 72 % 1013,5 hPa 0,0 l/m 14,5 km/h (3 Bft) W-SW 244 0 min 0,000 mm 0,6 UV-I 114 W/m 13,2 C 15,3 C 22,5 km/h (4 Bft) 97,87 %
04.06.2017 17:38 18,3 C 25,0 C 72 % 1013,6 hPa 0,0 l/m 15,1 km/h (3 Bft) W 261 0 min 0,000 mm 0,6 UV-I 110 W/m 13,2 C 15,2 C 22,5 km/h (4 Bft) 94,00 %
04.06.2017 17:40 18,3 C 25,0 C 72 % 1013,5 hPa 0,0 l/m 13,0 km/h (3 Bft) SW 236 0 min 0,000 mm 0,5 UV-I 104 W/m 13,2 C 15,8 C 22,5 km/h (4 Bft) 95,74 %
04.06.2017 17:42 18,2 C 25,0 C 72 % 1013,5 hPa 0,0 l/m 14,3 km/h (3 Bft) W-SW 246 0 min 0,000 mm 0,5 UV-I 102 W/m 13,1 C 15,3 C 25,7 km/h (4 Bft) 100,00 %
04.06.2017 17:44 18,2 C 25,0 C 73 % 1013,5 hPa 0,0 l/m 15,8 km/h (3 Bft) W-SW 239 0 min 0,000 mm 0,5 UV-I 113 W/m 13,3 C 14,9 C 22,5 km/h (4 Bft) 100,00 %
04.06.2017 17:46 18,2 C 25,0 C 73 % 1013,6 hPa 0,0 l/m 18,0 km/h (3 Bft) W 261 0 min 0,000 mm 0,5 UV-I 130 W/m 13,3 C 14,3 C 24,1 km/h (4 Bft) 96,00 %
04.06.2017 17:48 18,1 C 25,0 C 73 % 1013,6 hPa 0,0 l/m 12,9 km/h (3 Bft) W-SW 248 0 min 0,000 mm 0,6 UV-I 140 W/m 13,2 C 15,6 C 19,3 km/h (3 Bft) 95,74 %
04.06.2017 17:50 18,1 C 25,0 C 74 % 1013,6 hPa 0,0 l/m 16,6 km/h (3 Bft) W-SW 249 0 min 0,000 mm 0,6 UV-I 143 W/m 13,4 C 14,5 C 22,5 km/h (4 Bft) 97,87 %
04.06.2017 17:52 18,1 C 25,0 C 74 % 1013,7 hPa 0,0 l/m 12,4 km/h (3 Bft) S-SW 202 0 min 0,000 mm 0,5 UV-I 141 W/m 13,4 C 15,7 C 22,5 km/h (4 Bft) 95,74 %
04.06.2017 17:54 18,1 C 25,0 C 74 % 1013,7 hPa 0,0 l/m 16,0 km/h (3 Bft) SW 227 0 min 0,000 mm 0,5 UV-I 136 W/m 13,4 C 14,7 C 20,9 km/h (4 Bft) 95,83 %
04.06.2017 17:56 18,0 C 25,0 C 74 % 1013,7 hPa 0,0 l/m 13,6 km/h (3 Bft) W-SW 254 0 min 0,000 mm 0,5 UV-I 132 W/m 13,3 C 15,2 C 19,3 km/h (3 Bft) 91,49 %
04.06.2017 17:58 18,0 C 25,0 C 74 % 1013,7 hPa 0,0 l/m 16,5 km/h (3 Bft) W-SW 239 0 min 0,000 mm 0,5 UV-I 138 W/m 13,3 C 14,4 C 24,1 km/h (4 Bft) 94,74 %
04.06.2017 18:00 17,9 C 25,0 C 74 % 1013,6 hPa 0,0 l/m 13,9 km/h (3 Bft) W 262 0 min 0,000 mm 0,5 UV-I 154 W/m 13,2 C 15,0 C 19,3 km/h (3 Bft) 93,62 %
04.06.2017 18:03 18,0 C 25,0 C 74 % 1013,7 hPa 0,0 l/m 14,5 km/h (3 Bft) SW 224 0 min 0,127 mm 0,5 UV-I 167 W/m 13,3 C 15,0 C 22,5 km/h (4 Bft) 95,89 %
04.06.2017 18:04 18,0 C 25,0 C 74 % 1013,7 hPa 0,0 l/m 11,9 km/h (2 Bft) W-SW 240 0 min 0,000 mm 0,5 UV-I 162 W/m 13,3 C 15,8 C 16,1 km/h (3 Bft) 100,00 %
04.06.2017 18:06 18,0 C 25,0 C 74 % 1013,7 hPa 0,0 l/m 13,3 km/h (3 Bft) W-SW 237 0 min 0,000 mm 0,1 UV-I 138 W/m 13,3 C 15,3 C 20,9 km/h (4 Bft) 95,74 %
04.06.2017 18:08 18,0 C 25,0 C 75 % 1013,8 hPa 0,0 l/m 11,6 km/h (2 Bft) W-SW 248 0 min 0,000 mm 0,0 UV-I 105 W/m 13,5 C 15,9 C 19,3 km/h (3 Bft) 97,87 %
04.06.2017 18:10 18,0 C 25,0 C 75 % 1013,7 hPa 0,0 l/m 11,9 km/h (2 Bft) SW 219 0 min 0,000 mm 0,0 UV-I 82 W/m 13,5 C 15,8 C 22,5 km/h (4 Bft) 95,92 %
04.06.2017 18:12 18,0 C 25,0 C 75 % 1013,8 hPa 0,0 l/m 10,1 km/h (2 Bft) W-SW 245 0 min 0,000 mm 0,0 UV-I 57 W/m 13,5 C 16,4 C 19,3 km/h (3 Bft) 97,87 %
04.06.2017 18:14 17,9 C 25,0 C 75 % 1013,8 hPa 0,0 l/m 6,9 km/h (2 Bft) SW 216 0 min 0,000 mm 0,0 UV-I 37 W/m 13,4 C 17,7 C 11,3 km/h (2 Bft) 96,00 %
04.06.2017 18:16 17,9 C 25,0 C 76 % 1013,8 hPa 0,0 l/m 9,0 km/h (2 Bft) W-SW 258 0 min 0,000 mm 0,0 UV-I 30 W/m 13,6 C 16,7 C 16,1 km/h (3 Bft) 97,87 %
04.06.2017 18:18 17,8 C 25,0 C 76 % 1013,9 hPa 0,0 l/m 10,3 km/h (2 Bft) S-SW 196 0 min 0,000 mm 0,0 UV-I 26 W/m 13,5 C 16,1 C 16,1 km/h (3 Bft) 97,87 %
04.06.2017 18:20 17,7 C 25,0 C 77 % 1013,9 hPa 0,0 l/m 13,0 km/h (3 Bft) W-SW 252 0 min 0,000 mm 0,0 UV-I 22 W/m 13,6 C 15,1 C 19,3 km/h (3 Bft) 97,87 %
04.06.2017 18:22 17,7 C 25,0 C 77 % 1013,9 hPa 0,0 l/m 16,0 km/h (3 Bft) S-SW 204 0 min 0,000 mm 0,0 UV-I 19 W/m 13,6 C 14,2 C 22,5 km/h (4 Bft) 95,74 %
04.06.2017 18:24 17,6 C 25,0 C 78 % 1013,9 hPa 0,0 l/m 10,9 km/h (2 Bft) W-SW 257 0 min 0,000 mm 0,0 UV-I 17 W/m 13,7 C 15,7 C 19,3 km/h (3 Bft) 94,74 %
04.06.2017 18:26 17,4 C 25,0 C 79 % 1014,0 hPa 0,0 l/m 9,8 km/h (2 Bft) W-SW 240 0 min 0,000 mm 0,0 UV-I 16 W/m 13,7 C 15,8 C 16,1 km/h (3 Bft) 89,36 %
04.06.2017 18:28 17,3 C 25,0 C 81 % 1014,1 hPa 0,2 l/m 6,2 km/h (2 Bft) W-SW 254 0 min 0,000 mm 0,0 UV-I 16 W/m 14,0 C 17,3 C 14,5 km/h (3 Bft) 91,67 %
04.06.2017 18:30 17,1 C 25,0 C 83 % 1014,0 hPa 0,0 l/m 3,4 km/h (1 Bft) W-NW 302 0 min 0,000 mm 0,0 UV-I 19 W/m 14,2 C 17,1 C 6,4 km/h (2 Bft) 93,62 %
04.06.2017 18:32 16,9 C 25,0 C 84 % 1014,0 hPa 0,0 l/m 2,9 km/h (1 Bft) SW 235 0 min 0,000 mm 0,0 UV-I 24 W/m 14,2 C 16,9 C 6,4 km/h (2 Bft) 92,00 %
04.06.2017 18:34 16,7 C 25,0 C 85 % 1014,0 hPa 0,0 l/m 3,7 km/h (1 Bft) W 262 0 min 0,000 mm 0,0 UV-I 25 W/m 14,2 C 16,7 C 6,4 km/h (2 Bft) 93,62 %
04.06.2017 18:36 16,6 C 25,0 C 85 % 1014,1 hPa 0,0 l/m 4,7 km/h (1 Bft) SW 221 0 min 0,000 mm 0,0 UV-I 25 W/m 14,1 C 16,6 C 6,4 km/h (2 Bft) 91,49 %
04.06.2017 18:38 16,5 C 25,0 C 86 % 1014,1 hPa 0,0 l/m 4,7 km/h (1 Bft) S-SW 207 0 min 0,000 mm 0,0 UV-I 28 W/m 14,1 C 16,5 C 8,0 km/h (2 Bft) 92,00 %
04.06.2017 18:40 16,4 C 25,0 C 86 % 1014,0 hPa 0,0 l/m 3,9 km/h (1 Bft) W-SW 258 0 min 0,000 mm 0,0 UV-I 32 W/m 14,1 C 16,4 C 6,4 km/h (2 Bft) 92,11 %
04.06.2017 18:42 16,4 C 25,0 C 87 % 1014,0 hPa 0,0 l/m 3,7 km/h (1 Bft) W-SW 244 0 min 0,000 mm 0,0 UV-I 33 W/m 14,2 C 16,4 C 6,4 km/h (2 Bft) 89,36 %
04.06.2017 18:44 16,4 C 25,0 C 88 % 1014,1 hPa 0,0 l/m 4,8 km/h (1 Bft) W-SW 242 0 min 0,000 mm 0,0 UV-I 37 W/m 14,4 C 16,4 C 6,4 km/h (2 Bft) 89,36 %
04.06.2017 18:46 16,3 C 25,0 C 87 % 1014,1 hPa 0,0 l/m 7,9 km/h (2 Bft) W-SW 241 0 min 0,000 mm 0,0 UV-I 42 W/m 14,1 C 15,5 C 11,3 km/h (2 Bft) 91,49 %
04.06.2017 18:48 16,3 C 25,0 C 87 % 1014,1 hPa 0,0 l/m 6,6 km/h (2 Bft) W-SW 246 0 min 0,000 mm 0,0 UV-I 46 W/m 14,1 C 16,2 C 9,7 km/h (2 Bft) 94,00 %
04.06.2017 18:50 16,2 C 25,0 C 87 % 1014,1 hPa 0,0 l/m 5,3 km/h (1 Bft) SW 230 0 min 0,000 mm 0,0 UV-I 48 W/m 14,0 C 16,2 C 8,0 km/h (2 Bft) 85,11 %
04.06.2017 18:52 16,2 C 25,0 C 88 % 1014,1 hPa 0,0 l/m 4,9 km/h (1 Bft) SW 228 0 min 0,000 mm 0,0 UV-I 51 W/m 14,2 C 16,2 C 8,0 km/h (2 Bft) 93,62 %
04.06.2017 18:54 16,2 C 25,0 C 88 % 1014,1 hPa 0,0 l/m 4,3 km/h (1 Bft) W-SW 237 0 min 0,000 mm 0,0 UV-I 54 W/m 14,2 C 16,2 C 6,4 km/h (2 Bft) 91,49 %
04.06.2017 18:56 16,1 C 25,0 C 88 % 1014,0 hPa 0,0 l/m 4,3 km/h (1 Bft) SW 235 0 min 0,000 mm 0,0 UV-I 61 W/m 14,1 C 16,1 C 6,4 km/h (2 Bft) 97,87 %
04.06.2017 18:58 16,2 C 25,0 C 89 % 1014,1 hPa 0,0 l/m 3,3 km/h (1 Bft) SW 235 0 min 0,000 mm 0,0 UV-I 72 W/m 14,4 C 16,2 C 4,8 km/h (1 Bft) 93,62 %
04.06.2017 19:00 16,2 C 25,0 C 89 % 1014,0 hPa 0,0 l/m 2,9 km/h (1 Bft) SW 234 0 min 0,051 mm 0,0 UV-I 81 W/m 14,4 C 16,2 C 4,8 km/h (1 Bft) 98,00 %
04.06.2017 19:02 16,3 C 25,0 C 90 % 1014,1 hPa 0,0 l/m 2,6 km/h (1 Bft) SW 234 0 min 0,000 mm 0,0 UV-I 93 W/m 14,7 C 16,3 C 4,8 km/h (1 Bft) 97,87 %
04.06.2017 19:04 16,3 C 25,0 C 90 % 1014,0 hPa 0,0 l/m 4,6 km/h (1 Bft) S 190 0 min 0,000 mm 0,0 UV-I 102 W/m 14,7 C 16,3 C 8,0 km/h (2 Bft) 100,00 %
04.06.2017 19:06 16,3 C 25,0 C 89 % 1014,0 hPa 0,0 l/m 3,0 km/h (1 Bft) S 191 0 min 0,000 mm 0,0 UV-I 94 W/m 14,5 C 16,3 C 6,4 km/h (2 Bft) 97,87 %
04.06.2017 19:08 16,4 C 25,0 C 90 % 1014,0 hPa 0,0 l/m 3,6 km/h (1 Bft) W-SW 242 0 min 0,000 mm 0,0 UV-I 82 W/m 14,8 C 16,4 C 6,4 km/h (2 Bft) 100,00 %
04.06.2017 19:10 16,4 C 25,0 C 89 % 1014,0 hPa 0,0 l/m 3,5 km/h (1 Bft) W-SW 242 0 min 0,000 mm 0,0 UV-I 77 W/m 14,6 C 16,4 C 4,8 km/h (1 Bft) 97,87 %
04.06.2017 19:12 16,4 C 24,4 C 89 % 1014,1 hPa 0,0 l/m 3,4 km/h (1 Bft) W-SW 242 0 min 0,000 mm 0,0 UV-I 82 W/m 14,6 C 16,4 C 4,8 km/h (1 Bft) 98,00 %
04.06.2017 19:14 16,4 C 24,4 C 89 % 1014,0 hPa 0,0 l/m 2,3 km/h (1 Bft) W-SW 242 0 min 0,000 mm 0,0 UV-I 85 W/m 14,6 C 16,4 C 4,8 km/h (1 Bft) 100,00 %
04.06.2017 19:16 16,5 C 24,4 C 89 % 1014,0 hPa 0,0 l/m 3,5 km/h (1 Bft) W-SW 242 0 min 0,000 mm 0,0 UV-I 88 W/m 14,7 C 16,5 C 4,8 km/h (1 Bft) 100,00 %
04.06.2017 19:18 16,6 C 25,0 C 90 % 1014,0 hPa 0,0 l/m 2,4 km/h (1 Bft) W-SW 242 0 min 0,000 mm 0,0 UV-I 98 W/m 15,0 C 16,6 C 4,8 km/h (1 Bft) 95,74 %
04.06.2017 19:20 16,6 C 24,4 C 90 % 1014,1 hPa 0,0 l/m 2,6 km/h (1 Bft) W-SW 242 0 min 0,000 mm 0,0 UV-I 103 W/m 15,0 C 16,6 C 4,8 km/h (1 Bft) 95,74 %
04.06.2017 19:22 16,6 C 24,4 C 90 % 1014,1 hPa 0,0 l/m 2,2 km/h (1 Bft) W-SW 242 0 min 0,000 mm 0,0 UV-I 101 W/m 15,0 C 16,6 C 4,8 km/h (1 Bft) 91,49 %
04.06.2017 19:24 16,6 C 24,4 C 90 % 1014,0 hPa 0,0 l/m 4,1 km/h (1 Bft) W-SW 242 0 min 0,000 mm 0,0 UV-I 94 W/m 15,0 C 16,6 C 6,4 km/h (2 Bft) 97,87 %
04.06.2017 19:26 16,6 C 24,4 C 90 % 1014,1 hPa 0,0 l/m 5,7 km/h (1 Bft) S-SW 200 0 min 0,000 mm 0,0 UV-I 87 W/m 15,0 C 16,6 C 9,7 km/h (2 Bft) 97,87 %
04.06.2017 19:28 16,6 C 24,4 C 90 % 1014,1 hPa 0,0 l/m 6,8 km/h (2 Bft) S-SW 211 0 min 0,000 mm 0,0 UV-I 80 W/m 15,0 C 16,4 C 9,7 km/h (2 Bft) 97,87 %
04.06.2017 19:30 16,6 C 24,4 C 89 % 1014,1 hPa 0,0 l/m 5,9 km/h (2 Bft) S-SW 202 0 min 0,000 mm 0,0 UV-I 71 W/m 14,8 C 16,6 C 9,7 km/h (2 Bft) 98,00 %
04.06.2017 19:32 16,6 C 24,4 C 90 % 1014,1 hPa 0,0 l/m 6,3 km/h (2 Bft) S-SW 207 0 min 0,000 mm 0,0 UV-I 62 W/m 15,0 C 16,6 C 8,0 km/h (2 Bft) 97,87 %
04.06.2017 19:34 16,7 C 24,4 C 90 % 1014,1 hPa 0,0 l/m 5,3 km/h (1 Bft) S-SW 213 0 min 0,000 mm 0,0 UV-I 55 W/m 15,0 C 16,7 C 8,0 km/h (2 Bft) 95,74 %
04.06.2017 19:36 16,7 C 24,4 C 90 % 1014,1 hPa 0,0 l/m 6,3 km/h (2 Bft) S-SW 201 0 min 0,000 mm 0,0 UV-I 47 W/m 15,0 C 16,7 C 9,7 km/h (2 Bft) 95,74 %
04.06.2017 19:38 16,7 C 24,4 C 90 % 1014,1 hPa 0,0 l/m 5,9 km/h (2 Bft) S-SW 202 0 min 0,000 mm 0,0 UV-I 39 W/m 15,0 C 16,7 C 9,7 km/h (2 Bft) 95,74 %
04.06.2017 19:40 16,7 C 24,4 C 90 % 1014,1 hPa 0,0 l/m 5,9 km/h (2 Bft) SW 217 0 min 0,000 mm 0,0 UV-I 34 W/m 15,0 C 16,7 C 8,0 km/h (2 Bft) 93,62 %
04.06.2017 19:42 16,7 C 24,4 C 90 % 1014,1 hPa 0,0 l/m 4,9 km/h (1 Bft) SW 225 0 min 0,000 mm 0,0 UV-I 32 W/m 15,0 C 16,7 C 6,4 km/h (2 Bft) 97,14 %
04.06.2017 19:44 16,7 C 24,4 C 90 % 1014,0 hPa 0,0 l/m 5,2 km/h (1 Bft) SW 223 0 min 0,000 mm 0,0 UV-I 32 W/m 15,0 C 16,7 C 8,0 km/h (2 Bft) 96,00 %
04.06.2017 19:46 16,7 C 24,4 C 91 % 1014,0 hPa 0,0 l/m 5,0 km/h (1 Bft) SW 225 0 min 0,000 mm 0,0 UV-I 32 W/m 15,2 C 16,7 C 8,0 km/h (2 Bft) 100,00 %
04.06.2017 19:48 16,7 C 24,4 C 91 % 1014,1 hPa 0,0 l/m 5,9 km/h (2 Bft) W-SW 255 0 min 0,000 mm 0,0 UV-I 28 W/m 15,2 C 16,7 C 8,0 km/h (2 Bft) 97,87 %
04.06.2017 19:50 16,7 C 24,4 C 91 % 1014,1 hPa 0,0 l/m 4,8 km/h (1 Bft) W-SW 252 0 min 0,000 mm 0,0 UV-I 26 W/m 15,2 C 16,7 C 8,0 km/h (2 Bft) 97,87 %
04.06.2017 19:52 16,7 C 24,4 C 91 % 1014,1 hPa 0,0 l/m 4,0 km/h (1 Bft) W 261 0 min 0,000 mm 0,0 UV-I 27 W/m 15,2 C 16,7 C 6,4 km/h (2 Bft) 100,00 %
04.06.2017 19:54 16,7 C 24,4 C 91 % 1014,1 hPa 0,0 l/m 2,9 km/h (1 Bft) W 261 0 min 0,000 mm 0,0 UV-I 28 W/m 15,2 C 16,7 C 4,8 km/h (1 Bft) 97,87 %
04.06.2017 19:56 16,7 C 24,4 C 91 % 1014,2 hPa 0,0 l/m 2,4 km/h (1 Bft) W 261 0 min 0,000 mm 0,0 UV-I 25 W/m 15,2 C 16,7 C 4,8 km/h (1 Bft) 97,87 %
04.06.2017 19:58 16,6 C 24,4 C 91 % 1014,2 hPa 0,0 l/m 1,9 km/h (1 Bft) W 262 0 min 0,000 mm 0,0 UV-I 20 W/m 15,1 C 16,6 C 4,8 km/h (1 Bft) 95,74 %
04.06.2017 20:00 16,6 C 24,4 C 91 % 1014,2 hPa 0,0 l/m 0,5 km/h (0 Bft) W 262 0 min 0,051 mm 0,0 UV-I 19 W/m 15,1 C 16,6 C 1,6 km/h (1 Bft) 100,00 %
04.06.2017 20:02 16,6 C 24,4 C 91 % 1014,2 hPa 0,0 l/m 1,1 km/h (1 Bft) W 262 0 min 0,000 mm 0,0 UV-I 20 W/m 15,1 C 16,6 C 3,2 km/h (1 Bft) 96,00 %
04.06.2017 20:04 16,5 C 24,4 C 90 % 1014,2 hPa 0,0 l/m 1,0 km/h (0 Bft) W 262 0 min 0,000 mm 0,0 UV-I 21 W/m 14,9 C 16,5 C 3,2 km/h (1 Bft) 97,87 %
04.06.2017 20:06 16,5 C 24,4 C 90 % 1014,2 hPa 0,0 l/m 0,7 km/h (0 Bft) W 262 0 min 0,000 mm 0,0 UV-I 20 W/m 14,9 C 16,5 C 3,2 km/h (1 Bft) 95,74 %
04.06.2017 20:08 16,5 C 24,4 C 90 % 1014,3 hPa 0,0 l/m 0,6 km/h (0 Bft) W 262 0 min 0,000 mm 0,0 UV-I 17 W/m 14,9 C 16,5 C 3,2 km/h (1 Bft) 100,00 %
04.06.2017 20:10 16,5 C 24,4 C 90 % 1014,3 hPa 0,0 l/m 0,0 km/h (0 Bft) W 262 0 min 0,000 mm 0,0 UV-I 13 W/m 14,9 C 16,5 C 0,0 km/h (0 Bft) 100,00 %
04.06.2017 20:12 16,5 C 24,4 C 90 % 1014,3 hPa 0,0 l/m 0,0 km/h (0 Bft) W 262 0 min 0,000 mm 0,0 UV-I 10 W/m 14,9 C 16,5 C 0,0 km/h (0 Bft) 100,00 %
04.06.2017 20:14 16,5 C 24,4 C 91 % 1014,4 hPa 0,0 l/m 0,4 km/h (0 Bft) W 262 0 min 0,000 mm 0,0 UV-I 7 W/m 15,0 C 16,5 C 3,2 km/h (1 Bft) 95,74 %
04.06.2017 20:16 16,5 C 24,4 C 92 % 1014,4 hPa 0,0 l/m 0,2 km/h (0 Bft) W 262 0 min 0,000 mm 0,0 UV-I 8 W/m 15,2 C 16,5 C 1,6 km/h (1 Bft) 97,87 %
04.06.2017 20:18 16,4 C 24,4 C 92 % 1014,4 hPa 0,0 l/m 0,0 km/h (0 Bft) W 262 0 min 0,000 mm 0,0 UV-I 9 W/m 15,1 C 16,4 C 0,0 km/h (0 Bft) 97,87 %
04.06.2017 20:20 16,4 C 24,4 C 92 % 1014,4 hPa 0,0 l/m 1,2 km/h (1 Bft) S-SW 211 0 min 0,000 mm 0,0 UV-I 9 W/m 15,1 C 16,4 C 3,2 km/h (1 Bft) 97,87 %
04.06.2017 20:22 16,4 C 24,4 C 92 % 1014,4 hPa 0,0 l/m 3,4 km/h (1 Bft) S-SW 197 0 min 0,000 mm 0,0 UV-I 9 W/m 15,1 C 16,4 C 4,8 km/h (1 Bft) 97,87 %
04.06.2017 20:24 16,4 C 24,4 C 92 % 1014,4 hPa 0,0 l/m 2,7 km/h (1 Bft) S-SW 196 0 min 0,000 mm 0,0 UV-I 9 W/m 15,1 C 16,4 C 4,8 km/h (1 Bft) 100,00 %
04.06.2017 20:26 16,5 C 24,4 C 91 % 1014,4 hPa 0,0 l/m 5,0 km/h (1 Bft) S-SW 200 0 min 0,000 mm 0,0 UV-I 9 W/m 15,0 C 16,5 C 8,0 km/h (2 Bft) 97,87 %
04.06.2017 20:28 16,5 C 24,4 C 90 % 1014,4 hPa 0,0 l/m 4,5 km/h (1 Bft) S-SW 194 0 min 0,000 mm 0,0 UV-I 9 W/m 14,9 C 16,5 C 9,7 km/h (2 Bft) 97,87 %
04.06.2017 20:30 16,6 C 24,4 C 90 % 1014,4 hPa 0,0 l/m 4,9 km/h (1 Bft) SW 235 0 min 0,000 mm 0,0 UV-I 9 W/m 15,0 C 16,6 C 11,3 km/h (2 Bft) 94,87 %
04.06.2017 20:32 16,6 C 24,4 C 90 % 1014,5 hPa 0,0 l/m 6,3 km/h (2 Bft) SW 217 0 min 0,000 mm 0,0 UV-I 9 W/m 15,0 C 16,6 C 14,5 km/h (3 Bft) 97,87 %
04.06.2017 20:34 16,6 C 24,4 C 89 % 1014,4 hPa 0,0 l/m 10,1 km/h (2 Bft) S-SW 209 0 min 0,000 mm 0,0 UV-I 9 W/m 14,8 C 14,8 C 17,7 km/h (3 Bft) 96,00 %
04.06.2017 20:36 16,6 C 24,4 C 88 % 1014,4 hPa 0,0 l/m 8,5 km/h (2 Bft) SW 222 0 min 0,000 mm 0,0 UV-I 8 W/m 14,6 C 15,5 C 14,5 km/h (3 Bft) 96,00 %
04.06.2017 20:38 16,6 C 24,4 C 88 % 1014,4 hPa 0,0 l/m 8,0 km/h (2 Bft) S 182 0 min 0,000 mm 0,0 UV-I 8 W/m 14,6 C 15,8 C 16,1 km/h (3 Bft) 96,00 %
04.06.2017 20:40 16,6 C 24,4 C 88 % 1014,4 hPa 0,0 l/m 11,0 km/h (2 Bft) SW 217 0 min 0,000 mm 0,0 UV-I 9 W/m 14,6 C 14,5 C 16,1 km/h (3 Bft) 97,37 %
04.06.2017 20:42 16,6 C 24,4 C 88 % 1014,5 hPa 0,0 l/m 10,2 km/h (2 Bft) SW 217 0 min 0,000 mm 0,0 UV-I 9 W/m 14,6 C 14,8 C 14,5 km/h (3 Bft) 91,49 %
04.06.2017 20:44 16,6 C 24,4 C 88 % 1014,5 hPa 0,0 l/m 8,4 km/h (2 Bft) S 190 0 min 0,000 mm 0,0 UV-I 9 W/m 14,6 C 15,6 C 14,5 km/h (3 Bft) 97,87 %
04.06.2017 20:46 16,4 C 24,4 C 88 % 1014,5 hPa 0,2 l/m 13,0 km/h (3 Bft) SW 216 2 min 0,000 mm 0,0 UV-I 11 W/m 14,4 C 13,5 C 20,9 km/h (4 Bft) 93,62 %
04.06.2017 20:48 16,4 C 24,4 C 88 % 1014,5 hPa 0,0 l/m 13,6 km/h (3 Bft) S-SO 166 0 min 0,000 mm 0,0 UV-I 11 W/m 14,4 C 13,3 C 20,9 km/h (4 Bft) 94,34 %
04.06.2017 20:50 16,3 C 24,4 C 88 % 1014,5 hPa 0,0 l/m 12,3 km/h (3 Bft) S-SW 201 0 min 0,000 mm 0,0 UV-I 11 W/m 14,3 C 13,7 C 19,3 km/h (3 Bft) 97,37 %
04.06.2017 20:52 16,2 C 24,4 C 88 % 1014,5 hPa 0,0 l/m 11,7 km/h (2 Bft) S-SW 209 0 min 0,000 mm 0,0 UV-I 11 W/m 14,2 C 13,8 C 20,9 km/h (4 Bft) 96,00 %
04.06.2017 20:54 16,2 C 24,4 C 89 % 1014,5 hPa 0,0 l/m 10,1 km/h (2 Bft) S-SW 211 0 min 0,000 mm 0,0 UV-I 11 W/m 14,4 C 14,4 C 17,7 km/h (3 Bft) 98,00 %
04.06.2017 20:56 16,1 C 24,4 C 89 % 1014,6 hPa 0,0 l/m 10,4 km/h (2 Bft) SW 219 0 min 0,000 mm 0,0 UV-I 9 W/m 14,3 C 14,2 C 14,5 km/h (3 Bft) 95,74 %
04.06.2017 20:59 16,0 C 24,4 C 89 % 1014,6 hPa 0,0 l/m 11,3 km/h (2 Bft) S 190 0 min 0,000 mm 0,0 UV-I 7 W/m 14,2 C 13,7 C 17,7 km/h (3 Bft) 95,77 %
04.06.2017 21:00 15,9 C 24,4 C 89 % 1014,6 hPa 0,0 l/m 6,1 km/h (2 Bft) SW 236 0 min 0,000 mm 0,0 UV-I 7 W/m 14,1 C 15,9 C 9,7 km/h (2 Bft) 100,00 %
04.06.2017 21:02 15,9 C 24,4 C 90 % 1014,7 hPa 0,0 l/m 8,0 km/h (2 Bft) SW 219 0 min 0,025 mm 0,0 UV-I 7 W/m 14,3 C 15,0 C 12,9 km/h (3 Bft) 97,87 %
04.06.2017 21:04 15,9 C 24,4 C 90 % 1014,7 hPa 0,0 l/m 8,6 km/h (2 Bft) S 182 0 min 0,000 mm 0,0 UV-I 5 W/m 14,3 C 14,8 C 12,9 km/h (3 Bft) 100,00 %
04.06.2017 21:06 15,8 C 24,4 C 90 % 1014,7 hPa 0,0 l/m 8,2 km/h (2 Bft) S-SW 196 0 min 0,000 mm 0,0 UV-I 5 W/m 14,2 C 14,8 C 12,9 km/h (3 Bft) 98,00 %
04.06.2017 21:08 15,8 C 24,4 C 90 % 1014,7 hPa 0,0 l/m 5,5 km/h (1 Bft) SW 215 0 min 0,000 mm 0,0 UV-I 1 W/m 14,2 C 15,8 C 8,0 km/h (2 Bft) 97,87 %
04.06.2017 21:10 15,7 C 24,4 C 90 % 1014,7 hPa 0,0 l/m 6,4 km/h (2 Bft) S-SW 205 0 min 0,000 mm 0,0 UV-I 0 W/m 14,1 C 15,7 C 9,7 km/h (2 Bft) 97,44 %
04.06.2017 21:12 15,7 C 24,4 C 90 % 1014,7 hPa 0,0 l/m 7,7 km/h (2 Bft) S-SW 192 0 min 0,000 mm 0,0 UV-I 0 W/m 14,1 C 15,0 C 11,3 km/h (2 Bft) 98,00 %
04.06.2017 21:14 15,7 C 24,4 C 90 % 1014,7 hPa 0,0 l/m 4,5 km/h (1 Bft) S 186 0 min 0,000 mm 0,0 UV-I 0 W/m 14,1 C 15,7 C 11,3 km/h (2 Bft) 100,00 %
04.06.2017 21:16 15,7 C 24,4 C 90 % 1014,8 hPa 0,0 l/m 4,6 km/h (1 Bft) SW 217 0 min 0,000 mm 0,0 UV-I 0 W/m 14,1 C 15,7 C 8,0 km/h (2 Bft) 100,00 %
04.06.2017 21:18 15,7 C 24,4 C 90 % 1014,8 hPa 0,0 l/m 5,5 km/h (1 Bft) S-SW 212 0 min 0,000 mm 0,0 UV-I 0 W/m 14,1 C 15,7 C 8,0 km/h (2 Bft) 97,87 %
04.06.2017 21:20 15,7 C 24,4 C 90 % 1014,8 hPa 0,0 l/m 6,1 km/h (2 Bft) S-SW 199 0 min 0,000 mm 0,0 UV-I 0 W/m 14,1 C 15,7 C 9,7 km/h (2 Bft) 100,00 %
04.06.2017 21:22 15,7 C 24,4 C 90 % 1014,8 hPa 0,0 l/m 4,0 km/h (1 Bft) S-SW 202 0 min 0,000 mm 0,0 UV-I 0 W/m 14,1 C 15,7 C 6,4 km/h (2 Bft) 95,74 %
04.06.2017 21:24 15,6 C 24,4 C 91 % 1014,8 hPa 0,0 l/m 6,0 km/h (2 Bft) S 188 0 min 0,000 mm 0,0 UV-I 0 W/m 14,1 C 15,6 C 9,7 km/h (2 Bft) 100,00 %
04.06.2017 21:26 15,6 C 24,4 C 90 % 1014,8 hPa 0,0 l/m 5,4 km/h (1 Bft) S-SW 207 0 min 0,000 mm 0,0 UV-I 0 W/m 14,0 C 15,6 C 9,7 km/h (2 Bft) 95,74 %
04.06.2017 21:28 15,6 C 24,4 C 90 % 1014,8 hPa 0,0 l/m 4,6 km/h (1 Bft) SW 231 0 min 0,000 mm 0,0 UV-I 0 W/m 14,0 C 15,6 C 8,0 km/h (2 Bft) 95,74 %
04.06.2017 21:30 15,6 C 24,4 C 90 % 1014,8 hPa 0,0 l/m 6,6 km/h (2 Bft) SW 223 0 min 0,000 mm 0,0 UV-I 0 W/m 14,0 C 15,5 C 9,7 km/h (2 Bft) 95,74 %
04.06.2017 21:32 15,6 C 24,4 C 90 % 1014,8 hPa 0,0 l/m 5,4 km/h (1 Bft) S-SO 167 0 min 0,000 mm 0,0 UV-I 0 W/m 14,0 C 15,6 C 11,3 km/h (2 Bft) 96,00 %
04.06.2017 21:34 15,6 C 24,4 C 90 % 1014,9 hPa 0,0 l/m 6,2 km/h (2 Bft) S-SW 198 0 min 0,000 mm 0,0 UV-I 0 W/m 14,0 C 15,6 C 11,3 km/h (2 Bft) 97,87 %
04.06.2017 21:36 15,6 C 24,4 C 90 % 1014,9 hPa 0,0 l/m 6,3 km/h (2 Bft) SW 221 0 min 0,000 mm 0,0 UV-I 0 W/m 14,0 C 15,6 C 11,3 km/h (2 Bft) 98,00 %
04.06.2017 21:38 15,6 C 24,4 C 90 % 1014,9 hPa 0,0 l/m 6,3 km/h (2 Bft) SW 221 0 min 0,000 mm 0,0 UV-I 0 W/m 14,0 C 15,6 C 8,0 km/h (2 Bft) 90,00 %
04.06.2017 21:40 15,6 C 24,4 C 90 % 1014,9 hPa 0,0 l/m 5,2 km/h (1 Bft) S-SW 211 0 min 0,000 mm 0,0 UV-I 0 W/m 14,0 C 15,6 C 6,4 km/h (2 Bft) 95,74 %
04.06.2017 21:42 15,6 C 24,4 C 90 % 1014,9 hPa 0,0 l/m 4,9 km/h (1 Bft) SW 220 0 min 0,000 mm 0,0 UV-I 0 W/m 14,0 C 15,6 C 6,4 km/h (2 Bft) 95,74 %
04.06.2017 21:44 15,5 C 24,4 C 90 % 1014,9 hPa 0,0 l/m 5,1 km/h (1 Bft) SW 234 0 min 0,000 mm 0,0 UV-I 0 W/m 13,9 C 15,5 C 8,0 km/h (2 Bft) 97,22 %
04.06.2017 21:46 15,5 C 24,4 C 90 % 1014,9 hPa 0,0 l/m 4,6 km/h (1 Bft) S-SW 194 0 min 0,000 mm 0,0 UV-I 0 W/m 13,9 C 15,5 C 6,4 km/h (2 Bft) 93,62 %
04.06.2017 21:48 15,5 C 24,4 C 90 % 1014,9 hPa 0,0 l/m 4,7 km/h (1 Bft) S-SW 194 0 min 0,000 mm 0,0 UV-I 0 W/m 13,9 C 15,5 C 6,4 km/h (2 Bft) 95,74 %
04.06.2017 21:50 15,5 C 24,4 C 90 % 1014,9 hPa 0,0 l/m 4,3 km/h (1 Bft) S 181 0 min 0,000 mm 0,0 UV-I 0 W/m 13,9 C 15,5 C 8,0 km/h (2 Bft) 95,74 %
04.06.2017 21:52 15,4 C 24,4 C 90 % 1014,9 hPa 0,0 l/m 4,4 km/h (1 Bft) SW 229 0 min 0,000 mm 0,0 UV-I 0 W/m 13,8 C 15,4 C 6,4 km/h (2 Bft) 97,87 %
04.06.2017 21:54 15,4 C 24,4 C 90 % 1014,9 hPa 0,0 l/m 5,1 km/h (1 Bft) S-SW 204 0 min 0,000 mm 0,0 UV-I 0 W/m 13,8 C 15,4 C 9,7 km/h (2 Bft) 93,62 %
04.06.2017 21:56 15,4 C 24,4 C 90 % 1014,9 hPa 0,0 l/m 6,4 km/h (2 Bft) SW 214 0 min 0,000 mm 0,0 UV-I 0 W/m 13,8 C 15,4 C 9,7 km/h (2 Bft) 97,87 %
04.06.2017 21:58 15,3 C 24,4 C 90 % 1015,0 hPa 0,0 l/m 6,8 km/h (2 Bft) S-SW 211 0 min 0,000 mm 0,0 UV-I 0 W/m 13,7 C 15,1 C 9,7 km/h (2 Bft) 93,62 %
04.06.2017 22:00 15,3 C 24,4 C 90 % 1015,0 hPa 0,0 l/m 6,8 km/h (2 Bft) W-SW 249 0 min 0,000 mm 0,0 UV-I 0 W/m 13,7 C 15,1 C 12,9 km/h (3 Bft) 97,87 %
04.06.2017 22:02 15,3 C 24,4 C 90 % 1015,0 hPa 0,0 l/m 6,0 km/h (2 Bft) SW 214 0 min 0,000 mm 0,0 UV-I 0 W/m 13,7 C 15,3 C 11,3 km/h (2 Bft) 95,74 %
04.06.2017 22:04 15,3 C 24,4 C 90 % 1014,9 hPa 0,0 l/m 4,6 km/h (1 Bft) SW 232 0 min 0,000 mm 0,0 UV-I 0 W/m 13,7 C 15,3 C 6,4 km/h (2 Bft) 94,00 %
04.06.2017 22:06 15,2 C 24,4 C 90 % 1014,9 hPa 0,0 l/m 5,5 km/h (1 Bft) SW 217 0 min 0,000 mm 0,0 UV-I 0 W/m 13,6 C 15,2 C 8,0 km/h (2 Bft) 95,74 %
04.06.2017 22:08 15,2 C 24,4 C 90 % 1014,9 hPa 0,0 l/m 6,0 km/h (2 Bft) W-SW 242 0 min 0,000 mm 0,0 UV-I 0 W/m 13,6 C 15,2 C 9,7 km/h (2 Bft) 95,74 %
04.06.2017 22:10 15,1 C 24,4 C 90 % 1015,0 hPa 0,0 l/m 7,1 km/h (2 Bft) SW 232 0 min 0,000 mm 0,0 UV-I 0 W/m 13,5 C 14,7 C 9,7 km/h (2 Bft) 97,96 %
04.06.2017 22:12 15,1 C 24,4 C 91 % 1015,0 hPa 0,0 l/m 6,3 km/h (2 Bft) W-SW 239 0 min 0,000 mm 0,0 UV-I 0 W/m 13,6 C 15,1 C 9,7 km/h (2 Bft) 98,00 %
04.06.2017 22:14 15,0 C 24,4 C 90 % 1015,0 hPa 0,0 l/m 6,4 km/h (2 Bft) S-SW 211 0 min 0,000 mm 0,0 UV-I 0 W/m 13,4 C 15,0 C 8,0 km/h (2 Bft) 93,62 %
04.06.2017 22:16 14,9 C 24,4 C 90 % 1015,0 hPa 0,0 l/m 5,2 km/h (1 Bft) S-SW 213 0 min 0,000 mm 0,0 UV-I 0 W/m 13,3 C 14,9 C 8,0 km/h (2 Bft) 97,87 %
04.06.2017 22:18 14,9 C 24,4 C 91 % 1015,0 hPa 0,0 l/m 5,6 km/h (1 Bft) S-SW 213 0 min 0,000 mm 0,0 UV-I 0 W/m 13,4 C 14,9 C 8,0 km/h (2 Bft) 97,87 %
04.06.2017 22:20 14,8 C 24,4 C 91 % 1015,0 hPa 0,0 l/m 6,0 km/h (2 Bft) SW 224 0 min 0,000 mm 0,0 UV-I 0 W/m 13,3 C 14,8 C 9,7 km/h (2 Bft) 94,44 %
04.06.2017 22:22 14,8 C 24,4 C 91 % 1014,9 hPa 0,0 l/m 5,8 km/h (2 Bft) S-SW 211 0 min 0,000 mm 0,0 UV-I 0 W/m 13,3 C 14,8 C 9,7 km/h (2 Bft) 97,96 %
04.06.2017 22:24 14,8 C 24,4 C 91 % 1014,9 hPa 0,0 l/m 6,3 km/h (2 Bft) S-SW 207 0 min 0,000 mm 0,0 UV-I 0 W/m 13,3 C 14,8 C 9,7 km/h (2 Bft) 96,00 %
04.06.2017 22:26 14,7 C 24,4 C 91 % 1015,0 hPa 0,0 l/m 5,6 km/h (1 Bft) S-SW 195 0 min 0,000 mm 0,0 UV-I 0 W/m 13,2 C 14,7 C 11,3 km/h (2 Bft) 93,75 %
04.06.2017 22:28 14,7 C 24,4 C 91 % 1015,0 hPa 0,0 l/m 7,6 km/h (2 Bft) S 186 0 min 0,000 mm 0,0 UV-I 0 W/m 13,2 C 14,0 C 11,3 km/h (2 Bft) 98,00 %
04.06.2017 22:30 14,6 C 24,4 C 91 % 1015,0 hPa 0,0 l/m 7,7 km/h (2 Bft) S-SW 208 0 min 0,000 mm 0,0 UV-I 0 W/m 13,1 C 13,8 C 11,3 km/h (2 Bft) 93,62 %
04.06.2017 22:32 14,6 C 24,4 C 91 % 1015,0 hPa 0,0 l/m 6,5 km/h (2 Bft) S-SW 205 0 min 0,000 mm 0,0 UV-I 0 W/m 13,1 C 14,6 C 9,7 km/h (2 Bft) 97,87 %
04.06.2017 22:34 14,6 C 24,4 C 91 % 1015,0 hPa 0,0 l/m 6,7 km/h (2 Bft) S 187 0 min 0,000 mm 0,0 UV-I 0 W/m 13,1 C 14,4 C 9,7 km/h (2 Bft) 94,74 %
04.06.2017 22:36 14,6 C 24,4 C 91 % 1015,0 hPa 0,0 l/m 4,9 km/h (1 Bft) SW 217 0 min 0,000 mm 0,0 UV-I 0 W/m 13,1 C 14,6 C 8,0 km/h (2 Bft) 97,87 %
04.06.2017 22:38 14,5 C 24,4 C 91 % 1015,0 hPa 0,0 l/m 6,4 km/h (2 Bft) W-SW 244 0 min 0,000 mm 0,0 UV-I 0 W/m 13,0 C 14,5 C 9,7 km/h (2 Bft) 96,00 %
04.06.2017 22:40 14,5 C 24,4 C 91 % 1015,0 hPa 0,0 l/m 5,5 km/h (1 Bft) S-SW 211 0 min 0,000 mm 0,0 UV-I 0 W/m 13,0 C 14,5 C 8,0 km/h (2 Bft) 95,74 %
04.06.2017 22:42 14,4 C 24,4 C 91 % 1015,0 hPa 0,0 l/m 5,4 km/h (1 Bft) S-SW 212 0 min 0,000 mm 0,0 UV-I 0 W/m 12,9 C 14,4 C 9,7 km/h (2 Bft) 93,62 %
04.06.2017 22:44 14,4 C 24,4 C 91 % 1015,0 hPa 0,0 l/m 4,6 km/h (1 Bft) S-SW 209 0 min 0,000 mm 0,0 UV-I 0 W/m 12,9 C 14,4 C 8,0 km/h (2 Bft) 98,00 %
04.06.2017 22:46 14,4 C 24,4 C 91 % 1014,9 hPa 0,0 l/m 5,0 km/h (1 Bft) S-SW 198 0 min 0,000 mm 0,0 UV-I 0 W/m 12,9 C 14,4 C 8,0 km/h (2 Bft) 93,62 %
04.06.2017 22:48 14,4 C 24,4 C 91 % 1015,0 hPa 0,0 l/m 3,7 km/h (1 Bft) S-SW 196 0 min 0,000 mm 0,0 UV-I 0 W/m 12,9 C 14,4 C 8,0 km/h (2 Bft) 89,47 %
04.06.2017 22:50 14,3 C 24,4 C 91 % 1015,0 hPa 0,0 l/m 2,0 km/h (1 Bft) S-SW 199 0 min 0,000 mm 0,0 UV-I 0 W/m 12,8 C 14,3 C 4,8 km/h (1 Bft) 96,00 %
04.06.2017 22:52 14,3 C 24,4 C 91 % 1014,9 hPa 0,0 l/m 3,0 km/h (1 Bft) S-SW 198 0 min 0,000 mm 0,0 UV-I 0 W/m 12,8 C 14,3 C 4,8 km/h (1 Bft) 95,74 %
04.06.2017 22:54 14,3 C 24,4 C 91 % 1014,9 hPa 0,0 l/m 2,4 km/h (1 Bft) S 188 0 min 0,000 mm 0,0 UV-I 0 W/m 12,8 C 14,3 C 3,2 km/h (1 Bft) 98,00 %
04.06.2017 22:56 14,3 C 24,4 C 91 % 1014,9 hPa 0,0 l/m 2,4 km/h (1 Bft) S 188 0 min 0,000 mm 0,0 UV-I 0 W/m 12,8 C 14,3 C 3,2 km/h (1 Bft) 95,74 %
04.06.2017 22:58 14,3 C 24,4 C 91 % 1014,9 hPa 0,0 l/m 3,0 km/h (1 Bft) S 188 0 min 0,000 mm 0,0 UV-I 0 W/m 12,8 C 14,3 C 4,8 km/h (1 Bft) 97,87 %
04.06.2017 23:00 14,3 C 24,4 C 91 % 1014,9 hPa 0,0 l/m 2,3 km/h (1 Bft) S 187 0 min 0,000 mm 0,0 UV-I 0 W/m 12,8 C 14,3 C 4,8 km/h (1 Bft) 95,74 %
04.06.2017 23:02 14,2 C 24,4 C 91 % 1014,8 hPa 0,0 l/m 0,8 km/h (0 Bft) S 187 0 min 0,000 mm 0,0 UV-I 0 W/m 12,8 C 14,2 C 1,6 km/h (1 Bft) 100,00 %
04.06.2017 23:04 14,2 C 24,4 C 91 % 1014,9 hPa 0,0 l/m 1,8 km/h (1 Bft) S 187 0 min 0,000 mm 0,0 UV-I 0 W/m 12,8 C 14,2 C 3,2 km/h (1 Bft) 98,00 %
04.06.2017 23:06 14,2 C 24,4 C 91 % 1014,9 hPa 0,0 l/m 0,3 km/h (0 Bft) S 187 0 min 0,000 mm 0,0 UV-I 0 W/m 12,8 C 14,2 C 3,2 km/h (1 Bft) 97,87 %
04.06.2017 23:08 14,1 C 24,4 C 91 % 1014,9 hPa 0,0 l/m 1,0 km/h (0 Bft) S 187 0 min 0,000 mm 0,0 UV-I 0 W/m 12,7 C 14,1 C 3,2 km/h (1 Bft) 97,87 %
04.06.2017 23:10 14,1 C 23,9 C 92 % 1014,9 hPa 0,0 l/m 1,0 km/h (0 Bft) S 187 0 min 0,000 mm 0,0 UV-I 0 W/m 12,8 C 14,1 C 3,2 km/h (1 Bft) 97,92 %
04.06.2017 23:12 14,1 C 23,9 C 92 % 1014,9 hPa 0,0 l/m 2,2 km/h (1 Bft) S 187 0 min 0,000 mm 0,0 UV-I 0 W/m 12,8 C 14,1 C 4,8 km/h (1 Bft) 97,14 %
04.06.2017 23:14 14,1 C 23,9 C 92 % 1014,9 hPa 0,0 l/m 2,1 km/h (1 Bft) S 187 0 min 0,000 mm 0,0 UV-I 0 W/m 12,8 C 14,1 C 3,2 km/h (1 Bft) 97,96 %
04.06.2017 23:16 14,1 C 23,9 C 92 % 1014,9 hPa 0,0 l/m 2,3 km/h (1 Bft) S 187 0 min 0,000 mm 0,0 UV-I 0 W/m 12,8 C 14,1 C 4,8 km/h (1 Bft) 100,00 %
04.06.2017 23:18 14,1 C 23,9 C 92 % 1014,8 hPa 0,0 l/m 1,1 km/h (1 Bft) S 187 0 min 0,000 mm 0,0 UV-I 0 W/m 12,8 C 14,1 C 3,2 km/h (1 Bft) 97,87 %
04.06.2017 23:20 14,1 C 23,9 C 92 % 1014,8 hPa 0,0 l/m 0,8 km/h (0 Bft) S 187 0 min 0,000 mm 0,0 UV-I 0 W/m 12,8 C 14,1 C 1,6 km/h (1 Bft) 98,00 %
04.06.2017 23:22 14,0 C 23,9 C 92 % 1014,8 hPa 0,0 l/m 0,9 km/h (0 Bft) S 187 0 min 0,000 mm 0,0 UV-I 0 W/m 12,7 C 14,0 C 3,2 km/h (1 Bft) 97,87 %
04.06.2017 23:24 14,0 C 23,9 C 92 % 1014,8 hPa 0,0 l/m 0,9 km/h (0 Bft) S 187 0 min 0,000 mm 0,0 UV-I 0 W/m 12,7 C 14,0 C 1,6 km/h (1 Bft) 100,00 %
04.06.2017 23:26 13,9 C 23,9 C 92 % 1014,8 hPa 0,0 l/m 1,4 km/h (1 Bft) S 187 0 min 0,000 mm 0,0 UV-I 0 W/m 12,6 C 13,9 C 3,2 km/h (1 Bft) 97,87 %
04.06.2017 23:28 13,9 C 23,9 C 92 % 1014,8 hPa 0,0 l/m 0,3 km/h (0 Bft) S 187 0 min 0,000 mm 0,0 UV-I 0 W/m 12,6 C 13,9 C 1,6 km/h (1 Bft) 100,00 %
04.06.2017 23:30 13,9 C 23,9 C 92 % 1014,8 hPa 0,0 l/m 0,4 km/h (0 Bft) S 187 0 min 0,000 mm 0,0 UV-I 0 W/m 12,6 C 13,9 C 1,6 km/h (1 Bft) 97,87 %
04.06.2017 23:32 13,9 C 23,9 C 92 % 1014,8 hPa 0,0 l/m 0,6 km/h (0 Bft) S 187 0 min 0,000 mm 0,0 UV-I 0 W/m 12,6 C 13,9 C 3,2 km/h (1 Bft) 97,14 %
04.06.2017 23:34 13,9 C 23,9 C 92 % 1014,8 hPa 0,0 l/m 1,9 km/h (1 Bft) S 187 0 min 0,000 mm 0,0 UV-I 0 W/m 12,6 C 13,9 C 3,2 km/h (1 Bft) 96,15 %
04.06.2017 23:36 13,8 C 23,9 C 92 % 1014,8 hPa 0,0 l/m 2,3 km/h (1 Bft) S 187 0 min 0,000 mm 0,0 UV-I 0 W/m 12,5 C 13,8 C 4,8 km/h (1 Bft) 97,87 %
04.06.2017 23:38 13,8 C 23,9 C 92 % 1014,8 hPa 0,0 l/m 2,9 km/h (1 Bft) S 187 0 min 0,000 mm 0,0 UV-I 0 W/m 12,5 C 13,8 C 4,8 km/h (1 Bft) 100,00 %
04.06.2017 23:40 13,8 C 23,9 C 92 % 1014,8 hPa 0,0 l/m 3,1 km/h (1 Bft) S 181 0 min 0,000 mm 0,0 UV-I 0 W/m 12,5 C 13,8 C 6,4 km/h (2 Bft) 93,62 %
04.06.2017 23:42 13,8 C 23,9 C 92 % 1014,8 hPa 0,0 l/m 2,4 km/h (1 Bft) S 181 0 min 0,000 mm 0,0 UV-I 0 W/m 12,5 C 13,8 C 6,4 km/h (2 Bft) 97,92 %
04.06.2017 23:44 13,8 C 23,9 C 92 % 1014,8 hPa 0,0 l/m 1,6 km/h (1 Bft) S 181 0 min 0,000 mm 0,0 UV-I 0 W/m 12,5 C 13,8 C 3,2 km/h (1 Bft) 93,88 %
04.06.2017 23:46 13,8 C 23,9 C 93 % 1014,8 hPa 0,0 l/m 2,3 km/h (1 Bft) S 181 0 min 0,000 mm 0,0 UV-I 0 W/m 12,7 C 13,8 C 4,8 km/h (1 Bft) 97,87 %
04.06.2017 23:49 13,7 C 23,9 C 93 % 1014,8 hPa 0,0 l/m 1,9 km/h (1 Bft) S 181 0 min 0,000 mm 0,0 UV-I 0 W/m 12,6 C 13,7 C 3,2 km/h (1 Bft) 98,61 %
04.06.2017 23:50 13,7 C 23,9 C 93 % 1014,8 hPa 0,0 l/m 2,8 km/h (1 Bft) S 181 0 min 0,000 mm 0,0 UV-I 0 W/m 12,6 C 13,7 C 4,8 km/h (1 Bft) 100,00 %
04.06.2017 23:52 13,7 C 23,9 C 93 % 1014,8 hPa 0,0 l/m 2,4 km/h (1 Bft) S 181 0 min 0,000 mm 0,0 UV-I 0 W/m 12,6 C 13,7 C 4,8 km/h (1 Bft) 100,00 %
04.06.2017 23:54 13,7 C 23,9 C 93 % 1014,8 hPa 0,0 l/m 2,5 km/h (1 Bft) S 181 0 min 0,000 mm 0,0 UV-I 0 W/m 12,6 C 13,7 C 3,2 km/h (1 Bft) 98,00 %
04.06.2017 23:56 13,6 C 23,9 C 93 % 1014,8 hPa 0,0 l/m 2,4 km/h (1 Bft) S 181 0 min 0,000 mm 0,0 UV-I 0 W/m 12,5 C 13,6 C 3,2 km/h (1 Bft) 100,00 %
04.06.2017 23:58 13,6 C 23,9 C 93 % 1014,9 hPa 0,0 l/m 2,2 km/h (1 Bft) S 181 0 min 0,000 mm 0,0 UV-I 0 W/m 12,5 C 13,6 C 3,2 km/h (1 Bft) 97,87 %
_ Min-Zeit 23:56 23:10 11:46 03:34 - 01:12 - - - - - - 23:56 14:36 01:16 04:02
Minimum _ 13,6 C 23,9 C 64 % 1005,6 hPa - 0,0 km/h (0 Bft) - - - - - - 12,5 C 11,3 C 0,0 km/h (0 Bft) 80,95 %
_ Max-Zeit 10:22 00:00 23:46 21:58 14:30 12:40 - - 10:13 12:00 10:18 10:18 07:58 10:22 14:26 00:04
Maximum _ 21,5 C 26,7 C 93 % 1015,0 hPa 0,2 l/m 28,5 km/h
SW (4 Bft)
- - 3 min 0,229 mm 3,1 UV-I 622 W/m 16,8 C 21,5 C 48,3 km/h
W-SW (6 Bft)
100,00 %
Durchschnitt _ 17,8 C 25,4 C 83 % 1010,6 hPa #1,0 l/m 9,6 km/h (2 Bft) W-SW - #1:56 h #2,108 mm 1,2 UV-I 157 W/m 14,8 C 16,3 C 15,2 km/h (3 Bft) 96,32 %